GFSSW_2pvu_pres_000.txt.gz
Presure
199 222 213 270 269 265 257 272 273 284 258 212 231 275 234 193 185 182 135 149 177 203 204 102 219 113 89 91 110 82 126 108 166 182 87 88 72 89 83 87 86 128 102 179 133
154 185 268 264 250 264 249 273 254 291 304 325 243 201 288 228 194 192 185 142 73 203 196 198 79 211 184 101 87 96 115 87 121 161 119 87 83 88 133 124 86 90 135 184 177
214 261 254 239 253 250 245 246 277 286 319 210 326 262 243 306 219 175 170 183 190 196 203 197 169 196 220 175 97 90 85 122 95 185 85 91 94 75 94 92 81 232 84 162 165
213 250 235 251 249 243 251 255 278 301 328 367 407 380 250 274 239 200 184 186 188 182 200 199 196 203 81 150 97 209 95 105 123 86 188 92 92 94 106 158 234 79 130 191 240
255 242 234 237 241 246 246 254 273 298 389 373 403 430 335 222 309 210 201 185 190 186 194 165 198 172 197 165 166 97 168 90 119 85 85 92 91 90 203 211 210 145 96 212 134
251 239 234 237 251 244 242 252 282 302 382 373 425 423 391 230 242 220 209 194 175 187 190 190 110 190 194 182 84 203 187 85 95 95 83 83 85 198 103 100 158 116 222 230 142
243 232 246 242 231 238 264 267 281 306 386 395 406 426 409 360 248 248 212 200 179 172 185 195 185 95 186 196 199 198 189 191 187 190 104 100 196 100 146 149 103 107 104 212 251
249 236 241 230 239 248 262 269 279 306 377 428 396 400 391 386 249 288 218 205 191 177 185 196 193 182 87 168 162 190 198 193 145 110 194 185 87 91 141 100 195 127 223 129 228
246 240 233 256 238 254 260 267 282 290 370 430 395 386 436 213 247 272 220 213 195 189 178 184 193 181 193 99 188 190 181 190 182 94 152 78 163 90 187 166 102 218 224 240 179
244 239 232 211 244 254 256 267 278 305 366 422 404 408 428 354 99 256 231 217 196 191 189 174 191 178 189 182 130 180 179 181 175 192 157 150 172 151 191 96 109 154 103 83 82
238 237 229 244 236 251 253 262 278 307 375 361 304 406 392 348 263 242 252 189 198 199 190 178 178 183 183 191 186 190 177 187 179 184 127 184 186 90 109 196 202 209 111 79 83
161 238 231 241 233 244 250 259 276 306 362 370 420 414 390 339 137 197 138 221 209 198 191 185 102 170 176 178 190 189 195 185 187 200 184 163 184 97 188 191 118 188 200 228 158
233 234 233 233 243 240 249 265 284 308 355 387 405 444 379 306 265 221 279 221 175 205 200 86 168 163 176 162 182 193 181 194 206 171 176 166 180 178 177 178 168 145 162 225 215
227 245 233 231 234 231 250 269 286 324 366 358 397 420 98 120 83 190 307 223 211 198 200 178 98 179 113 183 182 183 176 197 131 117 175 96 184 187 93 180 122 108 203 191 212
218 232 230 231 226 235 240 257 291 338 346 358 468 420 409 256 246 92 273 221 206 207 197 157 185 96 174 181 187 182 175 93 177 169 205 180 151 85 164 161 178 196 110 209 206
180 228 227 226 227 237 244 262 293 359 352 364 461 468 251 253 255 190 299 153 213 207 203 185 188 194 183 175 178 182 179 175 152 185 169 170 187 206 183 188 187 190 197 202 210
219 233 228 223 226 231 242 263 299 321 381 411 511 461 231 242 257 223 216 238 216 114 151 195 189 194 193 76 185 183 188 182 179 189 170 177 140 171 180 187 175 188 195 180 96
227 233 227 220 226 231 242 261 314 380 392 464 520 339 236 258 255 213 304 259 222 211 192 156 184 199 86 184 174 166 97 166 175 156 169 178 91 183 167 188 179 189 185 190 102
228 231 228 219 226 234 242 253 306 387 411 470 253 243 249 252 218 215 207 303 226 215 203 196 151 174 194 191 187 172 179 183 178 193 180 155 165 165 175 194 168 191 194 183 186
225 225 213 227 225 231 240 188 298 231 206 242 231 210 225 264 284 216 205 218 301 223 206 195 165 160 183 180 177 179 183 173 149 180 171 159 193 182 168 168 164 160 197 166 181
227 220 222 225 220 231 241 251 211 196 193 230 223 232 203 234 236 247 206 214 225 331 225 201 192 179 164 174 172 169 179 180 174 183 169 183 163 188 174 178 166 179 180 180 185
235 228 229 221 219 225 239 251 203 197 193 189 193 208 237 237 247 256 256 258 202 199 292 206 201 192 184 175 179 180 177 172 165 174 186 173 164 189 166 185 191 170 182 172 187
239 224 239 230 215 222 234 243 202 196 191 190 186 198 228 235 249 258 263 327 311 216 278 275 203 194 193 191 184 184 191 191 169 193 185 178 186 178 159 163 165 172 182 169 170
247 226 224 222 221 217 231 235 208 201 194 192 187 194 194 186 232 245 252 254 296 205 242 268 254 205 190 185 193 186 190 180 180 188 178 164 185 177 181 159 175 166 198 177 181
251 232 219 226 223 219 217 221 233 207 201 198 197 188 187 191 189 218 232 248 255 246 206 237 266 222 202 192 193 193 179 184 187 187 179 185 177 173 177 183 187 170 159 109 170
173 241 221 219 215 162 229 219 220 238 207 205 196 200 198 197 188 194 198 223 243 246 250 253 289 230 225 212 200 191 195 194 193 196 167 186 161 176 183 184 190 160 159 159 172
225 250 228 212 220 221 221 215 214 220 230 199 207 199 194 198 202 198 190 179 208 234 239 244 247 244 230 193 197 193 195 189 179 154 184 176 183 166 185 188 189 169 197 195 168

GFSSW_2pvu_pres_003.txt.gz
Presure
228 237 220 222 238 234 239 272 265 225 270 277 267 250 212 223 241 230 188 179 191 192 180 130 208 105 125 132 202 166 141 187 154 169 120 95 80 77 79 90 179 78 88 97 108
224 211 232 171 127 235 268 211 263 260 253 249 265 277 257 212 228 238 189 194 149 187 181 187 194 166 184 111 173 194 173 111 185 132 161 148 97 124 84 117 95 77 122 95 81
136 220 151 222 228 254 251 242 234 252 243 246 251 264 278 303 260 225 276 184 188 192 192 192 198 102 194 84 94 211 83 87 101 103 178 106 91 87 89 182 98 91 83 82 174
205 226 218 211 251 245 237 232 241 237 240 256 252 250 271 297 347 211 235 266 191 87 88 195 176 196 201 98 202 82 115 151 142 178 181 185 127 177 94 96 112 91 91 197 199
206 224 207 207 239 249 228 240 249 232 230 233 252 277 313 296 369 386 230 277 204 193 129 81 188 184 193 157 213 141 197 116 94 83 88 136 118 148 93 97 95 86 188 167 232
211 206 201 216 244 238 255 243 229 252 243 234 270 280 318 410 393 389 231 262 256 201 194 189 181 134 198 195 178 211 95 87 91 96 209 96 154 84 93 99 93 98 196 95 217
215 199 205 221 246 239 241 223 215 249 257 253 283 305 380 384 408 432 416 244 284 211 194 188 181 186 194 195 193 210 180 215 90 160 92 102 96 83 79 89 89 95 163 109 205
215 203 208 222 242 239 234 234 247 239 266 277 285 367 371 414 401 413 428 228 278 221 200 192 187 181 203 197 202 201 118 197 88 159 178 91 94 94 96 92 102 114 200 202 136
213 209 211 247 232 242 228 237 222 254 270 282 298 353 405 397 395 304 402 236 275 226 204 147 192 184 132 176 200 208 204 196 190 196 139 94 93 99 101 143 202 84 131 123 92
195 205 213 243 234 231 239 230 242 263 277 287 313 370 457 394 400 404 383 142 274 190 212 201 193 183 176 95 189 192 189 194 195 187 190 189 128 189 188 190 91 190 92 95 109
194 203 209 238 219 241 231 236 249 261 279 285 321 352 408 400 403 413 371 239 280 233 215 200 189 183 154 194 189 103 194 198 159 143 186 188 87 90 87 137 184 197 189 194 119
197 203 217 232 242 232 233 236 250 259 279 291 322 342 397 391 398 400 355 242 280 231 216 205 191 179 169 168 192 133 196 101 185 150 191 183 178 196 189 157 170 124 126 185 184
206 206 238 243 235 231 230 236 255 262 282 307 335 341 237 399 393 380 317 168 279 232 215 138 186 125 170 166 186 193 188 188 186 184 179 177 183 188 132 189 151 189 91 192 138
212 209 246 235 237 233 227 240 255 263 288 314 342 331 401 390 379 371 306 228 255 193 210 199 125 185 168 182 175 187 192 186 184 177 176 178 180 171 191 188 173 112 181 176 197
212 212 244 230 231 228 229 246 247 260 295 346 357 353 421 383 372 366 199 225 271 224 213 198 188 183 183 179 169 99 192 186 187 96 182 172 174 183 173 180 90 190 170 182 115
204 212 245 231 227 230 234 249 243 285 336 376 364 350 318 294 366 321 248 240 268 224 211 200 195 188 155 165 178 171 188 184 187 116 174 172 175 83 133 173 175 169 179 164 191
203 215 206 235 225 230 237 243 252 308 394 396 386 493 433 384 298 208 235 255 220 225 216 203 124 187 142 189 128 185 164 172 180 179 173 182 108 122 169 178 168 171 186 183 180
210 236 206 229 228 231 237 269 266 333 417 431 522 468 390 395 376 101 216 253 158 217 212 203 198 192 86 186 117 183 84 184 187 171 187 180 167 192 182 172 188 99 175 183 173
217 261 233 218 230 233 241 261 240 267 412 505 527 418 411 376 254 254 230 262 260 216 90 203 198 181 184 181 178 177 97 103 151 171 183 164 168 169 165 165 177 172 178 184 108
216 260 236 227 231 231 242 216 210 225 243 331 385 405 397 238 255 274 224 227 259 217 207 182 95 189 187 182 180 184 185 138 186 83 88 181 182 194 180 195 171 162 161 158 170
219 258 240 225 236 230 247 209 204 221 223 220 238 206 207 217 218 222 216 247 310 214 205 198 202 166 187 187 185 186 187 185 178 172 174 180 170 193 160 161 194 186 166 173 163
221 254 241 228 236 230 241 206 203 225 223 223 222 228 225 236 236 248 204 224 313 207 202 197 197 198 187 163 186 188 190 183 183 173 181 185 169 198 175 168 173 190 182 175 177
218 252 238 232 221 226 234 202 200 206 222 221 152 231 211 249 254 217 216 213 330 262 206 198 201 200 199 158 151 186 193 193 193 191 182 184 188 168 186 166 168 164 173 192 161
219 235 236 224 225 221 230 205 196 199 200 215 216 214 213 225 235 244 209 204 238 347 226 215 207 201 195 190 151 164 157 174 180 168 175 175 177 168 189 190 178 179 184 171 184
210 236 232 229 232 222 230 238 196 196 197 191 194 209 226 236 242 246 248 230 210 223 228 288 214 210 202 193 190 180 168 167 165 177 162 179 184 169 175 174 182 192 190 187 183
216 220 246 241 225 231 220 229 241 195 190 189 186 189 211 219 249 255 254 253 251 205 171 200 195 218 213 206 198 194 186 184 176 167 177 189 184 179 170 176 172 175 171 169 167
222 219 256 231 230 230 227 219 229 238 197 190 188 189 202 207 200 219 246 252 292 308 280 204 198 272 275 262 212 197 194 190 189 190 184 184 180 189 192 178 179 183 181 179 182

GFSSW_2pvu_pres_006.txt.gz
Presure
185 184 203 215 189 228 229 231 227 219 224 279 279 278 266 233 211 208 223 252 197 191 192 182 167 155 173 175 112 114 123 130 95 97 100 171 181 110 179 109 111 112 85 84 94
204 195 197 205 187 218 228 232 208 247 268 259 254 259 256 264 267 262 214 223 260 156 196 185 101 149 105 162 149 212 205 133 109 88 179 138 182 195 94 78 133 90 76 103 89
178 199 193 201 138 214 221 207 225 258 257 242 218 244 257 257 261 263 274 213 225 264 207 168 198 200 125 184 208 92 138 126 117 187 115 131 176 169 91 86 85 69 90 84 75
183 195 206 185 225 191 219 214 232 256 244 240 243 239 243 240 244 263 273 287 228 232 260 200 200 177 198 149 110 87 123 157 188 217 113 104 169 120 131 91 88 84 123 89 91
188 195 206 189 214 219 208 214 250 241 243 232 231 237 228 236 242 255 260 271 307 215 246 209 200 194 182 190 156 112 107 115 131 210 201 100 174 113 108 112 88 92 90 94 88
194 193 205 202 221 225 228 215 256 236 230 233 232 232 226 237 258 253 261 282 293 311 225 254 198 193 187 192 108 143 204 215 94 69 139 78 90 110 181 178 135 181 90 102 93
191 195 189 205 216 208 235 210 240 227 235 232 228 237 239 272 238 238 291 307 273 302 216 241 211 79 82 192 192 186 183 141 80 86 199 85 109 93 157 171 123 93 91 95 94
183 197 198 203 206 205 216 243 230 231 225 226 225 234 270 280 289 306 329 376 386 322 334 230 258 202 110 127 190 190 190 179 216 88 85 114 90 187 93 145 164 89 127 83 192
188 196 203 209 187 205 211 241 240 225 234 232 248 261 271 280 289 320 349 386 397 396 361 233 264 209 192 193 156 193 184 171 204 211 145 147 90 89 175 117 148 95 104 101 88
187 204 196 215 208 234 213 241 226 228 223 239 248 272 273 284 303 335 383 422 420 401 374 242 122 209 195 178 181 186 179 203 195 207 180 213 203 120 90 88 97 90 173 193 201
158 183 199 212 205 221 238 232 235 232 236 250 246 276 273 300 325 354 402 393 399 437 378 237 271 218 190 179 186 183 187 200 218 209 206 203 199 188 165 76 90 98 161 189 193
191 201 202 201 204 212 238 233 235 237 248 249 278 274 293 320 334 350 413 395 390 415 373 238 276 215 194 155 186 181 176 196 196 192 196 203 196 192 97 190 142 191 188 90 108
189 193 205 205 225 213 234 236 236 241 250 256 270 285 319 333 346 271 243 388 373 375 344 177 228 211 195 188 186 170 172 199 200 202 195 197 197 186 189 189 193 138 119 97 181
191 196 196 204 216 233 235 236 236 240 259 266 275 333 339 341 343 408 399 370 356 360 328 121 102 208 193 190 185 183 182 195 103 194 191 196 191 188 135 183 180 182 186 178 179
200 202 192 196 209 241 236 232 235 247 251 274 285 359 344 356 355 311 406 363 350 168 247 232 245 93 199 188 185 183 191 185 191 190 196 104 98 104 184 179 182 191 171 190 175
186 205 193 231 142 239 234 236 238 245 255 278 368 377 366 354 370 332 375 350 347 326 228 268 219 205 126 190 184 191 168 188 193 187 197 191 192 183 177 177 175 182 179 132 188
199 188 198 218 239 233 238 246 231 231 260 312 364 374 362 349 399 382 360 336 253 243 266 253 220 202 197 194 159 188 171 162 189 187 190 192 187 175 179 175 173 178 166 169 94
205 199 192 213 240 235 236 246 223 229 256 358 420 405 408 400 363 347 302 328 271 230 263 220 214 205 194 189 185 198 173 189 164 186 182 191 184 174 109 175 187 193 170 120 167
205 202 202 214 242 236 239 214 224 230 254 375 489 514 445 360 360 345 324 272 236 251 259 227 76 96 196 191 140 165 165 87 145 97 183 185 184 192 181 177 172 97 160 96 179
206 201 209 217 241 233 240 230 220 228 245 354 470 410 390 367 350 325 308 264 235 247 252 198 210 198 191 197 188 179 184 183 171 180 187 176 182 186 174 168 136 189 188 144 164
195 196 214 241 240 234 236 205 218 224 224 239 265 389 390 381 330 312 269 184 242 269 237 216 208 197 197 194 161 179 178 174 135 180 174 175 182 178 151 156 94 145 194 165 162
199 207 218 241 235 237 236 204 218 218 205 214 218 221 232 353 317 235 223 214 178 268 217 208 201 201 196 191 186 191 189 189 181 178 181 173 177 179 169 187 158 169 170 195 173
200 209 218 247 235 231 230 202 216 217 214 198 208 217 218 240 212 220 215 223 252 257 208 196 197 198 195 200 186 193 181 177 182 178 179 178 180 185 177 166 184 182 176 172 184
198 210 221 245 237 228 230 201 215 211 222 226 216 197 217 223 233 233 210 213 251 253 205 209 204 202 199 188 148 158 181 165 175 175 185 182 186 187 184 171 168 185 184 181 177
186 205 220 246 234 232 231 203 195 212 211 224 229 173 234 238 222 218 212 207 249 248 228 208 205 201 201 199 197 188 177 179 182 182 184 189 190 186 190 182 182 175 175 181 189
172 212 220 242 234 239 230 206 193 211 207 211 221 221 218 231 247 257 208 208 224 306 301 210 203 201 204 196 201 196 183 175 167 177 131 168 187 195 185 176 173 181 178 176 173
177 213 202 246 236 237 239 231 195 197 202 203 210 213 226 230 237 245 205 213 207 227 333 249 207 204 200 200 196 195 191 180 179 162 161 162 163 178 159 171 172 179 178 186 178

GFSSW_2pvu_pres_009.txt.gz
Presure
203 176 179 192 199 204 191 199 200 207 194 223 234 227 225 257 277 238 214 219 231 245 265 110 205 178 187 171 143 182 161 126 107 89 94 105 106 164 90 90 167 133 114 151 84
139 208 193 200 195 191 174 203 198 200 221 218 223 217 272 286 275 272 274 246 221 226 248 222 114 202 204 76 185 101 98 109 106 105 113 95 100 93 126 158 139 190 74 127 84
208 193 189 217 214 206 187 198 206 188 228 222 217 246 267 263 252 257 256 268 258 211 221 239 197 106 113 185 115 83 166 127 113 105 107 95 95 96 102 96 183 116 106 87 79
201 199 214 214 215 206 199 192 179 198 211 207 215 258 256 253 222 249 250 258 264 268 237 221 243 194 199 195 184 176 95 126 148 103 188 116 122 111 100 147 176 170 87 84 81
219 187 199 217 203 204 199 201 200 177 224 224 214 257 249 247 239 242 246 232 222 249 268 268 215 242 199 166 189 104 113 195 171 199 106 124 136 95 107 151 129 178 88 88 85
196 181 216 198 196 197 194 194 199 219 209 211 230 252 238 241 236 241 231 232 244 178 194 243 266 224 246 205 195 134 111 119 201 220 135 220 118 189 176 102 188 100 100 87 87
192 219 212 191 202 192 191 185 195 165 239 207 242 242 237 227 226 228 227 227 240 236 250 192 270 243 225 238 194 189 121 111 96 156 82 138 146 126 203 109 187 69 154 90 90
203 207 212 218 201 184 188 200 182 209 230 217 249 238 224 227 227 233 234 242 242 249 274 256 285 304 235 242 219 198 200 195 182 107 108 114 114 194 224 219 113 111 198 158 107
210 212 210 214 198 186 172 196 211 201 219 227 245 226 229 225 228 235 240 251 271 268 254 299 290 289 317 223 252 202 195 188 198 192 134 125 217 143 206 142 166 100 137 208 99
203 214 204 224 201 193 186 200 213 205 216 242 234 230 227 235 238 253 260 264 282 287 303 310 313 292 316 224 256 170 192 182 185 192 177 188 107 204 82 115 94 91 173 88 97
196 210 230 194 198 190 194 202 207 223 216 240 232 227 238 244 247 252 274 280 317 315 321 343 359 372 321 238 79 206 196 194 182 189 178 184 198 220 107 89 93 89 90 95 199
206 218 184 200 203 199 199 208 205 217 242 237 226 232 240 239 253 271 313 336 330 329 342 379 410 394 349 304 238 214 169 191 193 192 185 185 207 214 205 158 152 90 73 90 95
213 209 211 198 195 195 206 204 218 231 249 233 237 238 234 250 287 312 342 333 336 344 405 404 454 465 350 300 245 205 193 192 194 175 183 182 200 209 203 208 210 76 161 196 152
221 209 193 205 198 199 203 204 217 246 249 236 230 237 247 267 312 334 346 335 335 355 398 381 376 389 355 300 249 214 193 187 197 183 182 182 204 217 203 211 203 194 195 188 198
220 214 208 195 198 207 202 220 177 243 240 234 236 250 259 301 324 268 356 98 230 391 393 105 82 350 327 227 252 205 195 185 183 180 182 185 225 206 197 199 194 196 189 189 185
214 210 203 195 199 205 201 217 242 243 215 235 246 257 268 323 334 346 171 343 417 347 353 285 351 369 336 220 250 206 186 189 183 178 177 187 214 203 196 196 195 188 186 132 171
222 206 188 186 205 198 206 222 245 219 233 236 248 261 362 383 365 358 345 435 361 343 320 331 356 322 235 169 226 206 174 151 179 175 162 122 160 97 101 100 126 101 104 179 175
226 213 192 195 205 194 215 241 245 214 225 235 254 318 431 367 361 351 417 342 335 314 321 347 332 257 215 247 212 203 81 137 177 177 181 188 211 190 185 190 186 180 182 177 175
234 197 197 204 203 205 220 248 215 221 230 242 261 446 433 363 360 373 339 322 330 334 323 317 259 216 210 229 210 203 192 182 162 173 173 197 194 193 186 186 187 180 97 97 164
204 192 197 203 195 216 238 246 204 210 224 242 275 393 434 385 371 386 346 333 358 316 327 251 217 252 252 217 204 201 121 181 175 121 165 168 198 194 185 184 183 182 177 176 183
202 191 201 200 201 221 245 241 210 216 203 234 278 378 371 373 349 320 335 336 255 127 144 224 222 198 118 179 204 196 144 182 176 172 172 193 177 187 171 184 185 178 178 180 176
197 199 203 196 212 226 244 205 211 209 211 193 259 305 373 359 336 328 336 294 274 249 233 217 229 241 213 206 203 197 187 190 173 174 173 189 175 183 170 177 176 172 179 176 165
192 206 197 202 218 239 241 202 238 207 191 218 229 267 344 373 341 317 292 279 266 144 221 210 249 219 213 198 152 190 186 183 192 175 176 185 177 180 183 178 170 173 174 175 166
201 205 167 210 220 243 238 200 206 205 191 211 209 223 273 291 293 287 267 257 232 200 258 241 255 214 208 141 109 183 186 156 180 172 183 173 169 181 184 178 175 167 175 170 168
207 195 204 213 220 240 237 200 220 211 212 208 221 222 220 225 224 235 215 209 205 220 253 254 227 201 202 194 190 167 118 191 177 183 180 188 175 178 180 174 171 174 175 176 182
208 208 211 216 223 239 238 199 198 203 221 210 215 220 221 230 213 216 210 178 244 237 238 232 212 200 147 194 192 192 118 183 176 179 175 169 177 185 185 178 178 179 186 189 186
203 200 207 221 225 238 234 198 196 202 210 227 222 220 146 230 231 244 215 221 248 252 248 234 206 198 200 197 195 190 181 158 169 181 182 182 184 182 181 176 181 185 188 190 190

GFSSW_2pvu_pres_012.txt.gz
Presure
198 204 174 194 190 196 199 178 201 195 189 204 202 209 212 210 223 222 239 238 232 226 236 241 227 201 175 187 180 190 192 198 98 97 94 90 94 120 118 105 124 125 83 116 131
200 188 192 198 197 211 199 212 187 195 211 195 181 206 210 221 220 232 230 228 234 241 235 229 239 235 79 131 197 143 84 163 103 165 100 98 97 84 105 109 118 131 92 138 142
208 213 206 212 197 201 203 209 207 199 211 205 196 200 211 203 230 214 219 284 278 277 234 253 226 237 244 89 203 188 90 76 187 98 124 102 101 99 93 81 85 75 87 90 175
201 208 191 207 207 207 214 184 188 229 215 208 194 199 201 230 215 216 211 269 271 263 265 259 278 225 233 245 151 205 196 177 99 205 198 110 102 97 93 95 82 102 182 200 110
211 200 201 182 194 208 210 214 205 215 210 206 193 202 198 222 166 222 272 263 254 267 249 259 269 283 225 234 188 76 199 103 187 176 142 149 172 147 102 109 98 95 97 150 171
218 222 207 210 209 205 206 194 215 218 207 201 198 193 201 215 224 212 264 254 253 250 256 249 255 261 274 219 237 114 138 206 187 184 103 131 110 110 105 110 108 93 90 103 177
210 224 217 195 214 197 214 193 217 186 206 199 192 180 202 212 207 220 256 245 243 239 235 237 245 254 258 274 222 241 193 101 206 184 85 186 153 109 100 104 114 126 101 99 179
220 220 225 218 202 213 200 202 217 201 208 203 181 173 210 208 214 234 251 237 229 232 232 238 245 247 252 264 254 223 249 202 103 203 190 103 179 186 206 103 80 112 166 149 86
197 230 218 225 218 213 205 201 214 226 206 198 191 199 206 214 213 242 236 234 231 231 235 237 239 245 247 215 268 295 231 235 90 97 205 178 183 193 83 211 203 152 91 192 92
230 225 232 215 221 190 212 201 213 206 218 188 194 205 202 209 227 238 235 233 231 234 235 237 244 250 260 261 150 296 207 240 202 168 120 138 130 159 118 131 211 199 213 181 196
254 235 231 232 218 221 206 207 213 221 216 184 198 201 211 220 245 239 231 232 228 229 230 234 249 255 254 263 275 273 297 227 72 201 202 109 106 110 189 86 83 102 115 204 132
271 268 241 239 233 223 212 207 208 201 199 197 197 207 216 245 245 232 238 230 227 230 238 248 161 311 330 317 303 297 290 236 241 211 204 190 192 110 107 119 94 138 170 207 206
239 286 267 244 239 238 208 224 229 214 196 199 200 213 234 254 231 228 223 224 233 246 258 299 361 336 335 329 326 306 316 320 225 243 200 193 195 187 179 147 183 204 201 174 157
242 283 267 238 243 233 211 213 199 209 210 196 209 217 250 241 224 221 235 251 263 288 332 353 332 339 334 338 324 318 159 312 196 247 214 198 180 191 175 177 180 192 215 195 185
258 297 268 246 247 214 214 220 204 200 206 208 217 247 255 212 231 243 257 271 311 332 338 364 348 333 339 354 356 358 89 309 222 243 212 201 189 189 181 183 186 210 212 208 202
275 260 271 242 241 218 220 220 202 206 198 217 242 264 222 233 247 262 277 339 172 339 342 355 295 259 422 410 470 374 316 304 154 243 221 200 182 193 178 187 188 212 209 205 206
277 275 273 253 224 223 222 207 201 203 215 232 259 228 233 255 268 284 410 391 364 338 361 375 389 266 261 369 466 368 296 276 206 245 216 190 187 203 176 178 183 210 206 203 193
277 286 273 255 217 221 215 201 208 208 222 252 222 233 225 272 282 403 363 352 362 358 358 329 369 357 363 414 375 315 278 242 132 242 199 188 187 207 170 181 200 211 198 196 190
269 284 271 227 222 228 198 206 203 214 237 214 220 220 267 284 394 392 365 392 330 324 317 315 309 347 389 345 179 285 270 211 230 216 195 175 193 191 163 191 199 199 195 161 175
294 271 248 226 227 209 203 203 210 226 251 215 212 246 273 388 393 374 384 307 309 313 323 328 336 317 293 293 234 257 190 236 219 205 186 187 185 165 172 198 195 197 189 191 185
280 274 231 233 212 201 207 203 216 245 214 210 212 258 356 411 401 311 324 316 74 72 305 288 281 288 294 269 255 230 191 239 228 205 185 173 167 115 181 196 202 199 192 188 186
275 230 229 219 207 207 198 210 231 231 214 208 223 261 207 363 341 344 318 319 345 102 271 261 280 265 262 243 234 186 219 225 89 85 179 189 167 160 186 201 186 184 184 184 184
267 174 226 214 200 205 207 214 246 213 212 209 225 254 165 312 310 302 309 315 267 261 262 235 265 258 247 231 219 210 237 218 199 178 189 188 166 168 163 190 189 189 182 186 96
263 176 217 206 210 202 214 224 241 220 207 207 217 239 171 295 296 281 287 301 259 137 257 212 253 245 213 202 204 171 242 207 198 185 179 166 163 167 167 190 171 178 193 186 178
247 180 211 211 201 208 217 240 215 216 209 209 185 221 246 302 247 254 264 275 271 236 217 247 213 231 188 214 263 225 101 201 197 192 184 174 175 181 179 193 176 170 172 175 177
230 220 210 210 201 210 220 252 210 214 210 203 222 216 226 246 275 298 275 266 212 257 254 196 210 225 187 205 232 102 207 194 168 176 188 186 179 170 166 175 173 171 171 177 180
225 188 217 204 213 217 222 248 207 223 217 200 212 217 213 226 238 235 202 191 227 203 177 233 207 228 228 247 215 183 201 169 175 178 171 159 185 177 173 179 180 177 178 181 178

GFSSW_2pvu_pres_015.txt.gz
Presure
204 203 209 181 211 198 177 202 202 191 203 202 209 199 214 192 205 206 198 193 199 221 236 233 233 249 252 197 203 189 188 151 116 134 87 96 167 112 117 154 178 133 146 125 139
210 206 206 209 191 180 189 196 187 186 197 212 214 214 200 202 212 200 210 219 213 229 222 223 246 252 239 245 252 165 174 187 81 196 110 95 92 89 90 122 184 123 112 97 106
213 214 204 200 201 210 209 217 210 209 215 204 210 216 192 199 206 207 185 204 220 208 202 237 226 232 236 241 244 263 201 167 184 84 202 101 110 94 93 111 171 119 109 109 130
220 215 209 207 204 198 201 205 201 203 205 220 223 226 228 232 217 208 188 202 212 231 222 227 232 230 228 273 252 240 246 208 207 176 129 140 103 171 119 90 201 121 109 105 115
127 220 216 213 205 201 200 215 192 201 203 200 211 202 215 222 215 205 200 204 207 206 221 226 228 239 273 278 280 250 242 84 207 186 120 171 134 103 218 91 88 92 92 85 82
227 220 220 214 214 207 199 211 209 215 207 193 201 206 180 207 204 212 200 197 207 218 180 228 264 268 271 267 272 266 242 239 82 208 167 132 188 121 189 139 102 97 101 88 90
235 234 216 213 213 217 217 198 186 206 216 196 207 211 193 223 204 210 190 195 202 217 231 224 266 180 263 264 268 265 274 225 226 192 209 176 184 215 121 117 111 108 108 108 107
240 239 202 233 219 217 215 211 209 213 214 207 223 219 195 220 213 209 200 195 205 217 205 238 266 259 253 248 251 251 264 273 219 212 246 217 187 84 78 187 137 110 114 109 109
252 227 221 188 142 167 218 224 228 219 219 222 211 187 209 215 225 214 194 198 212 211 221 256 255 244 241 245 248 255 261 268 270 226 247 201 194 143 180 162 130 90 115 103 96
278 275 239 233 239 231 225 227 226 229 210 218 201 205 219 210 223 204 181 205 208 216 225 251 244 238 236 238 241 246 251 256 259 255 237 170 182 116 149 138 94 108 108 110 152
188 204 214 282 264 242 243 233 228 223 224 214 215 212 203 206 224 196 200 205 210 221 246 248 237 230 229 234 240 246 253 258 260 262 235 98 221 204 207 187 72 90 191 201 209
216 212 208 207 216 216 270 254 161 237 228 222 200 210 208 219 208 195 210 203 217 226 250 238 227 230 237 238 239 248 254 255 261 267 290 234 134 203 96 189 182 192 187 81 113
189 209 191 209 214 229 231 287 271 249 241 220 218 212 216 227 214 209 208 215 223 251 246 232 232 231 235 237 238 243 250 246 259 261 201 232 128 212 202 180 190 186 183 182 186
215 195 222 195 204 223 228 257 285 276 241 232 207 207 216 217 205 207 212 226 242 252 237 205 229 232 236 247 249 247 256 261 292 274 195 309 238 227 200 193 189 108 107 189 184
215 215 206 220 222 233 227 253 280 281 242 242 207 215 211 209 201 209 226 237 254 231 230 196 236 247 261 269 325 345 342 350 335 303 271 308 205 241 204 201 187 188 177 116 114
229 224 238 206 234 230 235 256 264 267 245 230 219 217 198 206 204 225 235 256 230 240 226 265 279 303 343 337 339 326 361 339 334 311 300 310 204 237 217 196 181 192 178 169 176
243 239 238 239 238 232 249 264 273 244 246 222 221 214 207 209 230 244 248 226 242 276 341 364 204 341 332 329 339 183 363 335 330 302 318 312 229 224 232 194 183 187 179 170 180
247 250 245 251 251 240 272 292 270 245 228 227 206 207 221 235 246 227 215 283 267 208 121 353 345 345 336 344 349 355 342 334 328 327 85 193 213 214 235 198 179 186 182 176 179
338 273 287 275 268 280 269 283 251 229 226 205 210 221 232 249 212 249 335 425 370 349 363 379 373 364 382 166 391 391 365 364 329 275 261 263 211 242 236 209 182 181 178 182 183
320 327 307 281 280 274 273 259 232 224 212 209 220 231 236 209 257 428 423 369 306 252 322 325 333 325 197 352 367 373 441 397 281 262 259 260 201 236 222 195 176 180 177 176 183
345 327 304 296 286 265 263 239 223 212 207 214 228 234 213 252 442 408 342 331 343 314 319 327 325 330 346 362 415 359 287 274 260 196 242 255 209 241 219 179 185 180 174 179 196
340 320 308 293 270 269 240 226 220 206 200 227 239 212 226 377 352 329 319 321 305 338 342 334 302 315 293 273 268 258 259 253 257 180 167 214 238 92 123 178 185 187 176 188 208
286 317 287 289 271 233 226 220 208 203 220 239 208 210 177 341 327 333 308 310 305 273 262 232 258 257 256 257 250 260 248 241 234 235 197 220 233 216 186 180 186 174 176 196 202
317 289 296 276 176 229 221 209 210 217 231 203 204 219 177 333 225 269 271 272 258 262 183 246 215 244 246 255 252 251 252 235 208 191 186 233 222 190 179 182 169 171 177 203 197
294 292 276 234 178 221 213 207 214 222 241 202 204 223 225 289 219 215 273 264 263 246 249 253 144 222 246 244 182 250 182 244 186 242 230 232 202 190 182 167 170 180 192 187 181
285 279 247 238 221 215 212 216 216 235 215 206 215 219 225 170 215 182 215 171 257 252 242 246 124 244 238 243 242 195 236 202 150 217 242 221 194 183 170 165 178 183 183 181 172
277 268 235 179 220 215 209 214 225 238 213 207 215 214 229 215 239 264 252 216 174 257 230 197 169 165 173 198 242 236 131 195 197 153 141 193 186 179 168 161 166 176 180 184 178

GFSSW_2pvu_pres_021.txt.gz
Presure
221 225 226 207 198 202 203 206 213 206 214 225 210 201 204 173 202 184 170 172 177 184 185 194 201 186 206 194 91 220 173 206 198 116 210 88 88 116 184 219 120 105 152 151 167
257 219 213 213 218 215 204 199 227 222 202 215 221 210 197 186 181 171 173 184 191 179 180 170 188 206 218 189 209 218 208 202 222 202 187 189 122 194 182 86 195 101 197 116 96
277 246 218 229 219 216 276 281 269 248 214 210 215 211 200 202 180 198 185 174 197 182 193 195 199 217 207 202 213 220 187 184 201 206 198 218 220 105 184 92 173 100 88 119 95
272 256 230 229 222 305 285 265 257 241 227 217 216 211 202 197 190 189 195 192 162 170 170 180 218 218 202 210 217 209 211 202 139 100 231 203 191 200 93 138 83 86 174 79 95
251 242 230 224 281 287 268 256 247 236 225 215 211 197 205 192 195 192 186 189 200 210 186 216 203 229 216 209 220 211 201 209 213 231 106 135 240 197 184 122 143 188 156 95 102
247 246 228 227 298 273 258 251 245 233 223 217 213 209 193 192 188 195 201 180 193 200 203 211 220 220 223 194 214 223 165 194 215 231 227 244 108 263 169 183 91 154 181 164 199
238 242 234 224 283 267 254 241 136 229 223 218 214 213 199 207 197 195 202 201 178 209 219 203 208 215 216 227 234 225 224 186 208 213 234 242 246 235 84 170 209 92 181 91 195
236 235 228 220 282 263 253 242 239 228 224 218 214 214 199 210 198 193 195 201 211 202 209 208 221 234 206 218 235 219 218 213 206 217 205 238 285 275 240 243 244 218 94 81 94
240 233 220 220 288 266 247 249 240 229 225 223 215 213 211 210 201 199 203 207 203 208 221 208 225 229 213 229 219 227 235 218 209 206 213 194 279 269 278 299 242 245 255 152 96
246 240 227 225 285 257 257 249 214 227 225 226 174 217 214 210 210 207 203 203 216 214 226 223 232 220 221 225 207 224 237 222 216 198 215 255 282 267 175 283 282 239 247 232 190
250 229 230 226 216 280 265 240 243 234 230 225 214 217 217 208 213 204 204 212 219 217 221 226 218 220 229 226 222 225 233 227 219 200 219 235 271 263 266 273 278 270 238 153 203
254 250 245 227 222 215 274 268 247 244 238 235 227 160 145 226 191 217 215 215 225 219 225 232 232 231 232 227 219 224 227 236 207 221 170 178 271 255 255 237 269 263 238 235 257
263 252 245 235 217 223 209 242 269 261 243 205 229 231 233 231 234 235 232 223 225 222 226 236 228 234 231 222 234 227 230 225 203 218 223 231 265 260 249 252 253 173 257 225 154
219 259 263 246 234 214 215 217 231 263 139 150 255 251 253 238 231 233 228 233 232 238 247 246 233 238 233 231 232 226 212 233 227 222 217 236 263 259 251 251 216 247 252 91 227
219 218 269 266 243 234 227 218 212 203 209 227 295 289 273 226 213 212 221 220 223 248 267 266 246 245 247 250 237 233 232 231 218 219 228 242 262 248 249 250 249 244 255 265 224
230 231 221 215 253 245 240 227 217 209 203 210 213 210 205 203 205 208 212 220 242 294 290 274 269 264 256 246 252 234 219 218 224 227 251 241 273 277 225 137 241 245 119 266 231
256 243 230 239 216 243 241 234 219 220 200 205 201 201 198 202 206 208 223 221 283 284 276 269 260 246 254 256 252 244 233 229 235 245 205 244 257 280 217 226 232 99 215 268 281
269 254 237 228 239 226 236 209 213 217 215 206 199 198 208 199 204 207 228 281 273 266 260 257 261 256 250 243 239 239 240 246 250 256 263 90 133 278 218 152 86 79 132 267 284
404 265 247 234 231 231 227 221 212 219 218 218 201 208 214 220 215 233 287 275 267 259 254 245 239 240 242 236 247 233 255 252 210 268 269 263 256 244 202 228 223 254 250 264 287
382 346 257 249 242 221 219 216 225 211 200 207 204 208 204 212 247 281 277 257 243 235 224 252 308 346 356 376 409 102 255 181 321 348 343 367 379 83 124 170 240 250 79 148 296
369 355 284 263 255 237 228 225 215 218 225 216 220 216 224 245 279 259 246 233 211 332 175 339 330 321 332 333 357 350 123 354 142 357 351 357 367 351 144 267 260 291 253 237 294
335 344 328 274 253 240 233 225 223 228 219 225 219 222 253 276 254 223 232 353 369 258 304 318 316 309 311 319 326 332 345 347 371 373 357 362 351 324 344 347 341 308 277 284 253
332 318 312 301 318 357 251 235 233 229 229 211 225 271 261 250 223 381 284 269 291 275 275 276 304 280 294 321 330 344 365 154 382 421 366 336 322 309 299 292 268 172 293 289 231
327 316 311 304 304 320 318 258 242 231 219 228 269 253 242 242 211 219 255 269 259 259 264 249 259 260 264 257 278 314 371 347 295 284 281 276 273 271 248 254 273 285 231 213 220
306 312 283 314 312 318 350 301 250 249 239 265 250 239 236 223 251 252 234 188 243 247 246 235 230 239 246 248 248 255 258 267 259 262 192 260 263 263 250 246 264 130 130 188 221
314 313 302 288 151 312 321 325 265 274 264 248 232 230 222 221 261 294 152 163 259 228 83 247 241 244 236 81 236 244 245 248 247 246 243 267 243 249 261 260 262 273 228 213 228
307 288 287 288 290 304 308 319 266 258 243 232 238 216 238 240 247 277 223 182 202 208 176 237 240 245 239 243 235 231 233 242 252 243 254 249 262 243 247 262 267 232 221 211 199

GFSSW_2pvu_pres_024.txt.gz
Presure
234 237 263 251 249 229 214 216 218 224 223 227 205 222 222 219 228 213 199 205 179 205 194 199 193 213 187 175 177 198 196 192 194 194 206 207 200 196 191 187 95 80 206 96 101
258 250 235 228 273 254 227 214 209 217 217 205 195 175 180 187 201 229 215 203 198 169 175 181 185 168 187 168 179 201 178 187 216 215 209 217 203 89 205 203 139 185 91 90 206
240 247 260 248 230 276 256 230 205 210 207 213 216 210 204 192 202 216 222 212 214 196 168 196 188 193 167 182 187 167 201 103 99 218 189 191 186 198 123 151 201 105 190 182 88
271 271 239 291 318 245 275 250 229 212 219 206 205 203 197 197 199 218 226 209 207 209 208 182 180 203 171 201 207 176 196 195 176 89 211 224 220 213 189 176 89 205 163 185 92
276 272 316 307 260 273 277 250 225 216 215 209 204 209 213 214 223 221 227 207 205 204 204 177 182 194 183 184 196 162 190 217 206 201 211 221 135 216 206 223 148 89 126 170 192
310 306 306 291 283 277 267 253 242 225 210 217 212 211 246 255 239 232 219 207 203 203 199 199 192 187 165 210 184 214 181 218 216 206 220 221 220 213 206 237 226 90 197 237 125
303 293 286 269 274 262 248 246 254 226 217 218 246 270 253 244 237 230 217 212 207 202 200 207 200 184 183 205 218 188 185 189 229 216 211 229 215 212 131 220 257 229 195 203 86
292 292 273 274 264 250 245 238 232 224 228 281 270 251 243 238 233 226 219 200 211 204 201 194 202 205 193 182 196 207 215 216 224 220 234 220 220 207 184 111 101 225 261 245 96
291 272 241 263 254 242 234 232 232 241 282 268 251 246 239 234 229 223 219 215 200 196 202 199 192 203 214 203 194 217 217 214 238 221 224 236 137 152 192 215 219 152 107 225 250
307 280 275 258 250 242 234 228 227 283 272 255 248 242 236 229 227 223 218 215 213 200 198 206 201 197 207 217 214 217 223 213 227 223 229 227 199 231 228 198 216 208 288 288 248
243 304 279 273 247 244 233 227 225 277 260 252 245 235 234 228 128 220 222 214 212 209 209 216 202 199 208 217 218 216 227 232 234 235 225 227 232 218 225 225 207 206 285 279 283
225 233 271 275 258 242 229 225 225 266 259 254 246 238 236 225 220 223 218 216 214 214 210 214 212 209 217 213 214 222 224 231 231 232 225 238 223 243 232 225 223 177 273 270 269
234 227 229 259 267 244 238 229 227 219 265 244 252 242 238 234 222 219 144 190 219 217 208 225 179 208 219 226 225 225 234 234 241 239 244 238 225 238 231 225 209 214 203 262 265
278 236 228 229 274 255 237 233 229 220 223 262 241 243 239 232 227 224 225 221 219 227 170 229 222 224 224 235 230 230 241 243 242 241 246 240 253 225 236 221 209 215 182 253 250
330 279 236 232 258 264 244 236 229 222 217 219 265 243 236 154 238 237 234 238 233 239 240 238 235 240 249 241 250 247 250 265 260 259 261 241 255 222 230 210 205 214 256 247 108
502 294 265 230 235 270 251 239 236 225 225 206 205 265 256 253 246 242 239 242 243 247 218 239 221 222 219 220 235 254 275 266 270 271 276 261 260 221 217 213 209 225 248 240 134
484 478 278 257 233 248 264 244 233 231 217 217 208 207 207 229 230 230 232 240 225 204 210 211 210 216 223 229 287 294 289 287 284 281 292 272 277 194 214 204 220 224 248 234 231
467 506 330 275 233 228 262 263 244 229 233 215 218 211 206 198 203 206 205 203 207 206 218 204 211 243 284 289 284 278 271 277 278 277 278 256 281 279 206 211 219 232 196 242 234
458 383 406 279 251 226 225 272 253 239 229 227 219 216 213 207 203 206 199 208 207 210 229 228 285 293 273 256 250 245 249 242 258 266 261 281 268 86 104 201 222 219 233 187 236
469 374 391 281 268 236 232 225 220 248 246 238 226 214 214 214 211 202 204 210 199 206 235 280 256 239 244 241 281 205 275 299 271 265 269 273 259 98 134 141 202 220 170 239 233
417 382 387 292 265 243 232 229 222 219 250 241 209 216 211 217 217 215 215 205 224 276 250 242 305 312 320 318 333 331 328 79 359 198 401 399 399 359 203 140 208 197 103 235 225
364 351 344 341 277 261 226 237 230 225 225 223 210 211 217 206 207 194 220 245 258 307 322 237 318 298 312 312 321 327 317 327 323 343 346 350 382 371 360 359 119 107 208 224 223
347 334 341 336 276 258 234 228 226 232 222 221 219 223 207 201 210 224 268 261 294 273 269 267 272 273 277 282 308 313 319 324 333 347 359 387 338 347 322 322 214 251 210 208 217
346 339 326 325 302 260 248 231 227 224 219 216 214 211 214 215 226 263 232 257 253 260 255 253 247 253 260 257 265 305 388 364 395 375 355 342 341 343 331 320 337 347 264 208 213
331 307 304 310 313 312 258 237 237 225 224 221 218 219 223 227 257 219 250 257 263 237 175 239 239 231 232 242 255 266 269 277 357 360 350 331 294 285 302 331 323 300 308 281 210
308 318 315 296 305 314 334 246 251 236 229 223 224 217 226 249 216 250 241 207 165 184 255 232 240 234 235 239 89 243 262 261 261 266 267 271 280 274 275 262 277 269 275 287 257
318 304 308 310 311 313 312 330 245 242 232 229 233 226 248 230 231 208 217 179 227 171 240 185 212 231 244 227 234 193 242 260 260 271 257 252 253 252 243 234 238 257 254 264 268

GFSSW_2pvu_pres_027.txt.gz
Presure
248 248 246 265 252 251 248 217 227 237 210 212 205 206 213 222 218 200 212 215 194 195 197 193 208 190 193 187 199 205 198 214 212 193 188 201 225 170 90 214 213 216 215 167 216
254 247 260 241 240 244 262 249 242 224 222 226 205 226 216 205 214 215 214 213 221 207 208 206 203 215 204 195 176 219 205 213 186 137 167 202 202 205 197 179 190 204 132 188 151
255 250 245 255 244 251 232 233 263 244 231 229 222 197 222 210 212 196 216 213 208 228 235 211 218 209 208 169 178 199 191 200 212 206 175 183 194 193 189 190 87 198 199 129 101
267 261 259 246 258 255 250 257 240 232 239 243 226 222 205 213 220 219 206 209 219 192 214 226 214 215 203 197 182 172 178 188 185 172 182 127 184 207 194 179 191 187 191 204 183
280 272 259 252 258 249 255 249 246 255 227 269 239 230 222 202 212 219 208 211 200 209 197 207 218 210 218 203 198 185 179 182 190 209 210 188 187 182 180 191 227 89 89 123 196
346 311 287 269 272 257 265 267 257 236 259 235 232 232 230 218 199 211 212 204 194 193 193 199 219 211 212 214 197 181 195 201 191 201 199 194 197 178 217 219 213 222 213 226 191
281 350 346 340 336 283 277 273 286 303 306 290 237 257 235 223 211 208 213 206 205 209 207 180 224 212 210 210 210 195 191 188 179 209 208 220 233 173 202 217 207 213 228 224 214
245 263 304 326 316 316 319 314 296 288 290 289 241 255 249 219 218 207 207 207 207 203 213 213 229 225 209 207 209 207 193 188 184 187 187 195 192 195 233 173 209 221 214 216 212
245 254 264 296 312 298 300 287 277 278 277 279 270 261 237 239 211 207 209 211 207 211 222 239 238 238 210 201 206 208 212 196 191 203 190 178 217 145 234 233 231 217 185 211 215
240 243 248 256 293 275 293 279 271 267 266 254 247 240 246 228 223 213 209 212 213 239 243 239 238 229 204 206 203 209 206 209 210 194 196 216 181 214 202 241 227 202 229 117 206
225 244 239 239 255 303 295 272 266 261 239 243 230 226 225 230 213 211 217 266 254 244 239 235 230 218 199 210 207 207 205 206 205 210 227 209 197 215 213 240 228 221 231 236 225
277 280 234 234 237 264 297 267 261 247 239 240 225 226 211 225 236 262 262 253 241 236 231 230 223 218 219 211 199 197 205 207 211 208 221 225 217 226 221 233 218 228 218 226 233
478 380 269 235 242 240 274 273 263 240 239 236 228 213 281 276 264 259 252 242 235 233 229 226 218 220 218 217 217 213 211 210 219 209 215 218 220 224 220 227 236 217 227 215 238
497 501 372 252 235 231 253 285 260 240 236 236 229 222 276 270 260 251 244 242 234 230 228 221 219 223 218 212 216 222 228 224 229 229 223 228 253 221 229 230 223 234 222 151 230
495 472 509 305 251 231 236 273 268 244 243 237 228 209 272 266 247 247 245 233 231 231 220 166 218 156 217 223 228 230 220 237 246 243 246 253 256 258 240 239 226 227 223 217 225
487 453 499 311 276 243 227 261 277 256 242 234 223 216 267 257 245 250 245 242 238 233 228 226 225 226 227 230 236 240 249 253 249 249 267 252 239 138 183 239 236 237 221 227 222
466 457 487 326 277 255 228 225 282 266 233 232 221 216 212 260 250 241 143 242 239 237 235 234 235 242 241 251 259 215 217 219 219 232 253 251 204 158 159 242 245 250 239 228 227
483 516 490 425 283 267 235 231 279 259 234 227 222 221 209 206 233 256 248 247 246 247 250 214 207 206 217 212 216 220 228 237 242 250 261 267 118 104 196 296 247 253 256 233 235
487 477 487 398 297 279 240 239 262 256 241 229 225 221 220 211 207 203 205 206 205 203 196 204 207 210 205 208 222 229 233 248 276 309 303 289 284 115 85 173 264 262 244 251 233
499 461 460 385 310 277 253 226 240 262 242 230 227 224 216 220 214 209 204 203 207 205 204 208 202 205 217 225 281 327 340 273 284 293 291 360 330 299 78 237 124 202 254 251 186
472 466 424 353 349 285 263 226 236 261 248 230 224 226 224 216 216 215 214 214 212 210 211 219 212 226 334 325 303 319 326 322 327 171 340 355 354 402 428 207 183 272 248 139 235
454 489 385 375 327 285 255 230 225 241 258 238 227 223 230 224 215 212 214 214 218 197 206 229 289 249 274 268 274 284 324 323 320 320 329 210 353 342 393 382 267 144 253 253 239
434 383 388 364 349 290 262 230 230 236 258 252 232 231 220 230 223 219 209 220 210 214 234 271 249 217 252 251 257 260 301 370 351 333 134 344 372 330 361 393 402 263 260 260 224
366 358 354 372 339 300 263 226 234 225 245 258 242 226 227 221 224 206 216 207 216 262 256 251 239 256 235 251 250 274 276 324 431 384 364 361 363 349 395 372 358 376 163 163 243
380 342 339 329 316 318 286 235 203 196 224 219 218 222 220 216 214 209 219 223 255 259 263 193 184 252 248 230 251 233 274 269 264 288 294 318 400 383 355 346 352 377 369 247 244
343 338 338 316 316 312 286 233 221 226 227 226 222 217 219 219 222 215 221 267 259 233 169 151 206 241 165 229 155 235 229 262 268 269 269 269 274 289 314 310 310 318 330 354 270
342 319 315 304 309 312 317 237 230 220 220 224 221 214 208 214 218 220 248 260 238 169 165 242 256 237 229 164 242 237 238 255 239 263 257 259 258 253 256 292 269 289 276 312 330

GFSSW_2pvu_pres_030.txt.gz
Presure
284 273 268 228 247 252 260 229 244 245 231 223 227 221 209 199 195 196 183 180 186 167 178 187 189 188 194 191 191 194 165 172 181 112 166 163 195 210 152 222 192 144 198 197 174
309 281 267 250 243 245 246 264 232 240 244 231 225 225 204 215 218 203 202 195 195 193 195 185 192 186 172 198 190 204 192 208 192 192 176 198 235 207 222 227 228 218 140 231 239
296 255 250 270 255 250 250 251 260 259 251 241 232 227 213 229 210 219 202 205 198 203 195 181 150 158 191 191 198 195 199 194 197 195 199 199 191 216 197 208 207 220 224 166 209
282 269 272 272 263 254 258 239 246 249 247 253 240 234 219 205 220 212 211 217 222 206 214 226 220 210 202 212 205 204 214 211 203 213 223 193 219 217 217 210 216 209 186 147 195
341 281 263 258 263 265 257 255 245 245 240 242 250 231 233 232 214 217 218 203 215 222 213 203 211 216 225 203 224 215 217 217 226 214 208 197 194 157 183 185 209 189 179 182 187
283 305 337 294 258 249 251 245 246 262 245 250 233 248 247 232 218 223 219 217 202 208 211 213 210 206 212 230 213 214 218 215 211 213 205 197 189 178 189 175 211 200 197 180 190
272 273 283 305 332 276 254 245 263 244 262 245 260 256 236 248 236 237 228 216 217 203 212 204 219 218 203 193 199 200 220 216 210 208 203 206 191 193 179 200 188 207 200 209 225
275 268 259 269 252 290 361 291 267 258 250 253 255 252 267 255 228 233 224 225 217 209 200 207 213 211 207 214 213 191 205 210 213 216 208 210 204 200 204 209 207 196 199 209 180
283 264 269 260 255 267 275 330 348 292 257 251 258 249 253 246 259 223 247 221 227 215 202 201 210 211 175 192 181 181 185 199 204 214 213 206 197 210 195 209 184 225 188 184 191
255 263 254 266 247 270 246 273 321 320 325 276 261 272 257 273 309 277 218 206 228 224 215 202 204 211 210 208 205 211 175 228 214 211 209 210 207 207 197 200 127 180 201 208 201
646 293 262 250 256 244 263 264 281 305 296 289 287 289 288 281 286 287 222 248 235 222 217 215 203 205 209 210 205 207 223 233 243 211 207 211 209 201 192 191 185 191 218 201 205
568 642 498 282 252 252 243 253 259 284 281 281 278 273 264 265 266 270 231 238 247 231 219 211 206 206 203 206 213 220 236 243 238 212 210 207 208 209 204 200 211 192 186 144 78
527 541 517 423 284 252 253 247 253 277 277 272 268 266 263 263 266 264 250 250 247 238 217 209 204 203 209 215 219 234 245 236 234 214 212 208 208 204 208 203 211 207 213 215 206
464 519 550 475 308 279 247 226 244 267 278 269 262 260 260 250 247 247 243 243 240 222 219 208 213 214 217 224 248 246 239 236 228 223 212 211 216 197 196 202 203 206 209 215 219
446 443 524 462 470 287 253 225 237 257 283 265 263 259 243 237 227 222 224 217 217 218 218 217 218 228 253 249 244 236 237 233 231 230 230 221 227 187 198 203 208 219 224 223 226
425 460 494 451 509 290 259 238 237 267 285 265 258 247 234 231 226 221 213 242 267 265 262 261 256 252 248 240 238 233 229 228 230 237 244 234 242 194 226 217 215 220 230 228 227
414 482 489 448 410 307 266 243 233 257 283 253 253 244 232 228 217 224 277 268 265 260 255 257 247 241 237 190 236 227 203 230 234 166 246 247 251 114 180 179 228 241 241 252 256
407 470 494 445 361 322 269 245 228 247 280 254 247 234 232 225 209 284 267 264 257 253 249 242 236 236 237 240 241 240 239 243 258 255 256 263 265 98 97 138 150 160 73 236 243
456 476 482 476 355 321 271 246 226 232 274 257 241 232 222 217 208 279 271 266 255 241 238 236 239 246 247 244 214 211 215 217 212 228 217 239 76 98 156 78 114 222 140 231 232
469 492 513 509 336 306 297 247 226 223 273 258 245 235 223 217 211 211 249 264 256 251 231 220 210 210 213 215 220 206 208 230 239 286 340 340 332 327 339 215 93 87 158 215 253
462 468 497 374 320 313 299 247 229 223 273 260 235 233 218 217 216 209 210 208 209 206 207 210 214 215 217 212 225 230 239 252 316 320 344 348 338 333 79 152 346 357 291 294 305
442 455 533 382 324 308 288 243 233 232 268 257 233 230 223 218 218 219 215 216 212 213 214 218 222 196 215 229 294 292 287 257 80 308 139 372 348 323 324 324 288 327 355 271 277
444 480 362 333 317 297 278 238 237 229 262 249 232 229 224 221 219 216 218 218 217 215 218 218 213 218 280 278 286 272 237 262 257 131 395 381 383 325 330 337 337 363 403 234 267
449 421 360 337 318 294 273 244 230 230 259 241 235 223 222 221 223 224 224 215 216 204 213 217 249 268 258 233 254 230 256 244 247 267 290 313 196 355 356 358 366 379 394 338 258
355 363 350 326 315 292 285 246 221 229 251 249 234 224 224 222 221 222 224 217 231 213 218 266 236 250 243 252 238 250 245 230 238 261 215 285 323 368 357 369 380 411 392 413 260
345 353 357 332 319 304 300 241 229 174 247 249 249 233 224 224 223 228 240 217 213 222 254 257 176 157 165 160 234 234 228 241 227 262 266 262 280 283 294 308 358 365 368 413 259
337 332 334 316 321 317 299 239 226 228 209 223 245 244 239 227 239 229 215 214 219 259 252 168 227 234 237 221 236 145 239 226 228 219 263 253 248 263 273 280 292 304 341 384 243

GFSSW_2pvu_pres_033.txt.gz
Presure
303 331 307 267 251 271 267 251 251 248 243 248 220 216 203 204 214 205 211 188 193 191 171 161 162 182 173 163 166 157 145 154 157 165 164 140 167 155 162 158 155 112 164 170 135
309 291 313 289 265 265 253 252 260 249 242 235 247 233 213 205 204 199 204 194 200 178 193 175 198 172 209 161 162 166 164 150 162 159 163 165 155 189 138 169 157 171 158 167 180
324 301 304 311 265 267 248 258 261 255 259 234 236 229 241 217 214 207 200 200 199 198 179 186 191 203 170 170 169 173 160 183 179 169 171 165 160 91 71 176 149 165 174 177 171
286 326 298 288 306 259 265 259 257 254 250 264 240 232 237 233 219 216 215 195 184 195 191 194 182 198 205 186 158 174 167 166 174 201 194 179 196 199 189 193 190 202 133 191 186
291 279 293 308 291 292 274 267 268 256 241 247 258 239 227 238 238 215 219 220 205 191 192 193 193 191 180 176 188 179 184 174 195 198 199 196 203 195 179 224 216 192 207 200 225
295 287 278 287 313 277 273 251 270 265 255 243 246 247 256 228 237 233 227 208 215 209 211 209 205 198 196 197 199 193 194 199 188 178 186 199 215 196 217 229 214 224 211 191 211
317 296 284 279 267 303 268 264 262 270 266 245 245 243 236 256 244 230 235 223 220 215 211 223 205 217 207 202 205 200 206 229 219 207 205 218 223 226 223 230 217 213 206 198 189
303 316 289 283 280 259 293 276 260 273 256 235 246 248 247 239 245 226 239 233 226 210 209 210 213 210 207 208 211 207 201 207 214 208 227 212 219 227 220 220 213 213 199 189 188
303 293 299 295 279 278 252 289 299 265 258 250 248 247 247 243 237 234 239 237 230 229 218 209 212 215 213 206 205 211 211 208 216 217 229 212 206 222 218 213 209 210 203 206 198
272 277 262 284 278 279 263 266 284 297 270 255 241 246 235 233 247 230 246 243 242 224 229 214 214 216 210 218 203 207 207 207 221 208 198 195 201 203 212 215 209 216 215 216 210
536 523 557 285 281 263 252 252 259 258 298 342 256 262 245 241 237 247 240 246 233 233 238 227 229 216 214 213 214 205 205 203 214 207 222 214 190 192 198 207 212 211 213 210 202
477 479 501 555 314 268 264 267 259 230 251 260 318 334 268 256 251 243 247 240 258 238 240 234 226 223 226 212 212 201 202 209 213 212 176 192 208 191 187 231 214 207 207 209 210
457 444 467 559 541 351 259 256 246 246 235 251 314 312 316 297 265 261 247 251 255 250 256 245 224 227 218 216 215 213 206 204 211 214 211 211 206 209 206 243 230 213 205 208 210
428 422 440 458 575 478 271 250 242 245 239 254 300 299 300 300 302 293 261 268 261 275 290 302 226 208 208 222 224 221 216 211 210 213 211 213 211 216 229 246 232 211 210 209 210
396 420 425 430 483 464 350 254 245 238 248 249 299 290 283 281 277 282 282 278 268 268 270 261 235 222 234 233 222 222 223 213 208 207 211 214 222 90 228 237 228 210 211 214 215
413 409 417 466 485 479 347 286 246 241 249 256 286 280 271 266 264 258 259 258 255 248 256 244 228 226 231 237 233 220 213 213 213 214 217 220 231 258 243 240 225 226 144 114 221
402 411 433 482 496 489 331 292 246 243 241 239 277 270 264 261 256 253 249 253 256 257 259 251 244 245 239 231 230 226 216 218 218 221 231 260 264 71 176 247 233 236 188 217 223
405 436 435 480 457 371 319 296 255 251 241 245 276 267 259 257 253 250 244 234 227 226 225 226 223 223 224 222 219 217 222 230 267 264 258 162 253 251 107 169 197 246 252 238 233
406 462 447 483 465 337 305 291 262 241 231 232 278 259 250 254 241 236 229 226 227 225 220 221 230 267 266 266 265 264 258 251 253 256 261 253 241 243 189 88 102 97 93 116 261
416 461 476 461 380 330 303 291 257 247 229 250 275 254 250 243 233 229 229 221 219 267 274 269 260 253 251 257 259 252 237 221 220 220 217 222 224 231 206 245 291 101 152 206 206
452 463 507 469 345 313 299 299 253 220 226 269 272 251 245 243 229 225 213 267 281 269 259 252 248 248 252 221 215 208 218 213 218 273 293 286 230 321 350 186 391 191 112 199 239
444 458 488 352 324 313 310 256 247 223 236 273 259 253 243 231 226 215 207 290 269 260 252 242 223 216 210 215 209 216 223 269 261 276 279 281 273 331 367 382 356 334 168 236 326
443 486 353 333 319 320 303 251 242 223 226 270 256 247 233 226 219 215 208 208 211 214 211 213 213 220 217 213 220 268 241 236 263 124 259 272 270 283 338 386 353 347 333 259 328
461 468 349 324 316 324 257 252 239 227 221 265 254 243 229 219 217 217 215 209 211 222 218 218 211 209 168 267 245 251 249 248 223 259 251 90 279 178 305 335 400 362 349 346 335
440 436 320 309 316 307 262 247 237 226 220 262 251 237 228 220 214 215 218 217 218 217 216 220 207 84 238 224 236 208 235 243 233 246 234 244 267 267 289 309 321 354 383 363 366
349 353 335 321 315 307 263 243 237 137 222 257 253 234 232 223 221 221 223 226 223 226 239 213 247 233 206 243 186 219 161 228 234 231 248 245 255 265 282 292 313 323 355 402 401
347 326 327 321 313 292 258 249 239 226 253 253 249 237 230 228 221 222 216 221 222 221 213 273 234 216 166 216 236 231 226 237 210 237 234 242 238 248 261 280 294 318 332 378 382

GFSSW_2pvu_pres_036.txt.gz
Presure
327 342 329 333 289 294 282 287 277 260 268 241 246 215 222 214 201 226 205 209 176 173 184 178 170 166 174 179 172 171 169 171 173 169 175 180 166 167 174 166 163 146 168 139 142
333 317 344 324 324 292 286 275 280 269 261 256 234 249 208 222 224 211 202 194 208 186 181 181 176 177 168 158 172 175 170 166 174 174 178 173 173 174 142 159 155 166 148 163 162
343 322 307 299 311 312 300 283 267 272 268 266 254 242 257 214 218 217 215 168 213 184 193 180 179 169 178 176 169 151 171 157 180 175 162 163 164 165 159 80 158 166 173 162 145
311 340 319 306 306 303 295 311 277 264 246 268 271 254 243 233 231 214 202 207 211 203 190 182 185 189 179 175 182 179 166 163 175 181 182 163 152 159 150 162 167 145 83 159 156
345 309 307 311 298 316 297 295 299 269 262 254 256 260 257 246 246 239 214 205 204 211 202 207 202 194 193 185 180 176 177 177 170 179 187 183 171 166 172 167 168 165 169 168 159
328 336 310 291 304 292 303 289 282 299 259 256 254 244 261 251 243 233 244 216 203 204 199 199 205 194 207 198 198 172 182 194 190 195 195 178 187 185 162 168 181 173 176 191 208
321 298 321 319 293 292 287 314 280 279 288 255 253 253 246 255 247 237 230 241 218 212 201 199 198 200 199 192 188 198 186 187 180 195 206 203 149 163 176 203 171 191 191 185 201
280 88 276 289 320 297 284 281 308 278 280 262 260 253 247 249 250 251 230 236 223 234 213 204 201 202 191 199 192 198 198 184 185 199 193 199 192 197 198 201 194 195 202 184 206
520 518 444 306 291 303 294 289 274 299 279 274 276 246 266 258 238 240 252 231 234 228 228 213 212 210 202 199 197 192 192 201 199 200 204 203 188 187 192 190 216 219 210 229 219
451 467 567 566 354 297 304 284 284 278 298 274 270 283 255 254 247 231 240 245 238 228 245 217 228 214 200 217 209 201 202 202 203 206 213 220 208 210 235 208 215 228 223 224 217
433 437 485 479 551 338 298 293 277 278 278 309 265 261 261 277 254 242 230 243 243 247 218 227 226 226 222 215 215 216 209 214 222 208 214 214 211 216 216 210 218 234 223 212 209
443 446 445 458 489 549 303 302 262 269 264 254 299 266 249 258 270 252 239 237 236 229 242 239 239 234 228 227 220 220 213 214 212 215 218 214 212 210 216 212 218 220 194 201 202
484 445 422 433 453 486 392 278 287 263 265 267 277 297 257 258 252 257 238 242 239 244 231 234 236 237 224 232 229 221 221 216 219 221 221 218 222 212 207 207 214 208 212 219 206
415 413 400 426 437 471 593 280 266 269 264 259 258 278 291 281 262 249 254 234 247 240 240 238 226 238 231 234 231 226 227 229 219 216 219 218 219 206 206 203 208 203 193 191 193
400 413 416 412 442 452 533 289 261 266 260 260 245 263 266 283 342 298 256 242 238 231 231 238 234 231 236 234 230 234 233 235 233 230 230 232 226 204 205 200 203 209 198 201 213
402 406 409 410 441 478 477 298 270 262 259 262 248 249 234 247 277 318 313 268 254 252 244 243 245 249 238 249 252 234 236 234 236 234 228 221 224 122 203 212 211 214 215 217 212
409 409 421 434 468 499 485 347 277 265 257 243 245 238 241 243 284 299 291 296 294 285 261 259 250 253 256 262 274 282 285 251 222 210 237 232 229 168 173 199 214 213 219 190 170
412 420 439 438 493 465 353 327 283 260 252 248 236 248 246 234 289 283 281 278 284 287 292 310 316 279 271 269 274 268 255 246 223 221 237 237 237 217 100 93 120 221 224 234 240
421 454 451 465 490 470 338 317 309 255 247 239 242 233 251 242 274 264 262 260 262 260 261 256 251 255 257 251 250 245 236 231 238 243 239 229 221 225 191 228 126 99 135 255 251
434 469 456 475 485 357 327 313 315 250 242 234 232 238 227 272 263 260 254 252 250 251 251 251 248 246 244 245 241 234 232 229 226 221 221 238 262 258 253 129 231 102 94 106 99
452 477 499 458 338 322 311 314 307 251 235 237 229 230 276 265 259 252 248 246 241 236 230 228 225 226 230 225 220 216 246 251 256 246 241 230 225 267 283 273 71 289 272 241 390
456 472 384 350 330 323 315 313 297 246 233 238 231 225 271 257 254 244 236 233 230 226 227 228 227 269 273 261 252 241 240 231 223 218 220 244 261 257 268 296 289 84 308 348 106
485 461 366 342 327 317 315 309 277 244 232 234 235 281 253 249 240 232 229 228 227 221 233 275 269 263 239 227 224 221 216 216 267 251 232 246 231 228 254 288 302 290 292 342 399
533 365 341 336 297 317 309 290 247 241 238 223 274 261 247 240 233 228 225 220 287 274 267 254 239 219 212 214 217 239 256 247 250 242 241 254 244 244 236 263 296 293 292 324 336
411 339 338 335 317 313 288 258 249 224 233 229 270 243 238 234 229 219 219 214 206 213 210 206 206 210 122 228 258 239 243 236 238 237 246 233 218 235 251 246 301 305 305 318 329
368 344 333 320 318 295 247 256 250 219 217 269 257 247 238 230 226 220 217 213 208 208 218 216 230 218 213 227 237 246 236 205 158 234 240 243 254 250 257 272 301 94 304 314 333
338 328 329 321 320 305 263 245 234 226 215 267 255 241 233 229 227 221 219 217 216 212 222 224 216 226 241 237 227 206 234 229 229 229 230 227 242 248 266 264 299 354 324 337 392

GFSSW_2pvu_pres_039.txt.gz
Presure
327 343 349 343 331 343 345 302 281 282 279 285 262 232 217 212 191 222 217 204 195 187 176 178 189 169 162 161 161 179 182 171 168 171 171 171 172 170 167 142 152 159 123 159 126
219 121 337 347 330 329 336 326 298 285 273 269 284 261 238 216 224 189 214 213 199 195 187 182 177 187 166 165 156 159 148 175 177 176 178 183 176 163 150 161 166 136 153 164 135
326 329 346 329 330 333 323 326 307 298 278 282 267 256 235 245 220 215 229 224 212 212 204 190 189 180 181 171 170 167 158 163 167 158 170 183 144 177 173 170 157 166 177 135 144
338 336 362 339 332 313 328 336 321 295 291 276 268 269 277 241 233 222 211 214 206 214 211 201 192 200 182 184 173 169 168 179 162 179 178 175 179 185 170 176 183 176 175 172 172
346 279 354 347 341 320 309 315 324 301 293 274 286 263 261 263 249 247 223 203 218 197 215 213 209 203 168 181 175 169 180 174 175 177 169 158 179 174 172 173 174 168 135 182 176
361 359 317 323 343 328 309 306 306 328 312 281 270 280 277 242 255 259 249 215 196 217 209 212 201 214 205 191 194 196 173 172 178 174 174 177 154 154 162 188 176 176 168 156 168
350 319 301 275 291 285 324 308 311 295 312 310 278 266 270 272 239 243 250 247 212 200 219 204 210 209 203 195 186 192 189 178 178 179 179 176 177 178 176 171 166 165 168 174 176
325 506 484 459 458 323 288 310 297 301 290 304 300 277 262 267 269 249 246 247 246 213 205 204 216 208 210 210 205 199 203 190 199 188 180 191 181 176 188 135 178 179 180 173 174
506 491 473 452 417 449 339 290 307 302 297 306 290 293 284 255 261 259 252 243 230 242 239 210 207 211 203 205 205 207 195 193 186 185 197 205 184 199 192 192 179 187 189 191 185
502 473 457 441 438 442 438 309 285 294 292 287 314 289 276 261 256 251 259 247 242 246 225 252 214 212 202 196 201 203 210 206 202 206 206 202 196 197 199 197 199 195 195 197 190
485 472 461 441 448 434 547 527 286 287 301 291 291 297 268 299 251 256 255 254 241 235 237 242 246 237 210 206 204 207 197 202 203 204 204 199 202 196 192 203 205 204 205 202 202
547 485 447 433 436 459 471 552 304 280 296 293 274 310 272 281 261 253 245 251 238 248 243 236 239 235 238 230 215 205 204 200 200 200 206 207 199 199 198 196 195 195 197 208 226
449 411 428 400 409 441 471 561 436 280 284 283 278 275 276 268 286 251 248 237 243 247 240 245 246 238 233 240 236 227 211 212 207 206 206 205 203 202 200 203 204 207 218 209 209
410 409 392 397 424 424 466 594 525 278 269 285 284 268 296 279 268 290 258 252 237 240 237 237 227 246 238 234 234 236 230 234 218 216 212 205 207 215 218 214 211 208 211 212 215
405 399 406 407 426 427 457 565 431 277 287 277 274 267 258 311 264 258 276 244 240 241 248 228 236 234 237 245 250 242 229 234 236 235 234 233 237 214 213 214 207 209 220 225 221
421 405 415 428 447 438 482 481 379 278 267 283 267 258 273 248 301 254 254 260 259 263 256 234 229 229 231 235 228 235 247 248 244 244 242 223 239 236 220 220 227 231 224 228 230
446 418 435 444 443 462 536 446 351 281 267 270 257 258 266 254 285 290 255 251 251 252 256 245 236 233 236 234 232 232 231 234 235 236 233 238 242 243 114 94 231 235 236 231 228
435 441 464 445 481 494 419 380 326 278 254 264 256 262 247 263 268 277 292 282 259 258 253 254 239 236 241 246 238 235 245 239 239 241 241 249 254 231 90 231 121 125 228 132 236
461 483 433 474 496 455 373 351 313 276 260 261 261 257 241 253 230 247 244 252 314 313 280 256 256 253 244 241 233 232 241 251 258 262 267 289 289 278 258 249 221 113 233 238 249
479 474 484 494 377 359 347 337 302 262 254 258 239 255 242 242 232 235 297 294 291 292 299 299 295 275 251 254 257 261 257 269 273 265 259 251 242 234 239 139 150 243 243 156 243
515 498 420 352 336 354 343 329 241 260 256 259 252 247 247 249 254 258 283 281 278 279 278 278 282 282 290 286 282 271 260 255 251 245 241 235 231 239 235 229 244 245 141 262 112
474 449 370 350 342 334 322 336 216 253 252 248 243 240 234 228 261 282 270 263 258 256 258 256 257 259 253 248 241 238 236 229 225 221 222 252 243 248 248 244 242 235 263 194 275
420 385 355 345 328 322 337 329 265 244 250 232 231 231 228 255 275 262 256 252 250 242 238 238 237 229 225 225 224 231 230 256 249 242 244 255 235 239 260 264 262 268 266 306 314
400 372 342 336 326 327 337 335 254 250 235 239 227 222 227 268 260 253 243 238 235 236 233 228 222 217 239 250 247 244 242 237 246 253 246 258 254 249 257 264 290 268 292 407 340
374 362 343 317 331 319 322 271 249 236 233 231 224 228 258 253 245 239 236 232 230 222 220 285 256 244 238 233 231 219 216 209 227 248 236 232 135 250 262 279 258 261 391 369 339
344 368 347 324 331 331 302 262 250 236 234 222 229 261 247 246 243 233 230 225 292 292 254 238 232 226 222 215 205 262 249 248 245 234 239 235 238 240 251 280 254 250 255 379 91
322 357 347 328 345 318 268 245 240 238 224 223 265 247 245 240 233 228 220 217 211 209 206 207 207 208 232 225 180 248 246 219 235 230 229 224 233 224 240 255 252 252 243 242 291

GFSSW_2pvu_pres_042.txt.gz
Presure
303 282 340 309 338 344 356 339 357 326 296 299 287 279 240 214 221 229 218 211 172 198 181 172 186 169 187 186 182 179 169 161 156 163 175 171 169 169 152 148 94 166 159 148 155
299 296 334 329 355 313 334 351 338 317 328 302 292 295 273 233 228 205 218 191 221 174 162 177 169 185 167 179 179 175 165 162 164 169 183 180 166 160 133 144 158 122 161 155 151
304 305 336 341 347 326 320 351 342 340 340 311 287 283 287 239 234 241 198 173 217 225 222 178 182 169 174 169 169 161 154 157 169 169 183 186 182 177 169 165 171 168 140 161 156
300 207 337 370 374 368 348 361 349 328 339 330 288 288 288 276 245 217 213 217 177 219 176 189 191 188 176 176 168 164 168 165 153 162 169 183 181 169 179 174 175 176 156 166 159
298 297 262 326 198 313 351 348 328 336 319 326 312 281 280 287 271 240 222 205 223 186 224 218 203 199 193 187 182 172 166 172 170 156 163 159 160 160 167 176 179 182 179 174 175
322 363 320 498 497 354 308 295 344 340 329 331 326 304 279 267 281 262 239 199 208 224 191 198 222 218 211 195 192 181 162 168 168 180 157 155 156 165 156 154 170 179 161 169 180
311 331 570 524 538 509 484 312 296 328 312 305 311 303 300 263 271 260 266 237 213 210 221 195 204 216 216 210 201 197 188 181 186 175 189 169 167 165 169 170 176 160 167 170 172
352 556 542 534 528 473 428 588 307 332 332 316 316 312 293 291 258 259 270 266 237 208 208 207 221 210 214 205 204 201 196 188 187 186 185 187 173 170 175 177 170 171 169 175 160
503 548 519 491 476 462 454 448 383 298 318 314 308 322 299 296 259 262 276 260 271 238 218 213 194 216 217 215 214 210 212 205 214 202 193 193 180 173 172 168 169 128 175 178 179
489 538 505 477 463 445 439 426 435 307 297 316 298 305 300 291 276 263 255 254 261 268 244 221 215 189 214 209 208 215 209 213 206 206 207 203 197 196 190 192 201 179 178 178 181
467 456 441 428 444 444 430 427 418 313 297 294 304 296 303 299 273 275 258 267 246 259 262 241 231 210 207 194 210 212 208 205 208 196 211 210 187 179 183 183 198 195 194 206 193
455 433 418 417 406 435 446 414 427 419 301 285 297 295 292 288 287 224 266 268 274 243 247 245 251 241 214 212 203 198 211 211 203 208 203 204 201 196 197 199 197 197 192 192 199
449 435 423 407 407 417 429 455 424 498 301 287 293 284 282 299 288 266 256 249 252 269 242 240 240 229 246 222 211 211 200 201 204 206 210 202 202 202 204 205 203 199 201 198 200
437 442 427 410 409 414 434 467 578 467 293 286 287 275 286 298 280 293 260 251 257 262 266 244 240 251 243 236 247 220 209 210 207 205 199 202 191 199 197 196 202 202 198 197 202
444 444 433 425 425 435 441 505 581 445 288 280 268 283 289 294 277 268 279 281 249 248 261 257 242 240 241 250 248 248 236 236 215 208 208 206 202 198 196 201 202 202 200 204 206
460 458 434 431 444 437 471 561 478 412 287 280 164 267 289 274 291 268 265 284 259 248 249 252 251 257 241 235 228 237 241 243 244 247 204 219 213 103 205 202 205 212 212 211 211
460 457 443 456 444 467 488 479 420 334 286 271 283 282 278 256 298 261 264 264 267 245 245 245 241 248 241 240 241 236 244 253 227 237 235 240 247 92 227 213 205 204 208 211 229
484 471 460 471 484 451 466 378 371 303 282 277 283 272 270 257 250 298 265 257 271 253 243 244 241 242 243 241 231 243 238 227 245 242 240 247 247 62 243 240 245 248 253 258 256
487 486 522 505 440 401 356 353 328 289 279 282 282 267 264 267 244 247 301 264 259 274 267 246 247 251 251 256 250 244 239 237 239 239 236 234 228 237 237 237 243 243 237 247 231
449 394 427 409 378 367 345 360 295 273 272 276 258 273 253 257 247 274 287 284 256 261 256 271 274 254 251 263 262 247 237 228 229 232 237 231 231 235 252 262 268 278 222 100 161
412 388 373 385 362 396 355 323 280 267 270 272 256 256 248 247 264 261 263 275 291 268 263 255 256 255 250 250 250 255 243 242 242 244 249 240 229 244 272 272 263 257 255 253 252
396 377 393 379 337 303 316 286 269 267 261 262 259 258 250 247 234 233 238 236 303 299 301 302 295 262 257 250 249 253 257 261 269 247 251 280 272 256 244 240 238 224 79 257 258
341 403 363 353 340 334 276 271 255 262 264 241 246 243 233 233 235 249 288 283 280 281 281 286 290 290 291 292 297 299 295 293 289 276 263 248 234 233 251 247 244 269 276 235 273
322 384 353 361 363 331 260 271 255 254 243 249 237 237 235 233 277 270 260 260 257 261 261 260 258 258 257 257 258 256 251 243 236 226 244 236 245 238 234 256 244 271 275 261 283
318 375 356 363 340 288 270 263 260 240 236 232 227 229 234 280 267 260 254 251 249 249 246 244 239 235 234 234 231 225 231 258 249 243 238 249 232 242 240 242 253 267 248 273 262
329 332 378 331 356 286 258 248 244 236 236 229 229 231 275 260 257 248 247 241 237 238 232 228 225 224 223 267 261 252 237 227 219 233 208 251 245 241 240 231 247 257 240 266 293
328 300 377 365 326 281 261 253 239 243 230 230 231 263 258 259 246 240 240 231 227 224 220 282 270 253 243 237 229 214 207 212 228 242 246 238 228 236 240 237 225 255 233 254 272

GFSSW_2pvu_pres_045.txt.gz
Presure
320 285 326 328 300 224 316 340 274 360 359 367 335 334 254 246 230 224 197 201 172 201 198 182 181 171 179 187 178 173 162 149 149 159 161 165 150 143 138 134 129 96 135 144 132
297 328 308 311 199 352 275 374 334 328 356 366 340 325 307 295 242 232 228 204 199 202 230 169 177 184 175 167 190 177 169 157 155 156 131 160 154 153 154 152 152 113 140 140 112
275 310 313 308 172 374 285 353 199 325 325 334 347 315 307 301 278 228 208 222 200 217 180 216 205 193 179 171 178 190 176 164 169 159 165 166 156 152 147 146 150 153 155 158 159
310 285 309 383 372 366 357 339 322 361 331 312 337 336 312 303 290 258 235 231 212 218 217 188 193 194 190 187 173 178 180 178 171 176 174 170 166 167 156 157 155 152 155 164 168
321 332 328 358 512 506 539 460 423 316 360 324 340 350 337 306 294 290 251 237 225 196 218 208 205 165 153 192 175 167 173 183 186 182 175 170 170 164 161 157 159 168 174 177 171
318 338 374 509 501 532 522 539 465 370 333 336 348 327 347 322 295 282 284 249 232 210 193 191 199 199 218 195 195 178 167 168 170 183 185 180 181 178 175 173 173 170 168 177 120
350 361 512 543 507 498 512 506 480 427 316 341 329 314 304 309 314 286 283 267 237 226 208 212 184 173 196 218 154 213 170 169 182 168 165 170 177 178 165 167 159 160 158 167 181
345 386 489 495 486 478 481 157 499 464 330 313 339 336 329 324 322 277 279 288 252 229 232 207 206 213 170 200 224 216 174 174 165 170 181 175 166 167 167 169 157 149 157 154 152
340 458 465 452 476 458 459 463 465 447 372 308 339 331 317 306 326 280 284 270 263 243 233 205 231 222 202 174 223 195 216 181 177 125 175 170 167 170 170 165 164 169 173 160 151
354 450 456 444 429 440 439 437 443 453 412 310 317 331 298 310 310 281 276 274 270 256 238 234 216 233 189 223 180 215 202 174 194 185 163 136 95 173 177 173 172 171 169 173 176
453 452 439 432 419 423 429 429 431 436 447 314 304 317 291 309 309 289 268 271 271 277 247 227 232 231 211 194 222 185 218 216 216 206 206 208 199 185 190 185 176 180 181 173 176
349 456 429 434 423 419 422 440 417 420 447 318 295 316 299 289 303 295 276 263 266 267 280 243 229 224 198 214 203 213 199 200 205 222 218 215 210 203 205 202 196 193 198 207 198
492 456 433 432 418 413 416 427 416 406 436 315 291 308 305 294 301 283 271 277 263 263 269 265 239 227 226 215 205 220 217 196 220 220 207 204 202 201 204 204 210 210 199 203 205
479 447 445 432 429 418 428 448 416 397 422 311 284 276 288 277 290 296 274 262 276 258 263 265 263 261 237 225 223 201 201 208 184 218 211 211 209 207 209 205 208 208 204 198 207
473 435 438 435 425 438 448 462 418 426 378 307 281 264 291 293 300 279 291 269 264 266 250 247 257 267 266 245 225 223 220 213 212 201 179 209 202 204 203 204 203 193 200 206 204
502 476 431 447 410 442 462 426 407 401 316 295 278 188 148 298 296 282 278 285 270 270 252 256 257 265 258 249 257 243 221 227 222 217 211 206 196 194 192 196 208 204 209 211 197
492 475 458 483 446 512 442 415 416 370 308 294 278 151 286 291 278 281 272 286 276 263 271 257 248 246 247 254 251 251 252 238 247 247 224 216 215 197 187 205 202 201 205 203 205
555 536 412 386 428 467 465 431 394 353 302 294 272 279 275 280 270 282 281 269 283 265 250 252 265 258 261 244 241 242 258 250 246 232 244 248 242 81 210 213 214 216 216 212 206
437 411 381 367 377 324 425 421 365 321 284 279 271 283 279 272 258 288 278 264 267 287 249 266 247 247 247 263 251 238 234 235 243 241 242 244 242 247 238 167 187 243 243 238 233
400 396 377 358 354 396 365 371 312 243 275 282 277 278 270 251 268 294 284 264 269 263 287 266 256 248 246 236 252 247 256 241 233 235 244 248 246 237 247 223 256 255 250 251 253
391 392 374 339 350 361 372 291 291 277 275 279 267 265 268 257 251 252 290 276 273 256 268 270 267 260 258 251 243 245 238 247 248 250 239 230 233 244 247 244 246 194 243 244 243
312 384 379 358 372 324 286 279 274 279 280 265 267 263 265 266 249 246 293 296 277 260 256 266 266 258 239 247 241 241 250 246 240 248 241 242 247 249 238 234 241 244 245 264 273
338 375 387 322 291 275 268 218 283 274 266 272 249 259 251 252 251 247 254 262 281 279 255 252 253 258 273 263 249 246 248 251 247 264 258 254 252 249 246 243 258 269 257 263 262
328 352 392 270 278 283 272 272 266 240 256 253 245 239 237 237 235 233 234 239 242 248 265 269 258 254 255 251 256 259 260 259 250 250 250 254 250 246 279 264 249 247 247 261 262
320 333 372 279 283 276 268 271 266 241 254 252 239 236 230 239 244 276 241 266 284 288 287 288 291 294 293 293 291 282 280 280 283 287 289 269 260 236 228 234 236 246 238 253 254
303 310 344 299 288 281 270 267 256 252 246 235 235 236 232 243 274 264 259 260 260 264 270 272 270 271 272 274 276 272 264 260 257 238 226 237 246 241 238 248 240 242 255 261 248
304 309 329 333 288 260 270 263 242 245 239 237 236 237 238 273 264 261 256 250 251 251 251 251 252 251 248 243 237 232 226 229 264 252 237 224 219 227 222 236 241 237 241 251 238

GFSSW_2pvu_pres_048.txt.gz
Presure
275 281 322 318 330 326 329 321 81 366 376 344 344 359 360 351 292 261 233 198 197 216 201 191 179 176 142 180 170 171 164 171 162 92 146 151 156 142 133 145 160 142 152 142 144
281 300 310 322 319 331 181 348 341 350 350 380 332 343 367 340 329 270 248 229 226 198 205 184 188 168 185 141 181 173 176 162 161 165 172 149 148 154 141 136 138 146 129 141 145
283 283 310 334 316 349 389 369 386 374 329 341 344 332 342 360 334 313 255 237 216 237 200 217 205 198 167 185 147 176 159 161 166 167 168 174 173 140 149 135 134 151 165 141 138
323 294 327 318 362 370 397 492 491 470 423 344 365 330 339 359 327 332 315 251 227 228 199 193 221 212 195 176 189 181 176 173 168 170 167 169 161 156 152 147 141 144 141 138 144
327 316 334 373 357 493 498 512 493 522 470 400 331 354 329 347 343 317 300 257 241 226 225 238 193 224 208 193 156 184 170 183 181 179 176 167 167 164 153 155 150 163 143 157 155
337 328 329 365 485 488 503 496 487 492 483 421 331 339 326 344 336 343 320 274 249 236 226 212 207 194 217 206 192 148 186 173 168 168 188 188 147 162 163 167 151 151 152 155 153
322 344 356 462 453 467 479 463 458 306 500 453 364 310 342 334 334 338 313 298 301 240 229 219 209 195 202 199 188 186 188 182 176 173 161 174 185 179 175 168 168 166 165 157 149
330 358 482 458 442 447 451 452 467 468 503 455 397 317 350 332 322 333 307 291 244 259 231 228 222 227 191 224 231 217 164 195 186 175 180 171 170 176 187 177 180 168 166 167 166
329 452 482 457 435 437 423 442 447 471 501 448 396 317 336 326 324 329 296 287 288 288 247 226 225 228 204 196 216 181 187 215 193 193 182 179 168 174 177 181 184 182 176 173 170
354 485 479 446 421 432 416 412 435 442 480 466 391 321 315 325 292 326 303 283 276 286 277 242 227 225 222 207 193 192 206 178 159 222 147 192 167 167 171 177 176 180 185 183 181
530 498 474 437 421 436 408 412 428 425 462 432 389 312 309 319 321 337 315 295 281 275 276 280 238 221 213 214 212 193 196 221 175 221 168 197 66 181 171 172 171 171 169 162 161
493 473 441 420 424 412 408 407 415 446 449 413 364 304 314 312 314 288 311 292 283 280 282 265 260 230 218 217 222 205 195 189 185 205 214 216 217 205 204 221 176 172 169 169 167
500 470 441 414 438 431 418 422 423 430 437 389 333 297 296 310 300 304 316 294 295 272 265 265 270 258 228 219 216 228 194 200 214 135 171 181 208 216 214 219 178 181 180 180 176
506 482 443 431 422 431 432 435 416 422 436 363 311 294 305 308 304 301 304 294 282 280 267 267 271 268 254 230 221 221 219 203 211 217 193 175 174 212 212 213 209 197 184 186 185
469 497 463 441 423 424 444 434 406 533 378 347 303 286 304 305 302 306 288 301 286 274 262 272 271 277 249 260 233 224 219 222 221 219 215 201 217 179 208 211 209 210 208 206 211
404 430 516 456 453 457 486 417 476 423 347 320 296 274 232 304 294 298 287 294 282 275 271 255 272 261 261 256 250 232 223 225 222 214 223 201 178 211 194 180 212 202 202 219 174
398 384 426 530 484 547 420 396 421 364 343 305 290 275 302 304 290 285 283 290 281 266 273 270 263 262 269 275 248 240 235 223 226 231 220 191 143 202 203 209 211 186 220 218 217
399 385 396 443 419 418 394 393 364 335 316 301 274 265 313 303 276 279 282 294 284 274 266 262 253 257 260 258 261 238 243 228 222 219 223 221 212 206 101 201 204 208 213 202 198
413 374 367 377 417 419 389 367 337 321 305 294 279 266 311 266 269 289 284 278 292 269 264 257 266 260 256 260 263 255 253 238 226 226 225 220 222 223 222 149 217 219 221 217 215
385 389 364 367 377 401 379 354 319 305 277 263 271 282 266 288 268 281 284 283 279 281 280 261 252 269 255 247 250 250 266 260 253 251 254 250 244 238 232 233 153 233 225 242 241
407 374 284 300 315 314 286 273 272 266 270 269 290 262 271 269 261 279 283 279 269 257 278 277 271 261 259 257 238 253 251 252 250 250 244 247 251 255 259 259 261 262 260 258 259
345 338 301 290 298 287 279 280 274 239 283 278 280 267 277 269 284 293 282 271 270 267 260 281 264 275 251 268 253 244 244 256 259 244 241 242 243 242 246 249 243 247 257 239 233
311 380 319 300 294 292 289 286 275 282 277 278 279 280 254 248 250 252 287 277 274 252 265 262 277 270 254 250 261 260 242 251 244 252 256 258 257 261 251 248 248 241 242 248 249
307 321 312 298 289 269 293 263 274 273 251 261 262 264 263 255 252 263 280 293 281 263 266 253 258 266 266 267 268 267 261 257 250 247 250 251 245 241 240 245 255 260 254 256 256
283 298 300 311 297 261 279 278 264 257 245 251 248 253 254 254 248 249 252 252 282 287 273 254 250 261 266 261 257 253 249 252 242 243 242 248 240 258 264 255 244 267 267 255 244
294 299 292 338 303 291 259 278 252 223 255 246 249 244 247 245 243 238 240 241 299 251 275 277 272 248 246 249 254 258 264 267 269 268 270 273 251 255 284 265 246 240 232 240 249
303 289 305 274 344 294 286 271 258 253 254 251 244 245 240 240 247 278 278 240 278 284 288 289 264 263 266 266 265 266 272 271 272 273 305 294 269 238 234 230 243 240 237 233 242

GFSSW_2pvu_pres_051.txt.gz
Presure
244 284 307 320 322 315 322 311 328 335 209 336 323 290 326 339 385 346 273 248 232 224 212 188 184 179 155 185 180 170 170 158 143 149 155 154 149 145 108 146 147 139 136 114 79
256 295 308 325 324 314 320 328 269 270 338 340 331 321 318 341 353 390 278 265 234 215 223 194 198 178 177 171 172 188 162 158 163 154 157 153 159 149 143 142 147 144 134 140 138
285 321 317 327 322 321 339 351 388 389 389 371 363 195 339 354 336 363 374 267 249 225 225 223 211 204 192 167 149 140 180 171 143 167 170 156 149 154 146 144 150 155 151 135 135
291 312 331 325 332 349 391 417 480 473 475 489 407 362 313 349 333 323 374 335 266 240 220 231 221 208 191 190 185 169 124 172 169 168 169 170 160 148 140 139 149 144 147 157 148
293 303 333 330 331 442 471 476 478 500 521 505 504 418 381 338 344 324 358 364 307 264 239 231 217 220 178 189 176 165 176 143 174 176 170 170 169 170 163 151 143 143 137 146 153
301 295 339 334 500 471 454 450 457 467 476 463 492 476 385 331 344 335 328 353 332 320 259 235 209 234 216 204 194 186 164 175 137 180 174 135 150 168 154 170 173 158 142 141 142
308 335 346 511 483 455 438 434 434 455 453 454 463 467 411 326 341 311 318 361 325 322 293 240 231 208 227 219 204 197 184 170 171 137 178 177 175 171 91 108 65 167 162 159 157
297 346 474 480 472 449 426 421 420 426 446 457 468 459 441 331 332 282 324 348 336 306 301 256 245 231 237 217 219 206 191 185 183 161 182 181 179 172 171 168 163 164 168 163 160
296 392 498 475 465 431 416 423 410 426 443 459 478 449 410 326 330 307 310 320 322 318 320 281 245 232 232 205 189 213 191 192 182 185 166 153 187 173 173 178 174 170 167 167 165
307 448 474 450 421 434 411 407 415 424 434 509 494 425 401 308 327 307 319 333 323 301 293 290 279 244 216 227 232 202 205 199 172 188 152 171 141 158 174 176 183 183 180 177 176
368 482 477 446 436 440 403 399 418 423 438 516 525 400 344 307 320 305 306 304 311 297 313 316 277 250 236 223 200 231 209 187 213 207 198 185 180 178 186 180 176 171 184 184 185
378 441 450 448 430 439 439 418 419 433 445 548 411 379 317 300 320 307 311 295 275 317 297 295 298 272 234 222 222 222 198 224 189 204 215 203 160 168 178 188 186 179 178 176 174
415 407 495 441 425 419 441 432 439 439 514 430 379 358 307 297 317 307 324 287 290 299 283 275 297 278 265 238 225 219 219 200 224 186 203 212 201 186 181 187 182 185 192 191 180
413 377 476 480 448 442 442 444 423 444 448 379 365 347 299 284 307 293 293 288 288 289 272 260 289 290 269 240 228 225 225 223 204 204 183 205 219 210 180 181 221 221 198 196 190
411 343 463 544 471 463 452 419 430 426 391 367 354 326 291 278 307 303 334 296 280 283 264 275 268 297 286 272 243 224 221 223 222 219 197 191 184 207 183 215 179 174 220 222 222
413 328 451 451 528 438 423 451 419 378 367 349 314 235 280 279 302 306 297 304 280 275 270 263 269 275 289 261 265 239 224 215 219 214 212 216 201 193 202 197 212 221 182 195 206
400 334 463 433 433 480 459 401 372 360 356 328 307 288 299 221 303 280 278 304 290 275 273 264 259 271 275 279 285 266 233 224 220 216 213 210 204 208 205 187 186 216 161 216 202
343 333 299 500 460 404 380 366 358 338 315 299 288 276 303 302 304 278 292 310 295 278 279 266 280 290 282 284 279 278 258 232 223 217 213 213 210 208 217 216 203 197 205 207 211
306 318 301 320 323 354 355 352 339 330 321 288 277 310 305 311 294 288 293 284 302 289 277 282 281 285 273 270 267 257 273 260 237 220 215 215 213 218 218 223 219 217 224 208 228
290 318 307 285 312 317 314 288 286 275 281 273 297 297 301 292 282 280 299 292 286 298 283 265 268 270 274 269 269 272 262 248 256 255 240 228 220 220 222 223 147 227 205 231 228
297 329 310 291 297 306 295 281 281 279 291 294 306 289 296 280 278 285 277 286 278 268 287 285 268 266 259 256 246 264 257 249 255 250 257 258 251 238 231 231 223 224 227 186 229
300 325 320 331 297 308 303 287 281 283 306 282 284 281 296 289 273 272 292 282 273 279 282 281 262 254 268 254 262 253 256 255 250 258 256 253 251 249 248 247 246 237 229 231 240
303 309 329 316 297 263 303 291 294 292 294 281 279 283 276 274 280 281 274 283 282 280 271 282 275 268 269 256 259 253 253 257 255 252 254 254 256 258 257 260 263 260 257 253 253
307 299 299 338 286 293 285 280 275 270 249 287 279 261 257 258 261 291 292 289 284 265 262 272 281 280 273 261 260 265 261 255 246 243 244 253 256 255 251 250 248 247 246 248 249
306 294 280 302 332 289 270 274 273 258 264 257 269 268 261 256 257 271 288 286 277 269 262 259 259 278 275 270 275 264 256 256 252 247 254 254 248 241 256 254 252 252 252 245 245
315 303 296 285 295 329 285 273 264 268 271 258 222 257 263 258 253 254 253 258 293 282 252 251 255 258 265 269 269 265 257 249 261 259 251 258 237 232 232 240 243 239 246 266 259
316 306 296 284 304 295 316 275 259 262 265 231 261 247 254 254 246 244 245 244 251 284 286 267 258 248 255 262 263 262 261 263 265 268 270 262 254 253 239 246 253 255 267 268 243

GFSSW_2pvu_pres_054.txt.gz
Presure
223 294 297 296 285 318 318 323 323 325 319 324 317 181 327 312 306 336 378 275 247 227 216 205 193 190 192 193 168 175 149 163 141 163 152 154 148 147 142 135 147 143 137 133 144
301 298 296 290 328 323 326 327 317 314 328 333 336 341 340 345 314 308 345 270 278 225 224 221 197 204 189 181 191 162 159 163 158 150 162 155 144 147 145 140 144 150 135 139 136
307 299 312 297 332 332 336 342 351 352 357 359 360 360 363 322 300 314 315 357 261 259 252 222 230 194 204 178 186 181 168 162 166 173 161 162 162 148 144 147 146 145 142 144 146
310 299 295 340 313 368 469 515 502 479 483 430 408 382 367 376 319 321 299 331 326 282 234 225 212 222 207 191 190 182 143 168 151 172 161 160 155 157 150 143 145 145 148 154 146
314 309 294 340 553 536 518 495 469 459 447 441 446 437 400 383 354 310 321 319 350 272 279 240 231 235 204 205 182 182 189 138 166 169 170 155 159 153 147 155 146 142 143 148 154
314 308 344 441 465 491 470 456 447 442 439 462 488 495 428 418 359 290 173 302 336 361 273 249 226 210 232 194 204 171 186 185 149 174 173 173 157 157 155 150 149 145 133 147 152
311 307 424 370 491 469 449 439 433 424 423 447 453 459 482 412 384 347 322 325 321 355 355 275 241 239 206 234 197 199 174 190 182 178 170 162 165 70 163 154 150 148 148 151 148
312 333 424 475 470 437 456 432 431 416 404 421 440 440 458 487 391 336 305 332 322 341 355 264 273 230 229 219 211 204 195 182 171 183 184 177 174 168 167 126 163 162 152 152 154
309 381 363 351 452 435 436 417 420 405 410 424 432 442 456 489 393 326 308 316 309 331 348 321 276 241 239 228 238 203 199 190 183 186 162 181 180 180 182 177 166 163 165 166 166
305 365 455 434 429 425 440 413 405 416 422 429 441 450 461 455 382 324 308 315 318 311 331 335 295 270 228 235 219 229 208 196 188 162 185 165 171 176 181 140 179 176 168 165 163
304 373 354 473 433 420 441 431 416 416 421 432 480 467 439 423 380 322 308 315 309 298 317 329 301 268 259 225 219 211 215 210 201 192 185 151 175 157 166 174 183 179 177 172 169
303 369 353 483 446 430 446 436 423 427 430 508 507 439 393 373 340 300 289 306 299 291 324 314 315 305 258 235 223 219 228 210 212 200 174 187 179 185 182 163 164 160 171 177 177
299 358 397 490 455 452 456 445 430 453 465 422 409 391 379 338 309 291 285 312 301 294 308 323 309 318 295 251 237 219 222 231 198 213 187 184 181 183 173 176 181 172 149 145 155
295 355 338 478 474 446 435 446 576 431 401 376 372 356 353 323 302 297 286 272 318 280 306 304 320 301 297 292 256 235 217 220 230 202 213 197 177 189 187 185 184 185 186 178 171
293 350 329 483 465 458 515 436 417 388 331 356 347 235 334 309 304 293 291 276 295 283 293 286 308 319 286 299 278 251 236 219 220 229 198 207 210 202 196 191 186 187 186 185 160
294 346 328 465 473 467 452 414 389 382 360 343 364 325 311 297 298 305 290 277 272 294 299 302 280 301 326 310 277 272 261 232 231 217 226 229 200 218 211 203 198 194 196 198 198
293 342 320 374 351 399 385 369 394 370 363 354 321 305 299 301 312 295 280 268 268 276 285 281 295 287 298 286 291 273 265 260 226 233 220 225 216 185 225 161 202 196 188 192 209
291 345 314 272 327 330 333 331 367 368 340 328 310 298 291 322 302 278 279 287 280 283 274 272 276 282 282 303 315 277 263 253 250 224 228 221 221 221 219 230 191 224 217 183 177
286 287 327 298 326 315 292 292 293 287 310 286 293 286 275 318 307 303 290 284 277 290 279 276 274 275 276 283 299 304 263 248 258 248 221 231 222 223 225 225 225 195 199 196 192
279 283 338 311 299 308 306 308 292 297 299 317 308 310 307 302 296 290 293 286 279 282 273 266 282 274 276 281 282 291 273 254 246 248 250 223 231 235 219 175 220 221 224 216 221
274 294 311 313 308 300 305 309 307 293 323 320 308 187 304 305 298 300 294 298 289 283 277 277 283 273 269 275 274 287 293 298 249 238 235 243 235 234 227 223 218 218 218 185 106
274 290 278 336 301 290 299 302 303 271 324 310 313 302 293 296 298 291 302 291 310 291 281 272 270 264 276 283 277 288 284 288 287 246 246 239 242 240 234 229 229 225 141 224 220
280 276 277 314 318 288 295 289 288 271 280 295 303 295 288 274 273 287 289 290 272 285 297 284 275 272 268 271 275 279 290 287 254 267 267 256 249 250 249 244 236 227 222 219 218
286 275 315 306 312 308 284 284 283 280 294 285 281 276 279 283 287 280 287 283 279 273 290 272 289 282 272 260 254 252 253 258 260 257 250 246 246 238 245 247 251 255 255 252 246
290 274 289 303 303 319 302 277 265 265 261 254 265 266 261 258 271 298 285 282 277 266 263 267 278 268 272 276 259 260 256 257 256 249 257 258 251 245 254 252 253 254 254 253 252
294 305 325 311 298 306 320 302 276 269 267 268 237 248 266 268 266 268 292 292 289 277 271 268 270 270 274 272 265 268 266 259 260 257 254 256 257 248 243 245 248 252 256 255 252
183 289 307 310 308 296 299 306 296 278 268 257 253 244 241 254 250 246 249 254 291 289 271 262 260 264 279 276 272 270 263 250 261 259 250 254 254 253 246 249 236 245 251 241 255

GFSSW_2pvu_pres_057.txt.gz
Presure
203 328 310 309 290 336 318 319 324 316 325 327 333 314 297 297 304 296 342 287 267 276 238 171 159 195 183 192 177 171 175 165 146 148 154 152 102 140 149 141 141 135 135 132 117
132 322 309 298 333 319 342 343 343 339 338 335 334 335 333 88 315 287 308 347 251 219 258 226 204 194 208 197 185 167 185 167 162 148 156 153 144 151 142 140 148 148 139 135 131
151 318 311 285 349 363 361 339 333 434 397 358 344 337 336 322 308 293 294 315 332 274 278 236 215 208 218 183 194 183 150 175 136 171 167 157 142 154 142 150 141 151 149 135 134
321 313 307 362 379 357 431 538 521 521 523 514 376 346 338 286 92 294 293 297 335 279 275 231 231 173 201 208 179 189 174 157 183 173 169 157 158 153 152 148 154 144 137 147 148
321 319 320 410 368 375 503 485 481 476 477 479 476 411 365 348 313 257 311 291 306 329 299 277 241 221 156 210 200 176 186 171 162 178 174 166 168 153 145 138 140 148 144 139 145
315 318 314 375 357 475 476 450 457 445 431 434 449 444 458 400 361 289 281 306 294 309 333 281 252 223 210 192 215 202 186 184 173 172 180 177 144 170 154 148 143 147 148 149 145
317 316 371 368 450 457 441 456 445 421 436 432 421 437 453 459 402 378 287 327 296 300 315 324 274 241 220 203 208 191 172 187 180 172 174 120 144 158 170 151 150 150 145 147 152
320 323 374 365 475 451 429 449 433 427 409 402 419 420 451 467 483 394 314 301 298 314 297 330 284 252 217 214 217 214 198 199 191 187 179 175 172 176 167 172 151 151 157 158 151
319 324 376 501 467 434 420 451 420 420 409 405 401 414 433 461 497 394 348 287 313 298 290 334 342 268 239 210 223 229 215 200 186 191 190 176 180 159 173 175 170 166 157 156 158
319 336 447 515 445 428 427 445 420 414 407 413 404 426 441 454 481 401 335 342 299 297 307 291 343 339 262 237 206 207 215 203 195 189 187 192 183 166 185 179 163 173 168 155 161
318 326 446 493 466 455 448 450 426 414 415 408 420 437 447 433 495 402 360 337 293 295 305 288 310 336 258 246 174 209 211 197 185 179 193 185 191 184 177 180 183 171 167 161 157
288 322 479 478 463 450 448 443 433 439 435 459 458 454 395 452 420 357 357 330 302 326 322 308 285 324 356 264 244 217 209 212 197 201 181 194 186 189 180 186 179 175 173 168 163
292 304 421 553 515 484 478 490 506 529 480 464 447 373 352 333 388 331 332 324 316 324 302 309 289 324 336 305 265 232 219 217 212 213 194 177 192 192 172 192 180 180 180 174 169
293 305 357 356 448 410 428 436 408 376 386 406 386 370 348 353 382 327 351 288 302 323 309 301 308 276 302 354 245 265 223 217 220 199 219 191 179 193 195 188 188 185 184 176 179
297 290 342 357 354 400 386 341 384 368 370 364 348 342 356 318 330 337 314 299 282 306 313 311 301 307 295 322 371 256 250 217 214 223 199 218 201 181 182 193 196 185 186 182 175
297 303 306 338 337 331 373 414 363 351 362 353 331 304 295 316 300 308 284 291 295 294 299 304 301 298 313 308 331 313 250 242 221 214 223 191 222 195 188 185 178 190 187 177 174
296 291 305 336 314 330 320 388 373 389 379 334 313 310 296 307 287 274 289 301 279 278 291 288 302 321 316 315 324 332 286 250 242 222 218 225 218 178 207 179 192 186 181 187 189
275 317 290 322 312 322 317 303 381 360 377 335 321 308 298 293 287 280 272 274 289 291 273 287 294 296 299 317 325 329 304 266 254 244 229 219 224 237 215 214 204 194 192 195 193
292 314 291 283 309 317 318 313 299 301 300 337 318 309 311 300 283 279 279 274 272 310 292 281 278 290 287 298 327 313 326 297 268 250 242 231 227 164 226 214 201 197 191 180 202
128 334 297 332 314 302 331 321 317 307 298 294 283 295 298 302 296 287 284 284 280 300 297 295 298 294 294 298 310 321 329 318 291 276 249 238 239 235 227 223 216 216 222 222 202
318 316 297 305 321 297 300 306 320 317 327 324 304 310 285 300 295 291 281 284 277 273 275 275 291 289 287 283 301 303 312 312 291 267 262 264 263 247 234 234 229 228 226 220 222
296 252 302 324 329 308 296 306 298 290 294 315 306 307 300 310 299 291 288 279 286 283 270 271 269 271 288 280 270 274 291 297 299 269 258 256 261 253 250 248 246 242 231 229 225
333 327 318 318 322 314 297 282 282 299 307 315 310 309 308 304 291 280 295 282 292 281 282 268 274 271 270 272 274 290 285 272 297 273 258 254 252 250 244 243 239 239 242 240 228
311 326 320 324 306 318 309 293 285 287 273 287 290 285 281 275 284 283 306 288 285 279 271 270 265 263 264 272 278 276 281 278 269 295 263 250 247 247 248 242 239 235 236 238 236
336 290 309 313 296 310 326 301 285 278 284 258 270 264 262 280 298 285 288 295 279 276 284 280 275 269 274 264 266 265 275 273 294 289 287 264 243 242 237 237 235 231 231 232 236
300 196 325 313 325 311 311 322 293 282 275 272 258 256 265 266 278 301 290 290 290 274 279 275 275 287 281 271 265 269 264 262 260 269 278 273 271 253 234 236 237 241 236 238 240
289 271 327 311 323 311 311 289 312 293 284 274 269 254 250 258 247 253 257 291 294 278 271 266 269 275 281 282 281 286 257 251 248 256 261 260 252 252 257 263 239 241 248 249 249

GFSSW_2pvu_pres_060.txt.gz
Presure
183 334 322 298 319 336 347 347 342 342 338 341 339 324 286 296 314 198 273 312 84 258 266 234 184 212 201 190 184 178 168 166 157 155 151 161 137 147 138 141 149 153 117 125 136
136 251 315 327 345 362 366 353 343 339 336 340 343 344 324 330 307 299 306 271 166 257 257 122 232 187 162 155 180 197 166 170 166 145 153 159 158 145 144 143 142 149 151 144 122
185 226 312 325 372 370 362 363 420 465 391 341 325 343 343 328 286 319 306 284 180 258 261 261 214 209 215 187 174 161 160 134 163 161 163 166 135 154 154 148 150 144 147 143 155
196 123 313 381 375 386 504 509 469 476 497 518 531 367 345 297 335 310 298 303 271 261 254 253 222 181 166 166 196 187 182 177 146 167 166 149 153 141 155 151 142 158 132 142 142
211 238 319 388 380 497 462 475 464 458 454 469 483 508 416 345 320 310 319 296 280 321 260 253 264 262 196 206 151 194 182 188 177 155 180 163 136 158 154 148 148 147 143 144 140
127 285 322 388 491 494 464 445 443 443 442 425 438 459 466 423 336 331 241 305 304 315 327 248 252 268 265 206 167 139 186 178 180 173 163 173 161 128 156 148 147 147 142 146 143
123 327 323 385 389 480 440 433 426 452 435 407 409 424 441 455 372 343 316 309 296 306 332 334 253 251 273 258 206 196 203 193 188 185 69 187 152 155 158 150 154 149 151 148 143
149 213 322 379 490 458 424 423 453 432 433 426 420 406 420 439 467 344 298 287 304 284 274 318 284 267 262 279 216 203 200 201 182 189 188 179 186 176 174 156 154 150 152 151 147
99 213 320 373 480 463 436 446 448 421 413 429 392 407 419 443 457 444 336 284 301 295 325 278 271 302 269 267 241 206 196 197 183 127 134 158 182 178 158 166 158 158 102 144 152
365 218 320 383 488 459 450 439 451 429 413 415 398 405 425 443 463 492 359 301 277 294 285 291 311 296 267 266 272 232 202 202 177 190 196 146 159 186 171 178 172 162 138 147 156
333 218 329 376 395 497 468 444 428 416 423 415 409 418 410 447 473 485 421 340 276 295 304 294 315 332 305 194 260 264 226 198 199 183 200 197 191 159 187 178 174 187 170 160 157
326 135 335 366 386 435 528 515 479 462 443 443 438 437 450 455 471 419 327 342 382 269 301 286 300 316 317 323 265 270 225 220 204 194 203 201 184 192 180 185 186 175 179 175 134
316 134 328 351 382 402 432 470 385 364 365 398 454 446 446 469 389 350 354 354 321 318 266 311 281 320 291 309 359 272 262 223 222 183 189 200 200 195 191 185 187 190 180 174 176
319 327 326 319 361 385 378 382 367 358 353 343 344 357 423 360 333 334 321 297 284 290 296 300 274 289 310 302 347 365 268 249 225 212 190 191 185 196 196 190 187 188 189 187 174
182 207 345 334 340 344 378 395 380 360 348 361 329 344 353 332 323 321 315 301 316 310 265 285 331 290 287 298 337 344 357 262 218 213 212 197 187 196 199 195 190 189 176 172 172
268 209 336 331 336 335 382 370 335 321 337 319 360 315 324 337 331 331 328 307 298 319 326 273 283 302 309 303 300 333 359 264 250 226 217 211 197 190 197 197 193 194 194 189 186
347 298 309 332 323 325 338 342 320 351 353 330 325 347 314 339 329 320 301 296 306 304 320 326 276 298 291 293 324 294 357 359 261 245 232 224 208 205 216 192 187 194 183 176 177
365 301 194 318 312 324 319 327 309 338 358 331 311 307 302 297 292 295 295 295 307 307 322 311 323 271 300 283 293 320 322 362 337 253 235 228 225 206 196 226 213 201 193 194 187
219 272 328 315 311 317 318 327 315 300 292 318 329 310 300 281 293 303 283 280 281 289 292 295 315 311 276 304 307 302 306 349 356 319 246 233 230 228 225 205 197 215 213 193 193
121 350 207 311 312 320 319 310 341 318 297 287 293 306 305 289 292 297 303 292 300 297 289 302 315 314 315 319 314 337 333 332 338 336 296 239 238 232 229 232 217 213 209 207 194
184 296 272 122 312 315 310 310 329 309 310 290 280 281 297 292 282 280 290 296 298 297 289 288 288 300 299 307 308 328 335 327 329 334 319 292 236 246 247 235 233 225 226 223 220
201 273 280 319 318 315 312 315 305 326 320 320 302 300 289 288 288 285 296 283 273 271 289 280 277 281 273 280 284 312 305 324 329 309 327 313 287 239 241 255 249 232 225 221 222
175 313 285 329 315 313 316 307 293 297 317 328 320 314 311 311 300 294 292 286 283 295 287 275 284 291 301 289 283 291 295 294 296 303 324 318 301 270 265 259 230 248 244 238 232
171 313 365 336 320 312 312 316 297 294 281 278 284 287 286 294 295 291 294 283 276 273 285 266 265 264 266 263 263 263 265 272 281 275 292 302 300 276 265 260 265 257 252 247 244
171 336 357 333 128 314 312 314 296 292 285 280 270 271 262 278 284 284 286 286 283 275 273 268 266 257 259 264 267 268 267 275 259 262 271 284 289 271 262 254 258 260 257 255 254
168 407 296 125 121 325 307 306 310 299 290 291 278 271 266 272 280 298 288 303 299 291 281 264 256 274 261 263 261 265 267 268 269 277 277 260 279 285 261 254 253 252 254 254 246
289 285 158 349 336 319 320 297 300 305 291 281 279 278 271 262 258 256 259 284 290 300 285 281 278 275 273 263 263 261 261 259 261 263 270 276 267 283 282 265 253 251 249 247 249

GFSSW_2pvu_pres_063.txt.gz
Presure
205 174 339 105 331 354 361 360 354 352 350 355 356 330 341 295 292 328 315 281 227 155 261 101 167 225 178 173 190 191 190 150 174 168 162 149 163 148 143 151 148 153 148 146 131
99 237 306 118 378 378 379 366 353 341 337 337 354 356 322 332 305 309 183 305 251 278 267 233 266 216 161 196 172 161 199 154 157 170 161 150 157 156 154 157 150 149 146 149 158
97 371 360 145 378 388 374 546 548 526 455 377 341 344 357 317 316 293 315 311 295 274 280 264 260 225 229 204 203 140 175 176 185 148 178 155 162 164 158 144 149 143 141 142 143
397 375 343 146 392 385 516 496 483 475 473 504 517 362 345 366 316 308 323 304 289 281 301 267 263 257 231 220 213 176 171 187 173 189 179 168 138 160 151 154 146 150 148 133 137
200 384 347 131 386 527 504 475 460 456 447 452 468 478 433 347 357 317 293 318 301 283 288 280 172 261 211 223 199 211 194 174 169 202 181 147 165 142 157 159 151 149 141 115 145
241 385 372 135 390 500 479 449 439 440 432 436 443 460 470 481 343 335 307 295 280 285 261 277 255 252 267 187 219 153 169 187 135 175 189 177 156 164 158 152 156 152 151 149 145
262 383 371 340 462 496 474 430 436 431 435 420 420 428 445 470 426 348 310 291 302 301 287 312 253 253 253 255 165 191 200 185 199 182 164 183 178 166 160 148 159 147 153 150 153
193 346 345 342 500 508 472 481 470 463 447 427 409 401 428 439 468 339 321 291 309 303 300 272 257 255 257 258 263 219 191 193 140 190 188 183 178 175 168 167 157 152 155 155 152
165 286 333 359 364 487 497 468 465 449 425 440 405 426 411 421 441 456 339 299 281 286 298 261 283 248 253 250 264 224 165 206 197 174 183 163 79 186 180 167 162 163 156 156 151
176 270 356 356 347 406 413 489 462 439 434 429 405 410 417 418 434 455 324 296 299 302 296 287 296 257 254 265 149 260 247 215 189 173 135 156 175 191 192 178 147 159 160 162 156
233 366 351 350 344 407 381 377 401 471 442 426 424 413 406 425 445 451 451 319 293 283 292 308 267 281 246 237 250 256 259 246 193 179 177 139 66 174 195 170 178 164 169 159 165
187 192 352 341 335 352 385 395 381 394 404 449 433 427 421 445 461 452 430 320 292 292 291 295 295 254 266 248 246 251 229 267 213 199 199 195 187 190 97 96 154 185 177 169 162
228 192 280 343 327 360 341 366 375 361 385 431 450 451 449 470 473 445 428 321 301 297 285 295 315 284 284 276 251 247 258 246 267 215 195 188 187 185 186 178 187 191 182 180 167
256 184 353 345 337 331 341 372 365 386 388 416 489 403 373 368 381 417 410 326 307 269 301 278 295 311 284 302 257 251 244 249 261 276 204 197 188 192 182 185 177 175 170 174 180
266 145 359 149 332 336 327 324 323 370 361 322 351 349 351 333 329 339 350 379 298 283 263 291 313 290 313 282 297 273 178 254 251 246 264 204 200 193 195 186 184 175 168 153 187
170 157 349 346 336 323 324 333 327 340 359 347 347 329 319 321 316 315 321 334 306 298 298 272 297 305 280 303 321 269 330 277 251 253 250 264 209 199 196 192 185 179 181 174 167
217 183 161 353 329 327 326 376 319 326 338 350 336 341 324 313 318 310 309 309 254 368 303 309 277 287 265 302 293 316 311 340 284 272 261 254 266 208 204 195 103 186 178 185 190
181 195 134 159 344 326 325 384 323 318 337 343 334 317 307 322 316 301 297 309 299 318 316 320 317 253 273 269 299 288 299 353 353 306 267 251 252 264 218 207 192 194 189 182 182
147 234 184 363 319 326 317 316 326 334 308 316 315 325 326 307 295 293 300 317 291 291 294 297 292 317 282 269 272 274 271 290 348 315 350 275 245 249 258 236 213 196 192 184 185
135 158 220 367 293 323 321 311 324 325 322 322 324 314 303 304 312 313 304 292 289 285 295 301 311 299 286 285 283 259 303 341 343 308 298 336 319 237 247 249 239 224 215 195 188
142 184 332 201 348 336 319 312 305 309 325 314 323 303 292 314 298 290 294 287 292 309 315 321 326 309 310 309 297 311 282 309 306 304 321 290 356 338 246 246 249 246 231 220 207
169 140 133 129 348 333 329 316 306 294 292 309 307 320 294 287 278 280 304 296 292 279 287 292 299 299 306 302 313 325 324 339 334 342 329 352 339 329 305 292 247 248 248 245 235
161 221 154 315 351 334 322 323 313 302 296 281 312 298 295 289 289 290 278 267 289 266 283 286 288 288 292 296 293 291 290 295 330 321 318 322 327 319 308 289 285 250 248 247 248
210 141 286 297 108 337 330 323 318 309 289 285 270 300 308 297 291 286 289 282 272 270 282 280 280 273 275 274 276 282 287 284 290 298 316 315 305 314 308 296 284 283 255 240 240
160 177 140 194 282 229 327 330 317 305 294 293 278 275 271 279 299 294 286 282 276 276 275 288 267 280 273 275 289 280 288 282 278 281 287 298 304 305 316 306 280 273 269 271 267
198 152 179 97 332 136 328 308 319 311 310 292 288 283 278 277 283 298 288 296 289 283 273 271 281 270 266 269 269 258 263 260 260 268 272 274 278 286 291 311 301 278 264 262 263
151 188 227 167 388 140 157 312 319 313 306 293 290 280 281 269 273 265 265 294 291 299 292 277 269 265 267 266 265 267 265 268 266 269 256 257 263 273 278 277 289 285 285 260 254

GFSSW_2pvu_pres_066.txt.gz
Presure
185 150 294 360 386 363 127 387 376 365 369 368 371 346 324 299 290 286 298 314 203 312 359 297 130 222 201 181 199 170 202 175 176 190 179 158 164 157 160 157 163 155 85 110 118
267 133 399 380 376 395 115 470 559 549 498 345 351 363 342 321 302 157 278 305 317 330 314 229 279 226 211 187 211 209 172 164 183 168 151 167 167 160 155 172 165 155 161 113 132
235 265 195 387 398 458 539 508 481 483 511 507 411 344 358 355 321 305 280 290 301 321 333 308 197 207 95 197 190 188 199 173 167 188 186 169 169 158 159 164 163 154 160 148 158
203 188 292 393 390 555 513 493 469 457 468 475 502 437 343 361 310 317 304 282 297 312 327 284 288 264 282 231 228 179 199 170 112 187 180 198 186 168 158 152 147 161 149 157 149
196 180 225 385 384 395 516 490 460 436 447 453 459 473 461 337 355 313 320 298 294 305 318 286 303 274 217 221 195 213 190 177 150 166 187 181 176 173 172 154 147 144 159 143 147
164 195 266 374 373 383 435 506 461 431 434 441 446 457 467 424 343 329 315 312 287 246 310 275 295 295 245 244 203 254 194 201 161 169 186 193 193 175 176 164 156 151 159 159 150
173 199 378 370 368 377 370 410 479 499 472 449 435 429 457 472 428 347 309 314 297 292 302 275 300 339 250 269 210 192 211 213 195 182 137 186 191 185 179 163 160 158 158 162 150
230 198 281 365 317 365 357 400 417 481 453 453 423 417 418 452 481 349 320 314 173 285 303 297 278 336 309 266 240 203 241 216 203 172 198 163 176 155 191 165 168 153 146 162 153
213 176 226 352 173 356 367 384 399 463 451 440 426 426 408 435 476 473 348 305 245 291 298 300 267 329 305 273 259 225 238 191 211 215 174 174 193 174 172 175 167 165 153 143 158
198 193 216 353 357 348 369 381 401 412 451 440 448 418 426 419 451 436 331 319 311 291 290 293 297 316 274 271 254 257 257 238 178 200 213 160 168 194 174 173 175 175 165 155 162
281 226 294 358 353 349 369 374 398 433 434 441 413 413 424 415 437 441 429 336 313 286 295 288 277 261 119 270 255 249 253 252 180 233 206 205 90 198 134 189 189 177 161 161 164
163 189 205 348 346 345 375 340 419 347 392 452 457 428 413 429 436 443 426 339 316 294 283 296 279 275 264 277 255 134 86 251 250 169 247 213 170 173 186 184 202 186 171 170 148
149 154 170 363 350 343 369 324 365 382 360 368 415 469 456 450 445 438 425 331 314 296 285 291 284 288 301 302 256 252 248 159 245 237 159 206 210 122 71 66 185 138 188 171 166
138 225 223 202 361 342 359 338 369 368 349 359 343 359 471 476 454 420 465 331 311 294 286 287 289 281 313 295 257 253 255 260 263 262 255 224 164 192 179 151 141 182 188 176 171
143 151 240 182 198 343 332 329 366 363 356 352 350 346 353 445 441 410 424 314 303 290 282 296 301 289 290 261 282 251 252 249 250 254 266 271 217 156 194 185 154 134 180 185 189
153 153 145 131 365 311 335 338 353 372 349 336 326 328 329 345 397 351 364 300 297 287 286 275 296 286 282 290 281 255 246 246 252 255 254 250 269 211 177 185 185 185 183 185 176
155 143 135 175 208 172 336 342 335 344 321 336 323 322 327 321 333 335 342 298 299 294 285 287 287 290 287 298 288 302 252 244 249 251 261 254 250 261 240 203 183 185 190 186 180
133 159 148 161 167 136 216 322 339 341 331 349 332 319 305 315 324 323 352 328 289 296 293 288 283 304 306 286 305 289 262 259 254 254 248 248 250 252 257 254 225 182 186 191 185
164 160 158 124 274 157 259 323 326 326 361 339 332 334 316 305 312 324 307 323 290 293 297 304 290 284 280 280 288 310 319 251 317 260 247 247 246 244 244 255 261 200 229 173 187
137 167 157 148 155 360 132 147 324 327 317 314 331 329 318 314 307 307 320 342 308 298 288 283 301 298 265 279 284 292 289 311 344 298 245 243 238 235 230 234 240 247 212 238 203
142 166 145 170 245 121 308 268 327 311 331 318 338 321 332 321 306 291 303 305 312 335 321 327 287 288 299 284 267 257 251 299 287 335 365 232 298 234 224 224 229 236 241 248 243
224 152 158 164 158 216 150 334 282 319 313 304 320 314 295 288 301 306 314 305 314 296 295 285 301 314 316 303 332 332 327 301 280 254 258 353 383 281 353 241 231 237 238 240 240
160 144 191 144 193 249 368 131 197 324 303 307 308 312 309 299 302 286 281 285 294 283 315 316 292 289 296 297 304 302 295 298 315 326 298 285 296 339 342 293 354 329 265 264 235
152 149 151 143 155 199 192 349 333 275 310 291 295 301 305 308 295 284 282 272 269 277 288 292 298 290 284 291 296 288 295 294 296 319 337 334 315 312 319 333 326 335 306 295 289
139 162 150 166 171 172 237 144 194 327 316 302 295 292 285 291 305 299 288 280 275 273 271 280 276 282 278 279 291 286 283 286 293 297 300 320 306 321 317 301 309 315 309 292 287
153 139 232 139 143 197 204 198 347 335 319 308 299 294 279 281 285 297 289 298 287 277 275 279 276 276 272 273 273 272 270 280 277 282 280 287 308 279 299 301 310 285 279 294 289
145 160 135 155 167 207 163 308 194 328 315 311 306 294 285 277 283 275 289 295 289 299 289 277 285 279 276 274 272 277 278 278 275 271 274 275 273 287 293 295 304 313 294 284 274

GFSSW_2pvu_pres_069.txt.gz
Presure
189 179 113 137 407 407 419 389 554 532 525 438 379 365 349 326 306 306 302 310 307 300 302 275 214 215 206 147 228 203 248 141 196 164 178 181 185 170 168 131 145 151 157 89 85
128 185 194 169 369 404 408 398 483 510 490 461 435 378 350 351 316 298 284 295 302 316 294 284 281 267 221 256 222 218 206 181 171 190 168 181 160 183 178 156 153 150 160 147 114
154 137 107 164 396 392 390 412 437 498 476 472 485 432 357 350 330 307 291 287 306 294 295 286 289 273 107 237 143 106 181 182 142 168 183 157 180 185 179 159 146 159 151 164 160
151 129 167 150 392 386 389 399 445 491 455 457 456 478 427 362 338 350 329 287 290 298 296 288 334 340 260 242 215 233 100 178 163 167 168 176 141 140 169 167 159 163 144 152 156
148 156 182 162 389 382 382 388 429 446 453 437 442 468 480 393 352 326 341 307 276 285 301 291 317 336 323 266 181 91 137 184 199 191 171 184 164 156 186 179 145 152 154 139 149
137 156 251 220 381 379 381 380 444 420 506 448 436 453 451 447 354 342 315 329 330 270 280 312 317 327 316 108 250 230 225 206 174 199 180 176 158 152 179 133 177 161 155 152 155
130 122 130 130 228 374 380 373 387 457 478 485 468 439 444 454 462 329 322 305 330 279 278 291 315 318 327 338 257 229 224 207 186 195 177 166 200 165 182 188 151 162 163 160 148
142 153 186 134 249 282 358 370 374 452 462 462 449 452 435 438 478 388 334 309 297 298 280 273 301 317 284 352 277 265 229 219 198 250 180 180 170 196 174 148 193 169 168 162 153
131 139 141 222 313 195 375 358 373 395 460 443 446 439 429 430 454 481 326 319 299 313 290 273 296 315 328 327 310 266 231 212 205 196 180 163 166 170 168 183 186 189 158 168 157
126 151 146 280 211 169 321 352 377 363 378 463 437 436 426 420 454 488 333 318 309 289 293 290 285 305 327 301 331 255 254 154 209 188 207 178 194 180 215 171 155 179 189 178 167
159 155 153 170 294 171 363 346 374 348 367 387 454 425 434 431 473 425 461 319 310 300 303 301 288 87 324 227 317 249 269 238 202 215 190 211 193 189 212 178 141 175 189 167 178
149 141 135 157 232 135 324 344 368 347 364 369 458 438 422 424 427 412 424 315 316 306 296 293 302 289 311 308 310 258 67 244 238 217 204 195 212 179 212 199 169 185 182 193 182
177 171 140 127 167 297 228 347 346 355 331 377 391 459 433 432 422 416 444 322 318 311 297 298 290 294 307 292 292 285 264 132 250 227 216 205 212 212 186 156 188 184 181 185 185
155 149 187 158 151 159 181 177 356 340 337 369 395 463 460 438 448 411 442 338 314 306 292 289 293 287 297 288 257 282 254 251 247 251 222 213 202 194 218 197 165 173 181 176 182
178 173 128 147 158 161 127 350 329 337 326 362 358 471 456 448 450 427 423 391 309 305 291 289 288 298 294 289 264 330 322 250 232 251 249 231 210 198 231 191 215 161 89 180 89
141 169 146 142 151 146 353 355 220 328 334 337 349 363 413 415 439 435 402 333 306 304 294 284 287 286 292 296 295 319 270 269 258 248 251 133 246 216 216 252 213 204 201 152 172
111 131 189 146 160 201 319 180 340 337 324 323 330 343 356 419 448 389 389 305 307 300 295 294 288 292 292 293 303 253 267 317 264 255 250 252 257 234 219 216 236 215 241 197 165
145 129 140 161 147 186 163 357 190 339 324 349 326 320 330 350 353 374 318 294 314 301 288 294 287 287 301 300 283 269 308 261 270 265 253 256 256 243 258 248 257 245 154 186 195
153 185 148 152 148 169 180 182 291 205 344 327 333 324 314 325 340 351 308 291 297 296 289 299 285 278 268 286 299 300 282 269 318 264 266 262 260 250 258 259 253 261 264 209 172
139 170 150 183 174 157 195 365 348 336 321 330 332 323 316 298 313 338 326 326 294 292 287 285 287 286 289 283 293 292 298 290 260 265 264 262 258 247 247 247 249 249 254 255 234
146 154 178 172 177 279 189 180 355 174 326 311 315 315 323 313 295 304 342 347 279 267 285 289 269 284 285 285 282 290 247 291 300 265 292 255 247 241 247 246 252 256 247 254 255
158 157 167 149 152 164 160 167 358 339 184 314 305 306 306 306 308 314 302 315 342 284 297 275 282 285 282 284 281 275 279 300 300 297 298 291 231 220 242 232 238 238 261 245 249
142 146 167 165 162 199 171 357 145 274 327 322 302 317 306 302 302 303 302 296 299 323 322 299 299 286 284 286 289 294 296 272 263 270 287 286 270 331 236 223 226 230 231 236 246
123 136 207 147 143 249 155 141 386 205 247 147 308 300 303 296 291 294 288 293 296 302 300 292 294 305 308 350 338 326 297 303 330 333 286 296 268 283 281 262 238 240 241 233 230
145 144 147 132 198 176 138 329 144 257 339 187 310 300 296 294 304 293 289 280 278 289 287 295 295 301 290 291 289 287 290 295 283 282 303 308 331 337 299 265 270 355 312 302 323
147 142 152 165 218 162 154 147 444 132 150 324 169 304 294 286 280 305 304 286 284 278 273 286 291 297 299 288 286 288 290 281 287 288 291 296 314 302 318 290 293 282 339 306 299
143 141 153 166 191 142 137 207 140 280 203 325 286 309 297 287 281 276 299 301 308 286 283 281 285 281 280 288 283 288 286 280 278 287 285 284 286 297 304 298 303 269 308 299 314

GFSSW_2pvu_pres_072.txt.gz
Presure
122 114 148 150 329 127 119 398 404 433 478 526 494 499 373 362 338 318 304 315 300 313 308 271 248 224 213 201 183 170 221 174 187 154 200 180 171 134 114 143 154 102 137 82 77
108 113 130 91 226 192 137 280 405 420 480 488 476 283 437 360 355 322 325 304 314 306 311 306 270 242 221 202 181 167 117 143 184 187 150 188 170 181 158 171 175 84 80 88 119
130 144 140 119 171 108 194 411 433 410 488 472 455 462 468 361 351 354 323 304 299 311 308 303 297 259 240 220 196 165 158 209 180 170 185 152 171 176 170 180 180 168 141 147 154
151 116 135 137 122 133 151 200 414 432 504 482 452 455 457 483 342 336 326 348 298 308 305 293 301 287 254 223 215 219 97 145 171 204 100 127 177 194 190 186 178 165 160 150 137
124 152 149 119 133 278 226 328 394 403 388 520 467 446 452 481 355 340 334 317 329 292 308 336 297 288 274 244 222 217 182 86 158 194 193 195 138 167 194 185 162 128 122 146 158
149 133 148 152 117 218 376 254 395 399 366 499 504 456 437 466 496 341 328 325 315 319 286 314 321 302 286 272 239 222 212 142 146 166 122 203 206 183 165 175 183 163 159 156 155
160 138 181 230 112 286 225 375 389 383 365 420 461 485 455 456 475 343 334 320 336 312 287 308 313 311 285 277 276 232 225 157 145 103 206 205 181 139 185 201 169 172 182 170 162
135 159 151 167 141 139 127 369 384 366 354 404 470 466 468 445 459 420 335 318 315 82 307 278 307 289 305 281 281 270 237 233 194 202 203 213 214 197 157 196 178 162 172 166 170
152 155 159 166 180 255 343 192 379 361 348 415 471 465 448 449 454 466 328 322 313 311 296 311 280 314 287 281 278 281 258 246 213 203 217 215 208 190 195 159 164 181 166 175 181
113 140 124 187 147 179 196 366 179 360 346 403 470 445 439 435 438 484 464 317 317 320 306 293 298 296 314 283 276 275 267 238 223 188 200 220 184 204 190 182 160 174 183 157 187
170 140 204 129 183 184 312 368 356 358 346 399 486 448 444 432 440 480 487 325 313 318 305 306 295 272 311 306 322 309 270 432 220 210 250 224 212 211 240 194 178 169 194 168 170
147 126 143 134 130 189 198 199 354 356 339 386 478 462 435 433 456 451 434 332 328 311 307 306 318 305 252 86 311 285 283 311 236 264 222 218 207 204 203 168 194 179 181 173 186
121 177 161 142 197 187 256 372 359 358 344 374 390 481 454 445 465 402 424 336 319 313 305 308 295 308 271 272 309 316 304 343 249 305 252 234 213 210 198 202 190 187 177 175 174
102 168 149 202 143 182 218 153 304 348 345 351 373 422 483 430 418 419 410 383 312 307 304 296 296 296 282 258 305 306 305 290 253 360 262 255 223 210 205 200 89 201 183 174 173
102 139 191 109 191 131 198 311 347 271 344 353 363 408 436 448 428 424 412 411 312 313 315 301 301 291 300 292 286 305 300 324 303 346 274 261 239 220 212 206 200 201 191 181 172
137 162 146 136 157 225 161 196 253 348 313 332 348 370 451 484 428 455 473 436 309 310 308 285 291 290 292 318 282 299 304 305 316 330 279 264 259 230 214 169 201 201 221 193 157
157 141 144 165 156 155 240 271 182 267 326 319 335 359 429 463 419 449 412 326 305 302 303 290 285 291 298 294 324 299 259 289 279 301 271 261 267 239 237 211 208 207 198 206 172
143 165 154 136 206 160 177 164 139 298 337 330 343 329 352 418 381 370 382 308 295 292 291 289 286 293 292 293 289 277 303 312 281 308 264 261 246 241 246 225 222 213 219 219 200
116 147 178 134 154 192 165 151 172 260 344 321 328 326 327 390 392 367 356 314 305 287 298 291 284 288 289 290 295 301 292 287 285 250 278 250 278 257 255 251 253 247 210 219 217
143 147 116 190 153 176 183 169 154 227 206 254 310 332 314 324 339 350 341 296 307 298 296 292 288 289 290 288 291 299 278 293 312 277 269 323 276 260 256 253 247 226 251 252 223
164 145 168 139 196 131 157 148 164 263 186 328 298 317 316 312 321 339 292 286 301 298 277 288 301 289 290 291 292 276 285 294 281 306 246 264 276 252 255 247 247 249 248 240 251
124 150 166 170 150 172 163 160 172 260 324 340 314 183 322 318 313 308 320 289 288 292 285 285 294 299 280 252 294 280 287 293 285 302 294 244 269 252 240 243 253 249 257 261 256
149 131 153 196 146 135 159 164 162 169 338 351 321 243 299 308 305 315 308 324 329 292 284 281 251 284 283 293 288 262 286 289 286 282 299 311 266 236 286 249 246 250 250 257 261
141 137 159 168 151 155 145 222 150 254 277 143 297 272 239 304 314 298 303 302 314 322 299 279 282 276 267 269 279 279 277 280 276 274 280 284 283 261 273 257 274 254 255 255 244
131 118 137 143 161 131 123 204 180 199 152 363 235 201 166 292 290 309 297 296 281 295 300 305 311 308 302 280 288 290 276 274 282 278 287 282 297 275 282 291 287 256 284 256 237
134 116 140 132 161 175 127 150 157 233 164 195 140 317 308 169 221 281 306 297 290 293 295 301 308 319 294 293 299 298 301 328 331 317 325 312 304 296 298 323 293 302 276 304 294
128 124 136 146 149 125 137 138 167 151 190 323 180 248 174 298 219 226 280 305 302 291 285 287 292 294 295 302 298 285 286 283 287 286 291 284 279 286 287 310 315 320 313 288 290

GFSSW_2pvu_pres_075.txt.gz
Presure
115 131 122 119 134 142 109 132 282 363 403 434 502 489 476 523 299 377 377 307 301 350 295 259 242 221 220 210 191 229 206 154 203 185 183 179 173 167 170 83 132 174 82 81 73
138 133 134 152 140 126 89 188 251 170 297 396 491 475 461 469 482 367 372 332 310 331 324 283 253 239 223 221 194 193 200 217 143 196 184 169 182 172 154 181 185 132 78 100 85
132 131 156 151 143 123 174 184 177 296 396 391 469 480 457 457 493 362 363 382 313 310 340 318 278 254 239 242 211 189 149 171 148 139 201 186 200 176 183 163 177 182 121 113 156
123 119 120 200 159 142 153 373 224 390 382 403 440 488 456 458 468 382 346 336 308 301 283 312 324 269 249 234 231 209 186 199 176 154 177 158 187 210 180 161 149 184 175 92 163
136 113 150 165 179 150 123 214 383 387 290 398 472 507 461 448 466 419 346 338 274 306 297 332 319 309 265 246 238 215 198 187 197 209 187 174 186 192 198 170 175 159 162 173 162
118 124 113 120 136 130 153 138 378 385 371 386 482 475 472 445 452 473 352 335 354 318 295 283 324 314 305 258 247 240 110 88 95 206 145 203 130 144 174 162 182 178 190 146 170
122 123 121 116 207 154 168 127 272 381 368 380 450 468 480 456 445 476 356 338 332 343 310 286 303 298 302 291 253 245 233 198 89 199 163 161 209 138 178 177 179 172 158 187 175
109 127 185 134 159 130 172 143 142 376 365 376 430 474 471 458 455 460 364 332 328 321 323 300 280 316 295 292 288 252 247 219 197 207 172 174 158 201 180 188 123 176 181 174 143
111 135 130 119 152 170 220 180 232 364 363 368 393 466 449 462 445 454 384 334 327 317 324 297 317 273 317 286 297 267 260 188 80 200 154 193 212 163 165 187 185 153 171 172 163
165 123 110 127 138 127 117 249 197 375 365 358 388 469 459 447 442 455 474 340 324 316 316 319 304 292 316 318 283 282 270 246 224 204 199 108 180 198 192 205 176 188 180 189 181
104 108 139 135 155 124 173 174 204 366 367 361 383 463 452 449 440 453 472 345 320 315 346 311 300 308 299 311 331 279 272 256 234 224 204 158 199 103 224 156 203 187 193 180 176
104 103 147 107 132 171 175 141 206 253 349 364 374 438 449 445 441 459 469 351 324 326 316 315 305 161 296 301 318 284 274 270 249 229 225 208 217 201 140 174 210 178 183 194 180
143 130 148 153 131 145 190 296 165 165 364 360 367 457 459 450 470 445 495 346 323 312 303 302 301 306 193 286 238 103 272 274 266 246 231 226 216 218 206 176 208 203 196 192 195
141 167 131 165 151 113 160 187 149 189 338 361 356 433 461 471 469 426 428 347 322 315 310 305 308 319 302 312 289 246 299 272 109 272 251 234 226 224 216 199 171 217 180 190 182
159 132 181 192 189 156 191 159 223 200 367 369 360 432 477 405 416 414 426 346 319 305 291 290 293 296 302 303 274 297 267 279 291 279 265 256 239 228 231 215 190 202 202 202 205
145 114 164 104 141 173 157 134 187 183 330 346 352 386 492 423 430 422 423 349 319 301 287 292 297 297 299 327 310 261 290 279 270 266 268 259 250 240 241 235 213 189 209 210 202
145 154 168 137 140 165 148 169 184 310 336 339 302 363 459 455 449 430 433 358 319 304 285 299 291 299 290 307 300 268 257 288 323 322 265 281 253 247 249 258 226 212 199 213 209
153 142 133 155 168 138 178 208 168 177 172 323 328 344 410 475 465 438 434 341 311 296 293 283 289 296 305 294 285 298 311 255 310 307 293 336 271 249 288 251 266 217 212 215 228
154 146 144 143 163 156 152 178 169 172 191 347 325 329 346 391 375 381 346 318 303 295 289 292 287 312 294 295 290 280 298 284 286 312 285 262 283 236 245 274 261 263 249 237 224
129 144 156 181 153 153 157 165 193 195 173 177 296 202 323 352 369 345 322 313 294 298 295 266 281 284 296 294 293 298 282 299 295 286 299 298 274 241 267 316 252 257 256 256 255
148 146 157 167 129 161 168 175 166 162 202 356 245 223 328 315 349 323 308 305 300 278 280 287 288 281 286 288 288 284 292 282 281 262 289 292 300 253 278 329 271 274 268 256 250
118 145 143 173 160 133 152 227 149 136 147 165 335 274 316 338 328 326 325 304 291 310 289 313 295 290 290 289 288 294 289 295 298 298 273 277 303 290 315 256 279 263 255 262 273
138 150 137 123 171 125 139 141 161 153 157 234 184 325 314 311 313 323 339 308 298 288 266 301 287 270 236 293 297 289 285 288 288 293 277 277 280 294 278 257 315 271 260 255 255
149 150 148 152 163 169 123 148 137 170 178 155 237 237 310 306 304 316 319 329 325 293 283 295 270 268 276 277 281 293 297 279 285 285 279 267 275 279 284 271 254 289 263 251 247
148 161 150 167 143 159 118 128 164 142 179 202 243 192 325 305 302 296 307 314 315 334 307 314 294 291 252 279 288 283 272 279 280 270 282 262 270 257 275 286 259 284 287 238 306
146 162 107 150 148 158 128 115 159 153 170 168 207 142 139 320 301 249 292 306 302 301 307 312 312 311 281 282 278 279 274 272 282 281 283 278 266 252 285 291 296 308 245 306 244
144 140 126 156 144 151 132 161 162 137 196 130 147 140 345 326 313 291 291 288 301 294 294 299 302 307 300 303 305 313 311 303 308 314 327 321 287 276 301 299 290 307 314 312 242

GFSSW_2pvu_pres_078.txt.gz
Presure
127 122 126 142 134 132 126 148 109 133 161 386 398 350 541 226 502 272 381 373 321 349 366 310 276 247 249 201 224 160 207 128 166 199 158 179 175 184 202 192 163 145 142 109 78
110 120 174 121 125 136 126 124 89 229 188 243 394 416 507 433 460 436 387 377 339 315 329 333 294 268 229 218 198 279 188 156 125 116 113 135 188 178 174 196 133 176 167 78 78
125 126 131 124 127 129 130 130 139 121 391 378 382 415 478 468 266 466 403 370 358 324 330 336 306 280 255 250 206 196 189 179 142 135 139 210 162 185 171 175 190 179 160 162 88
199 116 108 130 130 112 114 132 140 125 137 169 380 408 501 463 453 463 405 363 360 343 306 316 320 291 270 234 218 198 198 190 238 148 167 134 178 194 186 170 179 184 170 82 164
162 149 131 127 126 132 127 112 117 123 194 378 375 425 499 481 445 451 460 366 352 354 317 296 270 306 274 251 225 204 220 200 180 193 173 177 200 198 174 180 175 197 190 180 180
158 103 117 124 120 117 154 123 107 161 323 377 372 429 489 477 452 450 459 380 342 347 332 303 291 329 289 258 241 216 200 213 194 182 205 204 210 169 188 192 177 169 193 174 180
141 177 170 124 160 146 113 137 121 125 135 377 366 424 483 483 453 439 455 385 342 338 351 308 291 276 306 264 250 235 229 210 205 194 184 109 183 150 152 181 183 176 169 162 145
153 142 148 143 120 120 128 158 128 203 330 337 361 433 453 482 455 434 468 381 347 330 343 313 290 310 315 282 254 251 225 210 208 204 191 187 212 194 138 197 177 182 173 165 172
162 162 166 172 145 145 167 140 154 179 370 373 355 468 443 462 455 437 465 377 345 318 355 353 306 289 319 306 264 250 243 221 209 204 209 183 136 187 164 152 148 179 194 172 172
152 123 136 110 174 126 164 135 143 250 216 374 355 476 456 449 449 445 472 374 348 320 334 337 296 290 330 104 204 261 250 246 222 226 198 77 188 172 185 152 184 197 178 181 175
173 156 182 165 145 122 138 160 159 146 328 377 359 470 454 437 447 446 442 368 344 323 354 327 319 285 273 289 306 285 255 246 239 227 225 206 198 189 183 179 192 170 127 156 197
175 147 141 130 184 144 180 156 154 184 189 381 366 485 451 449 449 449 444 361 338 320 329 328 324 285 141 279 310 306 279 256 248 240 238 223 128 196 171 144 184 165 205 144 174
155 148 136 174 187 105 155 167 157 153 317 375 373 482 464 458 421 443 491 363 320 319 331 331 320 289 317 268 310 291 287 278 256 252 244 236 222 204 182 123 145 153 155 181 187
145 149 130 224 142 142 158 135 141 148 195 353 367 441 415 468 418 438 487 359 311 331 319 328 309 305 304 283 261 303 270 280 280 275 255 246 235 216 201 198 197 183 171 191 164
135 149 146 117 132 174 125 178 229 174 234 398 370 459 416 418 423 438 477 355 305 316 325 308 305 300 279 303 278 253 319 269 281 282 279 263 243 235 212 201 194 202 107 174 199
164 158 153 130 133 155 165 161 178 206 173 293 328 461 443 422 420 449 434 338 294 302 305 286 301 307 308 298 294 258 302 308 270 275 279 274 260 240 236 216 206 199 206 156 168
134 160 117 137 161 156 172 128 145 176 163 348 356 397 480 452 423 438 400 332 299 296 296 311 305 300 295 290 266 291 272 304 310 272 269 280 274 259 244 239 228 210 199 204 195
166 144 164 168 112 137 180 138 153 174 182 291 234 356 389 435 436 460 380 332 299 295 315 314 301 299 304 299 290 300 249 301 288 288 282 279 278 274 265 244 241 227 82 202 198
160 143 148 151 142 154 160 126 156 181 162 266 209 343 386 380 430 463 364 324 305 297 293 308 317 313 285 289 301 284 306 290 293 292 264 306 276 278 269 266 251 238 227 221 205
153 150 152 119 145 147 124 168 143 130 185 168 255 324 364 375 306 419 349 318 303 297 295 284 291 288 298 301 284 300 297 298 261 282 284 295 291 275 268 278 272 260 246 235 224
158 151 145 136 170 161 148 163 125 141 156 236 173 292 327 369 347 371 331 297 303 297 293 292 289 285 306 289 291 301 286 290 288 249 247 262 303 292 307 274 268 301 257 256 251
156 150 143 160 157 141 137 125 126 136 124 173 236 203 303 325 365 341 341 325 304 271 273 295 301 294 280 283 306 308 290 281 276 289 294 281 260 285 303 299 273 298 265 293 275
154 149 147 141 149 165 154 177 122 126 164 197 175 210 343 322 267 353 322 301 303 291 286 297 289 305 287 299 293 278 288 289 281 290 281 276 283 285 293 297 295 301 332 322 279
153 142 130 155 131 153 169 142 158 161 144 223 157 152 246 142 234 312 334 323 314 305 290 290 289 286 314 269 280 288 296 297 280 294 279 278 276 269 255 287 300 282 275 289 309
158 142 148 149 143 160 161 145 132 176 143 132 183 110 228 123 240 313 311 333 349 315 303 300 295 285 278 285 278 275 279 277 279 282 282 270 274 277 282 263 296 281 269 275 293
138 140 150 151 120 137 143 157 132 151 131 174 113 180 130 329 241 294 310 305 317 337 345 307 293 295 303 301 291 283 274 273 279 284 280 285 276 264 287 285 257 290 271 294 274
143 143 145 150 151 146 152 158 136 154 133 136 126 184 188 304 197 328 313 303 299 304 302 306 318 319 315 312 303 294 294 291 281 281 283 281 268 278 285 284 282 280 294 300 285

GFSSW_2pvu_pres_081.txt.gz
Presure
141 159 161 119 130 146 138 121 120 133 110 126 132 164 375 409 475 529 513 425 384 343 371 321 298 299 271 247 243 216 178 174 186 248 181 212 195 178 169 166 104 81 190 91 162
135 161 166 157 143 114 182 126 141 118 142 102 129 204 359 433 350 489 484 478 392 360 337 322 305 297 292 258 262 255 191 172 205 228 162 208 208 188 176 152 172 156 149 76 86
149 89 160 161 172 135 148 132 133 137 162 129 218 371 385 518 488 454 447 467 407 363 339 321 311 297 298 283 238 222 197 187 174 243 240 121 216 200 181 178 170 81 174 71 77
114 171 116 171 150 133 239 140 122 124 141 140 128 288 398 523 472 446 436 467 418 365 344 319 338 296 293 291 271 263 209 212 178 184 245 125 149 202 193 169 171 193 92 200 90
125 124 161 168 165 150 154 161 146 145 117 254 300 370 418 503 502 442 435 448 417 358 357 320 306 294 295 287 271 229 207 246 190 242 234 119 214 190 200 186 167 173 208 193 172
159 149 145 185 193 149 144 109 116 136 145 218 256 372 480 517 497 439 440 451 423 348 347 319 339 309 288 288 271 252 210 254 196 206 177 172 135 168 116 110 138 166 177 198 175
131 142 115 134 217 180 113 163 138 115 214 144 384 376 488 458 479 448 434 446 429 344 347 328 306 314 285 290 276 260 246 235 197 192 187 192 157 131 122 134 177 177 166 185 191
162 137 170 162 167 127 121 151 151 156 136 250 149 406 474 466 476 440 435 443 402 353 337 329 307 308 319 297 284 265 247 233 224 193 199 192 180 150 140 196 131 178 180 172 179
162 144 166 200 147 175 137 105 151 163 184 184 296 456 471 463 472 441 434 439 412 350 323 327 326 292 300 327 290 279 254 248 239 208 195 279 183 244 174 149 200 141 185 174 168
155 146 154 166 160 148 158 144 153 156 157 385 341 418 468 448 455 452 435 430 405 333 321 324 308 298 298 322 271 142 265 257 243 212 207 188 189 176 233 206 152 198 187 183 176
146 142 169 132 185 169 153 140 144 140 193 213 387 465 468 456 451 453 460 429 387 325 317 323 308 305 294 284 312 284 267 254 243 220 208 265 198 195 178 180 197 162 171 135 185
154 159 178 168 119 144 114 121 143 165 141 405 390 145 453 440 455 455 423 425 374 318 317 318 316 324 295 285 297 306 276 256 249 228 209 205 195 103 194 172 182 207 165 141 166
144 139 163 172 130 153 159 142 173 153 177 226 281 444 453 433 444 440 403 425 345 327 318 309 312 327 342 283 275 320 275 261 248 245 225 208 203 208 203 193 173 183 180 204 138
128 162 136 130 160 138 124 133 205 145 188 164 327 431 427 425 430 431 413 417 341 327 310 305 332 339 317 274 276 303 295 265 249 245 245 223 207 201 218 198 197 175 165 135 200
144 159 156 145 128 114 119 125 135 151 164 185 372 402 428 432 448 393 405 403 335 317 310 309 339 336 282 276 271 296 290 272 258 250 248 242 221 234 204 230 200 199 179 91 179
146 153 153 159 161 142 142 149 141 158 167 136 380 382 400 456 485 402 408 347 324 310 308 303 324 323 279 296 267 297 286 285 280 257 253 249 241 222 215 208 214 218 197 195 178
139 143 134 131 159 126 124 140 142 151 130 140 304 313 453 452 474 412 399 332 325 305 305 303 323 296 303 270 275 264 293 289 291 306 258 255 252 244 234 226 216 214 208 195 186
144 150 139 134 127 150 140 170 146 120 151 144 132 368 407 452 422 441 344 318 310 299 294 304 314 309 296 281 281 262 262 298 297 283 289 285 263 258 255 240 236 224 219 204 197
149 175 161 159 155 157 132 110 155 153 121 180 190 222 140 467 443 359 334 318 305 309 319 311 318 312 309 300 269 292 282 273 255 302 297 271 286 313 284 261 248 239 233 226 210
167 153 158 158 157 151 213 140 135 135 168 183 260 255 141 447 421 348 328 316 298 307 313 293 292 302 294 297 295 273 292 290 277 254 294 304 295 293 285 292 290 269 248 238 229
147 153 188 128 159 146 163 147 164 145 132 120 136 269 321 249 131 335 318 316 302 307 311 323 311 298 302 288 293 281 289 269 277 283 263 287 297 303 303 272 282 287 277 258 246
178 153 187 127 155 110 144 165 190 128 140 145 185 149 336 124 358 289 327 313 286 310 307 305 306 319 289 288 278 286 281 292 277 296 285 254 298 287 295 308 315 274 295 280 262
129 148 175 150 158 147 158 177 129 190 151 141 139 161 169 353 270 327 354 314 301 308 284 276 292 298 290 292 294 289 288 278 293 295 295 288 268 250 298 289 277 305 310 277 276
145 155 143 153 153 142 124 168 157 133 140 145 145 135 171 314 347 300 336 153 305 312 292 286 279 294 290 298 298 278 286 303 298 278 274 278 284 286 252 305 277 280 299 294 276
163 215 189 157 146 129 149 152 141 153 127 141 151 157 196 125 141 327 192 160 303 308 314 297 288 287 277 285 286 283 298 288 286 286 279 269 268 275 274 285 290 257 265 289 278
205 185 172 150 140 143 161 148 129 169 139 120 152 212 190 232 125 132 318 135 312 302 325 311 303 299 278 283 286 286 278 289 279 279 285 289 268 274 275 295 276 300 280 279 279
156 198 177 156 139 146 129 114 145 161 129 110 158 135 170 162 241 278 327 331 132 309 254 339 338 317 310 293 283 279 280 276 275 278 278 282 276 271 271 278 284 291 290 279 266

GFSSW_2pvu_pres_084.txt.gz
Presure
113 125 134 119 159 103 125 181 193 179 154 123 140 135 153 162 189 430 495 519 537 483 378 358 339 316 291 285 275 263 181 218 207 210 207 202 192 197 161 187 173 69 174 143 78
132 116 142 143 128 108 124 178 205 116 121 158 162 267 151 203 371 496 520 496 543 489 385 370 343 323 312 293 273 273 254 158 221 254 204 181 196 149 107 165 179 163 107 163 173
142 136 135 105 190 172 139 126 154 131 144 124 146 158 346 153 148 538 488 479 503 470 395 366 344 333 310 295 278 270 249 213 218 216 211 204 193 203 179 106 178 171 154 156 93
117 140 127 158 149 122 143 158 215 136 130 136 164 193 149 213 196 510 455 437 458 472 416 363 358 326 313 301 287 274 257 230 190 168 227 212 231 209 220 183 178 191 165 169 167
114 122 134 142 134 172 226 238 159 158 144 159 160 145 158 439 489 521 447 429 450 475 417 361 378 349 307 295 289 280 266 258 195 146 207 164 201 203 217 122 126 185 178 166 153
132 130 138 166 146 214 179 209 115 153 140 159 153 206 167 503 467 506 451 426 427 468 393 358 339 338 324 300 293 280 279 271 255 197 238 169 160 211 194 218 211 189 188 175 164
123 136 129 161 163 173 155 101 127 140 142 145 153 156 478 456 475 489 449 426 420 466 386 356 344 347 352 308 282 281 281 278 241 201 228 165 171 214 196 219 180 217 190 185 137
127 143 118 145 151 163 174 156 150 135 143 153 183 264 470 467 323 468 431 434 402 408 378 346 345 315 324 321 290 276 276 274 241 227 226 206 166 215 195 215 168 204 216 191 180
146 142 146 160 184 163 151 143 144 151 145 188 203 254 481 445 464 458 434 438 391 391 420 346 348 325 367 315 284 281 270 270 263 241 236 191 258 205 205 213 227 167 218 208 185
133 137 140 119 185 210 158 158 128 149 153 132 143 194 469 467 457 453 441 441 386 399 374 350 331 328 314 349 289 289 270 265 259 248 236 206 179 180 171 191 203 135 167 171 115
129 137 184 149 134 164 172 147 127 153 148 149 141 254 446 445 452 456 447 408 388 368 352 336 325 334 311 291 296 273 266 259 257 261 261 228 94 176 212 175 218 175 134 124 220
129 148 150 159 153 207 177 143 151 144 152 186 134 310 440 435 454 461 454 387 372 340 342 325 319 333 311 320 292 286 265 264 256 254 259 252 212 251 178 185 171 179 170 136 136
147 137 150 142 128 123 155 150 132 136 149 136 188 145 448 438 469 475 434 372 356 348 333 316 318 322 311 306 309 274 275 263 264 262 265 257 242 212 194 187 181 175 178 164 141
133 140 157 214 153 187 115 135 139 147 160 155 126 306 449 453 427 467 415 359 341 333 334 309 314 318 323 340 315 315 270 275 274 266 268 265 248 225 207 186 180 218 178 170 226
144 160 143 212 134 154 165 119 141 117 143 177 182 415 201 179 419 424 404 362 337 338 320 305 306 315 325 295 310 286 307 284 284 276 268 269 250 237 239 197 189 187 193 183 178
158 140 146 159 136 175 136 138 119 152 137 141 132 135 513 359 425 420 366 338 320 343 313 309 311 312 320 332 297 312 298 305 298 292 284 264 143 248 245 213 199 213 241 190 186
155 187 155 128 146 153 192 152 133 147 153 175 178 215 455 432 136 379 376 341 325 312 333 310 304 312 314 305 293 338 300 263 308 317 279 263 256 251 249 222 206 203 258 227 190
136 139 149 159 160 151 199 141 146 130 137 149 146 124 465 134 388 408 370 347 333 310 321 318 294 303 343 315 323 283 271 270 298 303 294 270 258 249 250 241 217 208 208 249 189
138 141 162 138 141 183 219 149 144 140 137 172 134 187 442 408 372 392 375 343 321 308 308 302 296 313 328 309 296 308 299 270 265 289 295 283 266 257 254 248 241 219 211 208 200
184 146 146 155 158 208 150 150 132 135 152 130 127 154 145 290 378 356 337 269 317 313 306 309 303 319 328 308 294 287 282 290 272 287 279 289 291 269 260 255 248 245 228 217 212
155 177 166 136 160 161 169 170 157 149 145 125 172 126 168 307 231 215 333 134 304 312 314 312 307 321 316 298 290 276 284 276 261 267 293 299 295 285 285 278 258 255 246 239 222
182 147 128 157 128 154 232 167 141 142 170 162 156 128 176 176 210 140 313 133 304 313 305 293 295 294 314 306 298 281 267 260 273 267 266 270 282 278 298 300 287 291 292 257 248
189 141 125 167 150 219 158 167 112 135 144 121 144 145 133 192 350 183 187 174 202 299 307 312 309 300 311 313 287 288 278 265 263 286 283 279 265 258 269 285 301 307 305 282 285
207 164 120 136 145 220 126 151 159 165 140 162 127 141 170 130 139 211 331 330 220 208 312 295 311 307 297 289 291 281 286 285 279 273 274 272 274 286 294 283 264 302 306 298 309
210 141 138 194 155 206 173 140 154 158 173 127 130 143 161 170 162 276 363 328 269 319 134 316 299 290 298 297 285 281 276 276 291 286 275 281 290 284 285 298 297 270 282 300 293
169 142 200 224 209 179 147 168 131 148 177 164 123 180 148 145 170 119 271 306 355 332 322 314 312 311 302 293 295 296 287 281 270 279 285 284 285 281 279 271 285 284 293 260 287
186 153 150 175 218 185 146 145 149 178 165 169 133 150 125 121 170 232 125 259 299 325 341 325 334 332 322 306 295 279 284 281 281 284 274 278 271 275 271 273 274 274 282 284 275

GFSSW_2pvu_pres_087.txt.gz
Presure
111 118 132 112 142 129 130 136 139 149 119 192 153 167 170 190 169 127 157 177 437 86 372 386 370 347 324 304 303 288 269 184 213 200 193 187 191 169 203 119 154 112 144 165 182
117 116 132 128 132 133 164 134 130 149 154 90 156 181 103 140 285 292 165 242 401 542 451 380 376 355 338 320 304 287 285 240 222 204 204 195 178 192 197 194 148 178 176 76 151
113 121 149 148 118 128 148 119 123 107 180 131 144 167 179 171 156 170 501 514 535 470 516 380 389 372 344 335 305 297 281 264 222 212 210 198 197 186 178 197 159 185 209 178 86
116 125 175 117 140 137 140 128 180 137 114 149 111 173 144 160 155 519 469 444 468 444 476 482 411 378 353 338 311 287 279 263 217 245 207 204 156 201 186 201 200 150 184 188 171
116 126 170 137 136 114 165 198 137 162 115 144 166 140 157 164 151 473 494 454 434 451 455 461 430 382 362 332 312 296 288 269 267 155 207 163 194 191 191 182 201 200 195 160 144
123 133 147 139 142 140 135 144 167 218 153 144 151 170 210 161 286 483 513 432 421 429 443 441 397 373 361 335 313 300 278 265 275 263 168 198 202 199 197 204 196 221 201 159 129
124 113 140 155 137 149 131 225 227 166 253 151 155 140 172 453 305 483 486 432 419 413 441 417 397 362 360 342 316 288 300 272 267 269 255 253 205 72 192 199 180 204 206 198 186
125 143 118 134 124 135 134 169 180 158 157 154 159 149 158 151 480 492 466 426 417 410 438 411 377 348 355 345 340 299 288 277 272 269 259 223 191 200 232 166 198 212 215 175 197
131 135 140 131 141 152 144 206 172 181 133 137 153 128 166 457 478 485 445 432 416 421 434 381 359 349 342 360 335 308 287 283 273 267 260 262 214 222 217 210 198 207 213 218 199
129 133 132 134 134 151 155 178 194 185 154 139 125 147 144 442 443 480 443 406 385 415 417 367 357 351 340 354 327 336 288 277 267 261 263 253 220 168 276 164 205 200 190 209 220
124 131 125 138 159 152 213 163 188 149 143 130 146 149 136 408 447 485 419 388 376 407 375 369 353 342 333 344 320 307 279 279 264 260 249 252 245 199 148 220 200 172 197 223 208
125 127 132 138 149 145 204 160 124 172 151 151 130 136 461 455 462 478 404 373 359 364 368 367 349 329 329 351 315 300 286 268 261 255 299 256 247 255 115 260 202 174 160 192 194
125 136 133 140 152 160 162 227 165 154 133 161 144 168 149 452 465 139 382 361 363 359 410 357 342 337 374 328 319 308 285 277 263 262 264 255 275 268 285 211 170 178 162 200 173
126 126 143 142 120 163 155 164 134 145 141 139 167 142 474 439 476 395 371 364 347 365 392 357 331 323 327 313 311 302 294 286 267 256 283 271 262 263 279 204 184 230 185 186 210
137 140 135 152 126 143 128 159 216 143 145 163 151 162 156 152 401 384 367 352 330 337 348 362 325 315 335 380 302 316 292 286 270 258 271 260 292 275 277 267 192 201 196 183 170
143 131 165 144 144 153 151 170 160 145 135 131 142 146 146 441 379 374 347 330 334 331 314 321 329 317 346 322 342 304 296 280 287 267 266 260 265 256 275 275 266 189 219 181 187
137 123 134 147 149 144 123 209 144 144 141 135 187 141 171 169 371 349 214 344 329 320 314 329 317 317 322 323 301 278 296 287 285 276 275 263 258 266 271 231 269 271 186 212 177
134 150 147 136 150 204 166 161 149 153 153 161 183 127 189 353 140 341 145 328 322 330 320 305 309 315 311 334 304 306 279 298 286 290 274 270 265 254 260 262 269 266 249 190 257
135 151 146 134 141 214 151 148 173 137 133 133 132 129 106 122 384 338 146 333 341 326 308 309 310 303 300 307 306 321 349 293 285 297 320 293 262 263 255 258 258 260 257 228 203
131 145 141 137 145 186 121 149 171 177 144 128 176 132 142 142 124 218 356 317 193 322 319 315 294 298 305 315 316 312 312 275 330 320 289 292 299 292 276 295 284 271 260 261 252
134 134 137 138 120 158 162 203 194 157 130 129 153 162 158 132 264 312 305 212 311 310 306 305 301 310 341 326 311 315 319 326 277 267 273 309 265 312 296 308 314 294 268 260 254
147 139 149 145 206 156 160 132 242 193 132 166 139 133 159 169 245 347 331 311 142 304 302 310 311 310 314 325 309 301 298 305 296 305 296 289 259 294 294 295 298 295 274 266 261
152 137 140 119 195 128 200 160 145 140 156 131 189 148 177 121 162 325 182 163 331 309 306 308 301 299 310 322 301 302 291 287 288 291 282 278 254 273 270 258 286 288 293 298 270
143 141 140 148 150 132 147 190 179 145 140 159 169 130 129 147 156 160 122 129 192 131 317 295 294 303 306 319 312 309 299 289 281 276 283 278 267 263 262 277 284 287 284 286 295
132 148 151 189 203 216 196 141 136 182 135 160 138 128 151 159 138 156 170 130 180 299 352 146 313 300 298 295 307 302 300 288 277 274 270 265 268 265 268 264 265 263 269 276 278
122 150 191 224 133 151 228 117 220 124 150 163 166 174 150 133 130 109 128 131 151 129 136 134 333 327 325 294 291 283 288 288 285 283 272 276 269 276 276 282 266 275 284 291 290
211 145 193 213 227 189 229 143 151 196 144 160 173 168 157 175 134 130 143 172 202 235 249 343 312 319 325 329 325 299 295 285 287 288 280 284 279 289 296 295 281 285 288 292 290

GFSSW_2pvu_pres_090.txt.gz
Presure
123 110 114 96 124 130 146 119 135 123 114 137 139 133 161 120 150 135 123 127 104 138 243 237 145 182 357 341 329 295 256 301 285 229 189 179 188 193 181 205 181 183 170 163 168
122 112 112 121 126 137 132 139 132 150 119 142 154 128 196 139 137 161 175 171 270 170 303 377 373 363 364 288 329 325 313 298 287 243 210 185 201 202 187 183 194 205 171 156 155
115 117 112 111 120 135 148 132 117 164 156 109 153 187 121 163 144 150 186 171 308 487 475 418 375 380 377 348 334 315 300 292 306 233 230 193 192 197 183 173 192 138 194 148 134
111 109 113 118 126 137 123 147 120 113 102 176 133 245 133 145 159 184 160 175 475 472 517 502 391 374 370 354 341 313 302 298 288 276 240 197 203 209 183 177 178 186 224 184 90
113 109 116 112 120 131 138 156 117 171 144 193 187 144 171 164 163 150 164 484 491 479 435 429 443 375 376 363 344 323 306 300 281 286 243 225 208 188 190 172 174 176 184 226 167
121 117 110 116 128 136 133 139 128 168 130 218 164 163 133 152 142 169 470 504 458 445 412 418 468 383 382 365 349 323 304 288 276 294 239 267 241 200 200 175 175 176 186 201 197
114 116 114 114 134 137 122 136 130 137 234 151 137 163 127 140 153 424 196 455 434 434 424 435 467 401 353 362 347 326 305 290 273 276 274 243 227 210 197 188 177 180 176 200 179
124 113 111 131 127 139 150 132 142 208 143 175 165 136 132 141 264 396 484 427 416 417 400 432 438 411 345 365 347 321 306 288 278 283 273 272 147 268 198 190 192 177 185 178 178
129 113 135 132 132 119 133 157 136 143 137 127 148 142 174 168 254 459 469 420 414 406 412 408 380 388 352 357 346 319 301 294 250 253 277 268 248 183 205 198 193 214 175 179 181
124 116 140 123 131 121 131 152 140 169 185 151 163 161 167 142 149 385 453 417 418 416 383 366 377 390 415 361 343 327 301 294 279 281 293 268 265 179 205 199 196 196 209 172 177
108 115 139 128 133 131 148 119 137 161 130 146 132 164 174 166 134 366 454 420 412 411 374 367 352 374 398 355 330 314 303 296 288 268 294 273 270 257 285 206 196 192 203 166 174
124 134 143 131 131 141 132 160 138 193 177 243 153 159 190 161 241 403 384 398 376 411 370 361 364 354 341 355 327 311 300 283 286 277 271 281 266 262 262 211 194 111 208 199 196
209 136 152 134 132 147 155 116 162 142 161 156 153 160 156 359 392 374 353 273 393 358 352 366 339 333 373 359 326 308 296 292 277 281 260 256 267 273 272 265 197 193 193 195 201
142 134 144 134 130 158 140 149 173 207 158 160 151 179 152 170 355 378 133 346 393 350 335 375 347 327 345 369 312 332 309 284 272 272 263 258 257 270 265 270 222 216 195 200 191
146 155 129 135 134 127 147 139 204 190 151 144 150 132 168 133 151 296 134 359 370 372 335 326 399 339 322 325 345 317 303 286 279 264 256 280 265 265 275 259 265 244 198 226 198
141 154 132 124 120 132 142 138 156 186 156 146 148 146 146 290 141 319 336 336 378 352 326 349 338 320 324 341 310 309 295 293 286 273 262 273 258 281 299 262 267 264 245 207 211
157 134 147 120 142 137 141 126 157 150 148 136 135 161 154 140 318 276 334 246 321 363 342 335 330 316 314 354 318 302 298 286 292 279 288 264 271 258 269 279 254 248 222 254 191
201 136 129 139 153 135 152 133 151 154 172 147 126 146 169 124 154 338 331 322 308 336 330 332 336 310 315 352 313 305 311 288 297 281 271 272 289 262 281 274 280 296 289 264 264
145 138 124 131 144 142 133 153 159 207 181 132 157 124 130 136 147 144 136 329 330 309 312 320 314 324 301 330 320 313 303 291 292 304 282 273 263 265 257 254 259 261 271 272 285
132 128 118 141 177 150 136 164 151 160 169 149 162 155 146 149 170 120 330 131 220 316 314 267 309 307 310 314 312 329 293 292 303 304 299 290 250 269 262 257 257 277 276 273 267
125 125 126 126 123 142 150 197 178 179 157 146 128 142 151 149 138 143 135 324 141 317 315 304 303 310 313 308 334 310 299 305 296 291 293 297 290 278 279 270 267 268 266 264 263
125 116 141 134 133 150 141 151 200 206 178 154 128 147 156 110 129 224 186 123 122 136 140 326 321 322 343 327 312 324 304 297 323 286 305 298 289 281 273 277 271 280 262 266 262
141 142 128 153 154 139 143 151 176 139 164 171 130 170 200 142 164 141 129 191 133 133 273 209 312 315 329 332 317 308 310 321 332 309 361 313 304 297 297 289 259 264 304 282 266
136 125 127 148 143 139 131 155 166 192 159 143 168 171 162 156 141 113 168 193 137 125 345 324 311 202 316 307 329 318 309 305 303 302 310 321 314 287 281 281 304 306 302 274 284
128 136 134 150 141 140 148 148 208 172 198 195 141 160 153 175 140 144 191 134 141 142 152 263 270 163 311 306 314 326 314 302 294 293 288 289 293 290 293 289 285 287 288 280 265
214 143 135 122 149 142 164 190 208 152 209 111 148 172 121 176 118 159 164 188 140 140 161 154 275 349 268 342 315 307 320 316 297 288 284 289 280 285 283 281 277 277 273 268 259
154 165 128 133 212 135 223 195 210 179 180 163 184 164 174 190 141 153 130 159 156 172 128 121 160 217 163 280 276 342 315 306 305 299 300 288 280 281 280 276 273 271 270 274 276

GFSSW_2pvu_pres_093.txt.gz
Presure
122 115 125 121 118 108 116 123 126 120 133 130 109 136 148 159 157 222 216 178 137 153 169 147 106 152 92 231 278 193 218 299 324 317 234 233 203 209 187 183 189 177 171 198 151
124 115 126 118 115 118 115 114 125 103 127 138 118 123 134 128 176 239 150 146 176 120 115 108 172 139 380 282 369 252 126 255 395 313 218 241 217 206 202 181 183 141 173 152 147
136 117 128 111 114 116 125 112 123 140 139 129 140 127 143 106 220 167 170 147 136 163 178 248 422 411 385 372 372 356 348 285 329 301 269 191 227 196 171 189 182 181 177 174 133
135 119 101 107 113 118 118 121 111 143 118 121 135 142 145 181 155 164 95 138 174 154 168 486 477 431 391 372 368 357 357 305 313 301 280 270 240 221 210 181 182 181 187 121 138
133 126 112 107 114 117 116 128 121 122 123 118 145 138 143 225 178 144 147 177 155 168 483 481 501 466 399 372 365 357 335 307 324 288 296 284 219 234 202 198 164 185 176 170 174
140 148 129 124 111 113 134 141 127 161 125 133 139 127 168 134 173 125 178 155 155 167 497 475 462 496 398 367 370 360 339 316 326 287 286 297 237 231 219 204 179 176 174 175 160
140 144 133 143 111 118 128 110 125 123 128 145 125 155 241 181 161 174 149 176 164 371 444 434 447 468 416 367 365 351 336 307 319 264 316 287 285 219 222 195 187 175 169 182 164
140 141 130 128 110 108 142 132 137 124 136 140 137 246 143 150 132 149 150 169 325 441 413 415 416 438 423 369 362 342 310 292 293 287 298 294 293 232 213 200 193 173 177 177 170
194 136 140 112 111 114 143 126 127 118 127 150 160 211 158 149 171 173 166 454 428 417 404 417 417 419 488 361 362 337 306 298 279 268 261 324 283 289 225 202 182 133 171 180 189
133 195 134 134 120 118 142 121 125 165 129 134 134 139 161 181 143 165 450 428 282 401 396 401 385 408 439 358 364 345 324 318 287 274 278 307 297 281 237 207 202 193 170 187 169
144 141 140 142 123 142 136 127 139 148 139 147 169 191 141 176 157 149 159 367 271 420 394 392 385 375 422 359 360 327 300 294 291 282 260 286 288 319 284 219 219 204 183 174 181
162 133 146 133 132 142 129 133 146 129 118 131 166 171 154 134 137 157 168 249 392 365 364 360 358 383 395 352 355 323 318 297 272 280 291 290 268 296 279 244 211 214 194 178 182
227 135 165 133 143 144 130 130 129 127 141 185 235 173 168 140 132 167 394 413 353 368 374 356 373 388 418 347 347 326 315 283 274 259 256 287 278 293 263 249 221 258 201 191 174
255 134 149 134 141 163 129 138 131 123 147 180 169 162 166 155 134 239 178 362 368 361 342 388 341 325 461 324 339 321 313 289 268 265 268 258 258 263 289 272 217 212 219 184 177
157 171 142 212 203 127 127 150 133 125 147 231 246 166 133 146 147 294 330 335 361 341 334 337 331 316 348 326 329 312 307 315 281 271 269 273 276 301 291 263 277 140 213 219 223
199 216 138 195 176 123 127 137 135 148 178 146 151 144 146 147 135 141 337 341 326 335 308 318 319 321 306 366 322 307 304 289 282 291 273 267 264 266 268 275 297 276 218 237 190
184 212 149 205 131 126 148 117 123 143 145 181 142 171 152 153 151 121 133 139 330 357 340 331 323 305 378 380 320 290 300 290 282 284 317 280 270 279 265 275 282 278 256 223 238
149 226 117 222 126 136 133 139 134 150 201 156 141 170 134 125 139 130 137 277 137 139 328 328 334 331 327 333 327 312 285 276 281 279 274 277 278 271 265 260 276 295 275 267 246
237 154 199 126 133 130 142 157 150 158 182 158 153 174 151 111 108 184 185 144 130 143 297 327 314 315 310 328 320 308 311 292 283 279 279 286 279 299 274 270 268 260 270 272 289
155 203 144 124 189 125 128 141 139 174 172 155 198 171 182 153 156 117 139 141 270 146 138 321 328 321 308 323 344 343 297 285 293 278 271 271 273 268 264 284 275 271 266 263 269
195 135 125 128 135 178 121 147 136 159 152 156 194 163 163 160 134 236 120 122 265 139 155 321 322 323 333 360 335 340 335 310 315 300 303 300 273 283 277 263 283 285 291 289 295
189 213 126 124 142 151 129 143 145 189 228 168 149 134 165 168 149 134 150 134 342 140 320 136 237 313 320 332 341 318 326 311 293 290 295 288 303 273 267 268 269 266 265 266 267
133 184 128 133 140 146 155 133 140 226 150 169 194 152 159 124 165 164 172 140 125 152 187 141 249 334 368 325 325 321 333 310 313 308 308 304 294 294 286 276 274 268 270 263 257
219 186 119 151 134 143 139 135 127 231 155 216 124 158 172 157 159 147 172 164 165 160 125 260 348 142 343 332 340 337 335 322 313 314 301 296 296 300 295 296 298 290 283 275 274
130 136 129 208 151 133 138 153 136 202 219 142 152 131 189 192 185 143 154 163 113 146 151 131 147 243 300 325 344 336 172 330 334 335 328 334 316 302 295 291 288 288 287 300 293
132 135 133 141 147 142 140 149 139 180 218 134 176 157 156 205 199 190 153 143 150 148 135 149 179 241 251 275 140 326 340 330 327 318 317 318 314 321 323 291 307 293 290 284 277
130 197 218 160 131 178 141 138 218 232 121 133 188 190 191 151 159 148 126 139 163 132 190 160 160 185 221 215 257 191 170 236 190 332 307 306 300 297 296 302 304 312 322 328 322

GFSSW_2pvu_pres_096.txt.gz
Presure
135 129 127 141 124 119 114 116 123 117 106 126 130 126 119 132 125 119 123 157 157 167 129 195 103 153 138 147 134 113 165 150 132 141 129 66 150 143 177 209 192 203 189 250 166
143 115 139 127 119 123 120 120 117 123 114 125 128 139 137 143 145 136 145 159 160 224 193 157 120 133 159 158 101 156 89 174 141 288 291 121 140 152 141 202 187 196 205 165 178
128 125 120 149 141 132 118 121 125 123 125 127 132 157 134 140 104 149 154 165 180 100 107 142 115 108 153 160 168 137 167 254 356 131 323 225 247 152 166 224 204 213 173 146 173
137 143 139 135 143 132 111 118 123 115 127 127 131 132 136 153 145 140 163 228 159 158 127 139 171 150 154 157 188 389 391 380 341 111 348 317 283 265 247 235 203 196 200 173 173
132 136 143 140 131 135 115 119 117 135 123 126 123 147 122 147 127 156 164 160 192 135 152 163 184 187 169 174 392 404 384 371 343 324 319 322 282 163 255 220 212 199 195 192 184
129 141 138 150 177 136 111 114 119 129 150 126 132 136 117 150 147 143 198 187 152 172 130 171 180 187 202 450 408 400 377 363 324 308 316 309 295 278 251 233 211 216 187 190 171
259 146 150 147 157 144 123 115 121 132 126 119 126 135 120 141 157 150 168 150 150 127 159 180 451 457 472 474 412 388 372 365 302 288 335 304 295 276 263 230 237 197 193 170 221
152 259 146 237 264 152 119 116 118 153 125 126 122 130 129 149 139 167 203 181 158 160 159 236 430 424 444 467 416 384 367 353 302 301 303 314 300 277 251 232 211 203 188 190 155
153 282 223 266 170 187 126 117 133 148 124 122 143 150 152 141 183 143 187 152 161 163 289 281 199 404 422 451 422 383 368 346 304 289 279 355 310 283 254 240 217 198 190 177 181
252 259 144 252 138 211 127 119 143 129 125 133 147 127 134 158 163 136 126 162 148 385 210 393 393 405 443 457 440 386 363 337 290 285 308 280 268 308 253 237 217 203 191 194 79
269 291 250 251 245 133 129 140 116 124 125 133 139 134 146 158 182 134 131 164 159 407 376 384 374 430 412 465 415 360 349 344 288 268 251 281 282 312 282 236 230 211 228 180 194
283 209 281 182 152 147 120 164 133 139 157 157 145 139 154 159 150 130 155 166 144 398 388 363 376 391 400 428 378 354 331 313 287 263 263 247 252 320 287 245 231 223 200 199 176
330 297 276 233 142 140 141 204 126 130 145 139 141 155 156 153 129 125 183 169 360 348 353 377 374 386 423 398 354 349 312 308 300 259 278 261 251 274 398 273 233 227 219 194 179
266 235 259 221 223 132 141 134 128 136 148 140 132 216 166 174 177 143 177 200 272 329 331 345 404 377 375 379 345 326 318 303 272 265 250 270 245 260 295 272 238 227 205 208 199
243 207 254 242 141 193 151 130 150 136 138 157 262 136 169 173 127 133 112 164 146 145 322 338 367 424 378 357 323 307 292 292 292 270 258 270 276 251 272 314 273 237 229 218 201
242 249 242 240 124 147 177 125 141 130 184 203 148 147 153 136 150 125 117 135 149 147 158 302 330 337 361 361 313 294 285 277 267 274 263 273 268 272 255 294 329 261 237 225 253
257 234 175 241 206 150 155 115 161 131 194 142 157 155 167 174 130 124 134 120 200 269 155 314 329 332 337 349 339 292 285 274 279 267 262 261 258 289 277 262 286 276 257 220 230
250 244 247 212 218 193 131 149 143 127 233 147 158 162 158 146 147 126 136 302 220 213 164 306 314 391 335 345 322 327 309 298 285 282 269 273 274 261 260 260 271 290 271 254 224
239 243 228 230 221 141 130 137 162 224 149 140 163 160 161 178 109 164 296 170 150 333 299 221 240 348 358 356 336 303 305 275 273 265 273 269 275 281 279 275 282 294 308 282 267
248 230 224 194 160 133 178 138 143 192 216 152 214 148 173 176 162 134 118 193 149 132 136 229 132 147 318 370 340 339 312 285 281 277 283 269 271 258 258 261 263 266 280 305 275
239 232 223 226 132 174 143 139 142 197 158 133 155 147 157 159 160 152 117 170 276 181 199 138 348 152 366 349 331 336 327 331 291 275 279 271 271 268 266 266 269 285 277 268 281
224 228 235 138 139 173 147 136 148 150 147 150 217 198 157 142 171 144 162 112 130 150 121 143 349 150 337 354 384 331 318 310 326 282 286 281 279 280 275 278 270 273 274 276 266
225 219 151 130 135 174 140 123 147 139 193 205 198 158 204 191 142 166 122 156 209 223 139 138 346 329 347 386 371 322 310 306 313 302 305 300 294 296 303 289 289 288 285 287 293
230 223 143 152 132 145 190 136 139 138 169 148 218 201 154 147 184 153 162 140 128 168 117 233 159 132 300 355 207 253 242 319 318 306 309 305 304 296 292 287 287 279 276 270 270
137 197 134 191 133 144 143 142 138 141 145 142 188 205 154 155 195 236 164 156 162 130 219 148 204 155 158 272 186 142 357 228 352 126 327 326 320 316 293 294 283 283 277 278 273
224 143 126 138 209 128 133 141 150 142 218 210 191 172 163 163 173 176 199 132 138 176 133 179 168 190 144 152 139 267 267 282 332 362 353 339 318 314 309 310 304 300 293 283 283
131 133 141 141 129 166 138 135 146 224 212 207 185 173 198 149 139 190 118 189 144 147 173 118 208 154 206 239 242 189 209 230 255 292 294 363 348 338 332 337 344 316 306 299 305

GFSSW_2pvu_pres_102.txt.gz
Presure
234 228 165 203 204 140 123 165 138 145 130 138 141 136 120 128 135 140 106 135 139 115 134 135 135 156 127 155 149 156 124 105 170 212 179 99 113 126 112 103 117 115 140 121 135
253 274 237 238 246 151 185 135 124 141 127 130 126 135 125 123 134 141 145 125 125 146 143 130 157 125 151 133 168 168 165 221 233 213 129 187 115 117 136 217 169 124 141 117 158
272 250 193 260 192 217 126 250 152 152 151 130 154 132 117 124 130 115 112 144 119 134 138 155 114 127 128 156 84 178 163 161 272 182 163 157 164 94 162 183 107 73 159 146 124
222 219 226 226 261 213 241 165 269 127 142 154 135 128 121 126 124 131 134 112 137 195 139 127 123 124 157 95 231 160 180 124 157 125 80 152 128 125 162 156 159 149 94 134 128
266 270 232 251 271 258 200 263 182 158 169 127 131 127 122 124 122 124 151 137 137 116 198 116 121 166 113 159 152 165 161 190 135 141 172 128 119 130 119 125 131 133 153 138 144
259 203 244 239 204 240 245 277 259 163 226 134 127 119 119 121 128 142 165 129 117 122 150 142 192 164 165 189 205 155 143 148 131 125 137 130 98 130 145 126 141 138 111 138 152
320 300 270 244 250 259 285 314 239 126 128 237 139 118 116 119 129 139 132 140 141 119 153 170 168 182 153 151 163 151 157 145 156 141 131 142 153 138 145 128 132 137 155 146 141
345 307 283 240 265 285 226 243 282 214 154 169 132 118 122 124 125 145 138 252 118 115 157 168 213 174 145 160 144 156 154 140 141 144 154 157 181 171 143 149 150 153 145 145 143
351 349 341 316 277 292 266 253 240 270 249 131 131 122 114 127 185 131 129 129 130 158 161 188 188 150 148 151 158 276 457 353 155 146 261 197 161 194 150 180 149 158 162 166 185
344 341 333 353 347 272 265 243 231 190 175 158 148 122 120 127 130 147 145 146 157 167 231 167 157 180 397 374 411 442 431 477 414 403 372 359 342 305 187 181 166 162 175 190 203
369 363 348 359 282 257 254 245 187 200 278 100 281 118 105 136 144 115 164 160 189 199 169 142 127 137 161 434 395 416 436 441 381 410 353 367 192 325 341 260 181 249 240 203 218
401 393 304 283 266 262 275 182 233 233 150 132 241 109 128 132 150 146 125 158 185 154 139 363 240 148 139 397 384 392 420 421 366 388 380 322 323 325 329 339 274 256 242 226 230
406 392 298 264 277 255 254 201 148 253 219 202 143 126 137 147 150 152 164 192 153 151 134 148 140 143 434 383 389 431 409 359 344 377 319 309 309 327 339 332 303 249 229 212 228
410 324 280 258 245 262 272 228 271 208 241 150 132 146 135 151 141 174 207 159 145 129 147 363 369 389 384 375 426 392 361 347 356 342 311 305 301 293 328 308 287 251 223 222 198
281 281 282 177 261 205 179 275 145 259 152 129 130 140 173 146 167 184 183 154 136 151 122 385 135 403 392 423 366 360 342 356 363 359 319 283 291 296 321 305 261 233 213 204 204
283 279 242 240 250 188 253 263 243 226 149 183 146 149 137 158 168 180 148 245 270 203 119 132 389 366 400 353 348 346 321 329 333 316 303 276 265 284 316 276 257 227 209 211 209
269 271 257 213 263 144 256 236 245 193 135 147 147 131 158 165 196 170 169 157 185 163 349 170 368 230 324 319 316 308 305 302 288 289 271 278 292 282 336 287 269 228 217 207 216
266 249 266 264 159 248 229 232 217 147 214 142 131 150 158 174 159 172 145 179 130 259 167 158 351 316 304 313 307 314 313 300 288 288 278 272 281 305 326 333 252 230 216 208 205
269 241 178 146 229 229 229 222 142 161 133 142 137 156 176 166 199 157 196 135 145 116 195 114 342 314 311 298 300 281 285 285 284 287 291 277 285 297 317 290 262 231 226 217 217
255 208 141 243 229 226 201 141 215 166 143 147 158 191 155 149 177 166 184 257 144 128 345 123 318 318 163 298 310 296 284 268 281 283 282 272 269 285 301 285 278 238 222 222 212
252 233 242 232 218 176 215 221 141 145 146 160 182 222 169 136 163 243 188 178 296 135 115 202 149 117 207 292 290 293 287 299 293 277 281 272 273 303 299 274 280 262 224 222 219
241 242 231 219 207 191 225 155 147 133 152 167 207 229 192 255 254 194 157 139 175 141 132 352 357 111 145 301 295 298 272 308 280 275 278 283 275 286 303 274 269 256 260 218 228
243 231 220 216 237 215 158 153 138 148 136 196 141 157 169 167 166 205 146 208 268 342 143 148 227 149 152 176 150 149 306 248 269 303 258 282 242 295 274 280 329 287 272 257 258
235 217 205 224 232 160 143 141 168 148 139 147 213 179 180 174 160 161 154 166 164 252 269 125 230 235 388 317 324 304 131 281 281 281 205 265 256 259 263 266 274 310 301 285 286
227 175 183 152 199 134 135 152 152 145 148 127 171 190 181 175 172 150 160 169 220 192 251 131 151 154 245 244 230 259 183 206 263 288 287 284 130 287 285 286 285 275 258 275 254
193 148 176 218 131 131 134 149 138 145 143 150 208 198 194 144 219 154 135 142 189 151 140 211 206 158 237 169 148 134 229 232 246 239 126 151 259 316 329 330 327 316 294 285 288
207 185 134 140 128 129 151 150 144 141 140 212 208 204 208 158 165 177 196 108 158 187 187 210 151 143 218 254 176 162 218 248 233 204 132 241 208 158 229 234 278 303 301 329 349

GFSSW_2pvu_pres_105.txt.gz
Presure
221 232 236 233 250 251 195 222 148 175 133 148 117 156 99 128 129 135 138 141 134 136 139 136 109 144 137 142 120 189 149 155 154 174 142 142 100 132 129 119 220 111 110 113 118
254 235 275 237 248 238 207 237 275 204 145 128 133 140 130 157 125 141 126 125 121 120 135 140 130 143 144 142 130 128 149 154 144 98 86 130 95 157 125 122 170 109 119 120 121
258 255 228 269 267 251 223 156 192 296 282 121 140 168 139 125 137 151 129 124 130 132 127 128 150 135 140 136 136 159 146 124 166 161 155 168 163 125 142 90 132 112 106 110 112
179 204 216 252 249 240 261 255 216 228 256 257 251 142 119 130 129 156 124 123 120 123 110 135 134 136 141 137 109 104 153 168 167 163 173 166 162 153 101 211 107 112 201 118 124
228 255 255 231 229 239 282 298 273 247 209 195 146 129 151 136 129 140 119 123 129 133 133 131 126 141 123 107 106 139 156 159 164 167 106 203 124 109 280 142 165 105 113 148 146
208 250 256 255 240 280 295 227 279 267 256 136 168 135 174 163 132 131 122 125 134 127 122 137 148 132 171 144 139 145 208 159 166 204 229 202 272 256 288 165 256 79 133 152 169
259 256 251 180 275 293 311 313 267 275 235 274 157 198 151 136 134 131 128 135 132 130 135 110 93 187 145 131 162 169 161 149 270 168 164 190 186 194 135 177 105 139 87 133 167
269 257 269 281 296 319 362 315 276 289 265 280 181 158 298 155 135 123 140 124 116 133 129 99 130 134 121 118 165 184 285 264 183 143 151 183 167 239 243 158 142 128 133 138 137
291 298 315 327 362 360 352 297 260 279 236 267 228 184 153 252 139 128 114 119 112 146 151 126 112 138 153 245 202 228 156 144 158 174 208 148 155 161 137 127 132 131 131 138 141
348 352 346 366 354 350 350 299 286 271 270 279 293 135 191 113 145 105 146 119 128 126 111 147 149 162 260 196 181 169 160 154 147 143 158 140 150 149 141 133 131 126 139 140 150
377 377 368 367 345 344 321 268 288 257 266 288 234 149 151 111 199 131 127 126 141 131 148 155 197 181 169 220 164 157 142 142 140 155 160 149 145 137 140 156 139 147 130 130 124
385 388 388 348 342 320 296 271 281 273 288 238 139 114 226 144 144 126 125 151 161 151 164 180 169 193 150 158 296 137 158 145 166 431 210 152 154 151 145 138 156 144 131 150 149
415 391 381 353 336 307 279 288 282 251 281 194 142 186 183 129 156 167 143 142 145 186 173 189 254 139 162 145 154 149 145 154 268 400 372 366 364 361 359 268 145 187 175 169 176
487 390 389 364 284 288 264 280 254 206 271 259 107 166 160 144 125 146 130 139 188 220 182 156 175 133 131 359 369 357 340 337 332 407 353 359 357 347 320 334 338 186 175 167 174
413 393 321 283 285 247 269 288 277 262 259 243 212 152 154 136 152 133 170 178 273 187 440 147 147 141 140 277 153 346 332 342 329 329 340 355 315 306 309 328 343 279 236 183 178
369 292 286 263 266 278 270 263 251 257 232 151 158 138 107 131 143 158 177 204 180 137 380 138 146 353 141 339 181 335 330 322 328 337 347 298 287 310 325 324 316 262 256 229 194
273 232 264 288 244 257 246 235 188 277 279 149 151 135 154 123 169 166 190 153 161 169 156 130 266 329 312 269 332 332 319 331 299 289 290 287 297 308 308 320 323 257 239 224 216
251 268 267 259 252 242 236 230 236 145 151 152 129 149 149 171 175 171 206 186 159 308 316 136 155 268 298 318 323 333 352 293 282 276 279 291 282 293 323 315 275 240 218 211 202
261 263 249 243 230 218 318 142 150 356 149 150 156 151 122 175 141 190 195 307 154 133 159 136 157 120 338 329 319 313 302 287 279 278 273 274 282 310 316 312 241 228 208 240 208
250 200 232 226 207 287 258 241 152 166 265 116 144 245 151 159 257 197 196 184 167 134 308 153 241 220 308 131 271 288 307 285 276 279 281 269 272 296 320 252 230 218 217 215 208
245 234 228 202 221 191 248 163 215 153 140 145 157 190 168 151 167 164 252 175 178 304 365 140 209 116 316 303 272 292 283 282 280 276 282 270 268 303 310 289 229 218 211 212 216
229 175 214 216 218 266 241 146 155 153 147 138 281 179 162 260 187 156 166 232 134 145 380 177 226 263 137 160 248 259 275 302 297 282 245 248 285 264 301 302 246 224 214 215 219
229 139 216 233 223 212 142 201 140 150 153 155 145 191 267 164 234 178 189 215 298 183 176 159 269 299 162 285 142 138 266 305 224 259 252 264 242 208 299 301 321 231 222 221 196
207 209 223 217 219 156 149 155 142 150 144 148 174 180 227 246 238 229 153 185 275 222 149 160 182 294 153 173 177 266 279 295 274 258 141 147 235 251 204 198 274 220 206 227 216
230 227 219 164 201 150 141 146 147 151 146 133 172 188 235 150 245 148 233 226 175 231 169 244 144 169 138 248 138 237 292 274 268 147 282 274 290 294 280 232 186 209 275 236 230
228 229 179 211 211 143 150 139 156 149 138 147 217 193 177 172 194 162 140 229 141 256 136 253 175 184 149 213 248 138 248 257 117 240 242 250 164 265 354 372 385 134 240 250 228
235 203 207 141 143 132 129 131 149 147 143 136 138 215 215 214 191 163 148 141 139 145 163 155 217 103 154 137 191 134 210 136 158 240 158 249 163 250 245 261 278 310 350 291 239

GFSSW_2pvu_pres_108.txt.gz
Presure
186 262 254 258 253 268 198 252 262 236 252 164 137 141 144 129 140 144 125 121 119 136 137 120 131 148 130 132 125 147 157 135 127 190 125 143 131 183 202 131 143 128 140 128 108
219 251 242 252 233 212 237 191 248 268 146 262 251 298 145 136 140 157 131 127 122 136 127 117 135 133 136 157 142 130 124 152 146 162 134 148 133 132 138 134 124 131 121 180 129
236 251 243 186 211 240 268 217 276 265 272 151 160 277 152 160 120 138 163 132 105 129 131 125 130 143 152 140 111 157 138 134 145 142 145 190 141 144 111 113 109 115 99 112 145
253 221 266 170 243 242 256 237 267 239 273 243 249 232 244 136 138 133 146 137 133 135 138 133 116 99 144 139 135 166 138 154 133 152 156 159 167 164 142 146 114 145 130 102 120
250 223 274 266 256 251 236 255 267 247 241 279 247 239 183 176 139 130 138 159 166 129 134 127 125 121 147 136 139 136 139 142 149 107 143 141 146 149 97 144 157 200 131 119 151
274 270 274 233 182 250 239 249 271 261 255 280 286 284 264 299 133 142 130 149 137 142 141 128 134 144 139 134 122 138 127 136 133 102 194 141 145 94 155 163 159 141 123 124 171
292 277 267 271 263 259 257 260 264 278 270 269 290 307 284 161 141 183 133 143 137 136 124 124 148 126 113 126 126 137 105 145 124 154 149 146 162 148 150 158 158 145 217 150 222
308 289 271 268 270 262 189 267 267 276 273 267 282 294 294 285 214 149 160 151 135 141 136 139 126 119 150 158 148 129 125 114 124 134 139 148 116 164 155 221 325 120 231 96 166
311 311 291 275 271 273 272 277 273 276 294 307 334 294 287 288 168 147 276 166 187 135 122 116 124 130 137 118 110 133 121 139 156 158 159 169 153 151 186 174 197 172 168 243 250
355 343 327 316 283 283 285 284 257 299 319 358 305 281 287 264 171 286 282 143 158 116 130 102 132 151 138 130 147 141 153 142 149 168 225 223 164 160 165 252 163 180 240 270 260
297 302 368 348 335 313 299 302 374 364 344 303 285 286 284 271 275 181 169 140 239 185 132 132 145 116 131 147 155 142 152 162 473 464 413 216 197 137 171 135 182 146 176 216 217
406 414 371 364 360 363 378 362 349 344 297 318 273 278 238 157 143 129 164 137 124 160 122 138 155 133 130 154 159 192 185 181 178 146 165 150 155 148 141 149 134 155 149 211 139
397 389 390 385 376 366 344 334 316 316 299 273 275 286 276 215 111 112 127 126 126 146 135 147 164 167 150 199 116 157 144 128 156 154 139 170 156 158 147 152 154 161 145 145 149
422 390 369 375 359 335 318 329 294 231 270 280 276 266 233 140 159 121 139 152 132 141 135 142 180 171 190 383 154 146 291 133 204 158 153 150 384 135 138 133 152 146 146 136 149
445 391 389 345 325 329 289 245 158 265 285 309 245 231 235 172 153 146 137 145 125 151 152 157 178 306 160 145 254 162 344 248 334 140 332 327 341 359 164 164 177 151 156 138 133
389 367 335 246 299 261 291 281 287 249 234 185 224 134 141 143 161 141 134 148 145 244 337 202 129 266 133 170 240 139 146 325 316 308 299 314 309 325 341 342 339 343 359 141 148
252 290 293 281 276 246 239 239 208 204 189 211 153 240 147 158 139 127 163 142 217 185 156 244 204 156 135 145 166 322 326 298 291 291 308 296 286 292 299 313 329 341 358 170 174
248 202 244 230 260 276 287 288 305 344 346 341 155 155 144 140 161 162 125 188 178 214 215 189 311 343 329 190 230 290 290 282 276 290 297 297 281 299 296 316 310 332 335 276 179
256 240 225 294 323 133 301 371 186 156 329 152 140 133 141 139 154 141 201 202 167 178 151 162 350 147 141 293 130 282 282 274 275 280 289 297 299 303 316 312 318 341 281 213 246
255 206 261 354 202 381 377 175 168 149 156 141 139 140 158 153 163 297 195 248 151 239 142 244 293 142 228 182 121 289 283 275 275 270 281 289 302 315 329 337 311 307 254 221 230
172 250 187 278 282 245 151 167 141 283 144 131 211 145 360 170 165 162 197 328 251 191 159 147 138 209 290 173 290 284 278 283 280 252 280 267 285 289 290 277 309 306 225 222 225
204 240 225 192 222 276 181 147 181 144 142 163 232 162 165 194 156 159 349 384 305 281 142 275 273 272 109 295 254 236 288 266 223 269 255 273 279 276 277 288 305 308 241 229 249
228 189 221 237 237 198 147 131 148 134 141 135 250 237 279 181 209 158 166 263 171 173 176 245 153 172 235 191 273 253 247 256 253 259 228 260 263 284 272 266 280 279 261 243 233
180 207 202 198 240 201 129 146 145 151 148 148 203 195 165 184 157 245 173 227 185 193 290 159 280 148 266 135 227 276 204 181 178 209 282 273 270 183 278 265 283 294 232 216 236
208 202 200 199 140 138 155 145 139 144 141 148 254 260 217 160 150 147 236 235 144 135 164 179 218 126 286 224 197 154 264 274 131 186 319 315 258 276 205 245 198 216 230 219 228
200 173 216 140 144 143 140 151 158 146 148 147 169 225 193 188 195 158 242 137 175 243 135 203 208 177 173 210 257 266 135 178 263 134 261 139 185 281 293 245 287 232 208 221 243
168 213 188 161 201 130 129 148 148 147 139 142 134 186 140 166 176 144 149 152 177 158 141 208 179 198 172 174 145 242 180 145 236 245 200 250 224 137 278 281 239 268 223 210 248

GFSSW_2pvu_pres_111.txt.gz
Presure
204 213 220 231 210 252 247 247 245 269 255 244 247 181 233 224 171 154 155 129 135 165 133 130 136 129 139 141 159 173 146 120 167 147 170 151 136 187 102 150 125 140 127 132 121
228 234 234 239 202 233 251 237 244 224 271 264 236 242 251 226 161 152 125 122 141 137 137 147 124 129 142 130 148 138 117 145 161 175 178 133 138 129 139 148 141 107 140 97 144
240 203 232 225 172 251 227 239 201 261 227 266 255 270 280 258 256 146 141 126 158 132 124 133 149 129 134 133 150 150 146 132 139 160 148 207 134 132 128 125 180 134 155 140 152
245 247 238 170 225 233 256 248 239 275 260 264 222 256 261 255 198 272 153 131 130 161 131 101 132 138 111 134 157 155 141 139 72 148 154 160 155 143 126 185 139 135 115 140 134
269 264 257 251 250 257 248 249 258 253 276 210 249 251 213 284 261 280 146 132 142 152 160 133 127 148 123 151 131 141 147 145 117 157 147 146 138 177 141 134 179 165 161 145 148
233 298 279 275 267 259 254 261 263 270 273 246 268 256 266 274 252 298 274 152 114 135 138 161 138 134 143 142 128 130 143 132 135 148 154 141 145 121 130 104 103 81 142 136 104
244 267 238 258 272 267 265 169 270 276 172 277 272 270 249 284 229 270 274 251 152 139 141 119 174 104 111 142 134 155 151 134 126 138 109 141 135 68 132 154 153 160 154 99 145
336 294 291 300 289 287 276 272 279 274 276 277 265 264 273 283 279 268 282 305 160 119 168 148 139 139 146 146 147 119 128 126 134 97 87 134 125 121 113 159 149 133 133 117 146
415 393 323 306 303 301 297 296 285 275 273 278 278 269 271 274 237 296 307 234 269 151 148 136 115 145 154 142 124 127 108 140 134 142 145 123 78 136 138 153 134 131 145 152 155
389 385 309 324 321 314 301 295 290 277 275 280 285 280 277 282 263 181 263 256 163 152 165 162 143 164 104 124 129 132 133 156 155 131 130 129 133 141 145 141 145 142 143 155 150
375 371 373 357 276 310 312 294 296 288 288 283 281 282 282 294 330 313 297 244 299 142 131 164 152 160 148 133 134 106 132 156 171 140 135 134 142 145 156 160 159 152 152 163 153
433 353 350 363 300 333 324 302 313 302 290 287 295 293 326 322 306 274 259 203 149 272 163 164 138 131 125 137 141 143 146 136 138 143 148 149 147 169 158 154 162 159 154 154 148
413 355 344 353 327 310 348 347 333 352 340 328 344 320 309 292 289 206 306 207 209 126 130 130 207 109 132 138 148 161 141 152 157 159 163 161 162 161 159 134 131 158 168 181 136
391 414 379 374 356 348 351 355 361 355 334 312 303 289 294 302 298 117 138 139 133 173 121 101 143 146 139 141 140 169 174 167 168 183 126 125 130 138 167 137 206 174 301 140 172
399 387 371 390 365 361 349 339 310 294 305 250 283 291 274 285 125 129 124 154 154 339 165 153 150 137 146 157 158 176 198 148 205 137 191 321 198 354 152 150 164 141 164 134 133
387 378 362 345 314 286 286 265 267 272 296 236 291 278 203 216 203 211 132 146 159 158 149 156 147 151 272 279 206 132 206 147 229 147 286 315 321 329 344 273 248 144 157 164 137
265 267 272 279 260 254 254 255 247 253 250 226 149 124 131 278 360 233 148 139 156 157 159 150 297 302 139 132 207 131 317 142 291 308 290 294 305 299 312 335 352 363 391 283 149
226 253 275 270 267 176 273 273 277 273 160 172 151 147 220 149 157 144 145 144 148 144 292 202 169 283 115 280 131 277 261 291 302 300 304 309 307 312 294 315 326 345 326 296 287
358 344 357 354 354 354 352 178 141 144 189 193 190 162 113 151 140 149 169 142 170 205 275 219 282 298 143 238 126 256 250 197 292 304 300 317 310 299 306 321 303 299 314 301 304
339 345 323 195 242 365 207 149 243 361 147 148 128 133 156 158 249 234 175 309 273 170 302 173 237 138 288 229 142 269 264 281 278 292 276 281 308 296 289 310 300 282 291 282 289
277 275 227 246 287 246 178 156 140 142 141 142 173 143 183 274 149 187 141 141 187 309 168 279 200 142 207 158 249 152 274 272 257 268 276 265 283 271 267 285 291 304 264 268 284
214 230 163 254 226 148 143 164 135 140 134 205 365 165 361 161 158 284 283 276 183 167 176 268 152 259 133 261 204 137 269 261 273 259 254 256 265 261 265 284 292 274 289 267 253
197 221 245 144 145 142 152 140 142 172 138 135 150 196 170 279 149 230 160 286 212 250 269 185 255 268 176 157 279 245 274 275 268 275 269 260 258 264 199 275 285 261 274 253 257
203 182 201 135 171 145 129 146 150 141 235 231 212 173 230 156 311 182 212 297 209 221 293 152 218 214 285 230 280 206 286 239 167 145 210 281 237 183 267 276 281 235 192 269 232
190 204 195 192 141 132 139 130 134 139 143 240 214 245 235 173 172 166 141 249 245 183 266 220 150 270 263 133 258 252 168 135 141 324 309 288 284 191 293 285 293 242 264 241 237
200 195 159 144 135 130 142 134 151 146 138 142 246 238 189 231 149 157 131 178 178 254 171 245 174 191 187 108 250 164 250 193 247 248 263 202 268 275 238 308 229 191 307 283 192
211 212 199 191 142 124 129 145 148 140 141 146 201 196 165 171 147 150 192 175 165 172 178 137 196 193 190 236 235 234 213 208 236 254 106 239 256 119 231 175 248 198 232 137 278

GFSSW_2pvu_pres_114.txt.gz
Presure
226 219 144 143 195 227 220 230 239 223 235 251 241 245 200 146 205 217 174 162 201 145 158 153 143 153 144 164 144 154 166 116 146 153 147 101 151 130 104 112 109 147 135 119 131
234 225 204 209 194 239 206 231 212 244 234 229 248 257 231 251 238 197 239 202 206 160 140 158 142 131 160 150 176 174 191 157 159 159 138 163 118 149 104 99 127 105 127 130 114
254 232 232 226 229 206 230 230 220 232 194 246 237 265 266 250 212 267 194 226 183 148 160 131 152 145 191 152 136 143 155 176 161 196 106 162 169 164 109 190 136 125 108 139 150
281 250 243 236 239 229 235 207 234 221 218 235 249 234 264 256 251 270 233 278 292 239 153 140 140 147 176 145 185 146 141 164 149 149 158 134 126 117 151 129 207 103 164 118 135
274 258 239 257 245 244 239 249 229 241 250 242 202 252 246 255 233 272 267 275 296 249 131 149 139 140 128 170 152 128 135 142 123 156 183 131 152 156 135 142 126 158 131 133 128
266 256 268 269 236 260 254 252 253 245 257 252 221 251 267 261 264 261 289 278 287 280 133 130 143 164 87 141 144 144 127 133 155 162 148 153 140 159 141 141 149 225 141 145 126
323 269 280 270 239 270 295 279 252 267 190 252 264 269 273 263 265 274 291 291 254 288 153 155 145 144 130 132 137 181 139 140 142 137 150 132 126 93 142 155 144 142 143 173 146
438 361 303 269 264 234 230 241 273 264 269 265 270 274 268 274 287 286 291 242 283 284 137 271 149 148 154 164 138 139 126 126 137 149 143 124 129 118 130 134 137 133 141 129 136
387 422 420 331 268 257 264 263 276 264 271 273 266 271 282 289 289 218 204 285 279 170 132 129 218 144 152 144 173 141 134 146 140 146 137 115 136 102 98 127 99 124 129 130 142
387 404 408 287 314 303 264 278 275 287 277 281 285 287 288 281 282 285 292 172 188 297 280 142 185 155 148 149 142 155 146 151 153 133 131 129 90 143 140 124 143 125 143 129 138
372 370 371 363 380 320 277 303 272 295 290 294 293 283 204 289 277 287 283 135 142 142 162 343 132 150 114 125 146 175 133 144 136 133 128 124 135 62 154 127 137 206 133 128 147
361 364 365 355 369 335 322 294 309 305 298 307 274 296 291 275 283 284 274 305 326 343 318 269 151 194 300 229 132 129 134 132 135 110 118 129 138 154 148 134 135 141 144 145 162
371 368 346 339 349 355 326 335 312 319 310 300 298 299 299 288 295 297 241 144 313 235 219 282 274 368 177 128 142 131 135 100 138 140 147 132 151 165 166 148 144 143 149 165 158
358 357 370 350 350 353 348 347 340 320 315 306 311 331 319 317 319 318 286 301 196 302 337 151 138 128 301 133 135 327 171 143 153 154 155 156 150 152 158 158 153 158 151 146 181
357 353 348 348 362 367 364 365 371 377 366 352 320 271 318 306 288 284 256 255 157 181 126 125 123 134 137 142 143 134 151 149 149 155 160 164 167 164 161 124 126 120 118 143 119
308 320 328 331 330 317 312 310 305 302 279 292 307 264 284 264 214 115 122 122 127 131 142 295 193 219 154 152 159 159 159 162 167 156 164 138 142 135 133 154 138 136 172 332 202
300 282 287 279 261 256 277 294 267 278 265 262 259 285 173 324 213 122 158 240 140 161 225 174 150 155 156 157 152 127 193 178 240 134 253 280 314 247 248 253 380 374 170 164 144
365 351 348 353 297 296 292 281 331 337 224 177 141 112 117 341 162 157 160 202 161 133 148 157 161 155 160 302 222 144 123 128 129 307 144 323 306 307 311 313 328 321 299 323 292
199 207 359 359 181 188 279 314 166 117 150 218 213 216 161 158 149 142 155 151 141 165 174 194 248 299 177 165 189 123 192 148 294 167 305 294 292 284 291 287 287 300 291 286 281
185 190 265 235 243 254 182 170 364 370 143 139 145 141 152 151 146 215 244 242 247 172 222 273 281 258 274 208 135 137 147 208 280 287 298 285 282 269 277 272 270 269 275 282 267
193 200 170 259 263 341 193 135 136 139 131 119 139 142 155 228 178 200 254 280 205 213 189 183 290 244 149 152 247 229 159 272 269 260 271 272 272 273 276 261 267 258 268 259 272
181 187 234 138 126 126 133 143 134 185 163 158 159 242 296 271 153 187 258 164 288 171 262 197 277 274 146 272 174 268 241 275 276 262 265 280 249 261 260 276 256 257 271 269 259
193 177 134 160 148 139 151 212 168 132 140 141 194 254 288 213 149 277 288 184 298 194 174 177 210 292 287 285 285 136 242 141 268 268 268 276 280 267 269 251 264 259 266 261 256
178 141 153 144 135 135 136 155 190 212 284 176 234 253 151 192 185 255 156 230 233 283 169 163 196 184 165 233 328 233 196 227 272 271 195 146 188 282 263 259 260 263 269 260 281
171 205 132 143 133 143 143 137 139 185 193 261 250 150 188 223 212 188 143 175 204 162 227 213 244 216 232 251 188 257 278 270 173 137 203 279 266 284 288 187 263 255 264 274 269
227 227 134 142 140 132 132 136 135 138 185 243 219 193 186 204 181 203 141 179 175 243 157 176 245 226 166 164 148 162 158 208 239 248 226 177 288 298 315 111 326 255 237 263 261
219 142 163 133 133 135 173 146 145 137 131 141 232 210 172 129 142 163 182 180 213 164 123 149 200 214 159 160 208 154 246 239 208 162 231 225 146 161 238 259 283 253 299 203 243

GFSSW_2pvu_pres_117.txt.gz
Presure
243 257 222 212 202 166 215 168 219 215 226 231 227 244 220 259 238 166 144 192 154 152 134 151 106 132 134 151 124 188 119 136 148 158 135 116 135 124 117 139 133 133 122 115 143
229 224 188 249 239 205 168 186 219 207 203 163 225 249 232 234 260 243 139 144 160 156 153 170 146 141 124 121 148 122 174 156 187 148 153 122 145 110 131 149 150 144 126 164 136
249 224 181 204 230 156 197 223 197 167 205 229 234 226 238 238 256 256 261 256 143 176 190 164 130 150 127 135 144 155 151 142 120 151 163 155 189 165 168 107 124 100 163 105 143
255 237 237 262 235 248 241 230 227 157 166 216 228 239 218 239 248 250 240 266 270 215 153 195 127 171 134 142 147 146 190 158 166 145 185 169 182 215 159 169 170 170 137 168 97
356 330 252 265 209 243 234 239 236 186 220 225 204 235 228 223 235 244 259 242 259 238 258 216 291 233 147 146 145 137 141 157 166 161 155 196 175 177 175 171 159 114 119 156 133
341 353 332 231 243 257 244 236 238 244 238 234 221 241 232 226 224 238 253 261 265 260 274 197 285 209 204 155 148 140 155 156 169 167 165 153 168 91 127 137 115 143 160 136 136
372 348 339 266 264 246 259 210 250 248 237 244 232 237 226 242 235 240 251 247 272 272 278 265 287 295 155 154 181 134 152 119 245 139 158 160 143 155 163 161 109 155 133 139 133
379 391 348 282 268 249 247 253 245 256 254 246 251 243 250 244 256 239 204 267 270 277 293 286 276 280 183 135 152 151 129 162 131 144 136 140 110 143 129 142 142 140 139 141 95
393 384 415 330 269 270 260 256 254 255 248 253 249 254 261 260 262 267 267 276 268 283 292 274 126 303 140 147 139 108 139 132 147 151 141 132 135 140 137 140 108 124 131 84 130
378 399 435 252 317 304 274 265 256 254 249 255 265 272 285 281 280 278 283 284 291 294 297 309 302 134 161 240 134 140 126 136 146 133 133 127 90 138 144 139 120 134 133 135 127
393 410 408 399 333 282 282 264 272 270 217 271 238 251 258 267 291 281 286 295 301 315 306 304 304 305 149 149 144 344 159 158 136 143 124 135 147 127 141 82 142 141 132 108 91
357 369 361 343 380 305 275 278 263 266 252 257 256 255 283 297 294 299 304 305 314 293 302 301 313 164 177 167 218 128 153 151 159 173 150 148 87 90 114 136 138 129 130 124 135
345 341 362 359 368 342 317 325 275 248 281 300 277 237 292 299 306 316 314 302 298 313 147 324 302 178 137 144 279 253 124 146 172 140 156 132 134 132 128 133 138 137 138 136 127
335 327 328 355 361 367 329 337 308 322 315 311 310 313 311 320 310 306 321 340 305 143 151 335 280 350 155 154 207 157 197 139 135 137 131 112 112 137 138 133 129 127 143 152 159
367 340 317 336 347 350 331 334 333 337 332 315 330 332 318 315 335 308 281 281 369 385 371 136 225 343 343 243 328 154 128 120 126 138 141 141 154 184 163 144 149 158 165 144 154
306 288 318 333 365 376 377 375 376 387 367 372 355 342 326 288 266 296 364 371 270 218 346 283 162 265 126 132 209 133 140 146 167 158 152 144 143 146 149 150 153 155 155 154 155
365 342 322 308 293 283 255 276 280 282 271 258 269 282 290 291 375 344 327 303 240 300 197 125 127 129 131 162 153 150 156 159 157 158 161 164 166 143 161 145 148 130 144 180 158
382 307 364 360 353 278 350 337 305 329 348 345 360 361 331 211 220 285 273 124 129 129 158 155 151 144 148 160 158 150 152 168 193 127 179 134 184 277 137 222 315 319 304 179 129
188 279 351 367 334 142 150 332 185 198 192 141 126 146 173 157 156 158 182 153 151 146 137 154 159 173 164 286 292 201 206 132 174 123 287 212 141 294 291 299 299 290 288 295 180
197 175 150 163 294 278 164 276 174 220 282 146 149 151 150 146 145 183 195 218 248 277 259 172 209 276 235 265 273 171 239 159 276 209 272 286 278 275 286 285 275 279 275 282 289
162 182 211 144 153 144 132 142 138 133 142 304 152 152 255 157 212 156 174 249 218 278 285 276 281 262 281 258 185 280 147 178 131 112 245 209 285 184 273 266 273 259 281 276 270
135 144 137 142 135 203 135 183 313 160 297 160 166 182 269 158 168 170 274 283 290 290 293 162 223 274 163 272 156 129 264 198 212 154 284 264 260 286 158 262 266 274 264 256 258
134 149 128 134 128 144 183 191 147 139 152 183 153 170 267 293 149 140 295 203 213 247 174 159 281 345 286 180 279 276 265 244 278 281 280 254 264 276 177 268 221 278 258 261 263
149 129 131 134 139 134 133 205 240 246 176 175 175 228 201 218 236 216 150 243 224 200 244 178 234 204 202 196 177 252 263 204 165 282 281 272 218 285 276 262 277 254 270 265 258
226 138 127 124 138 125 130 137 198 234 168 171 208 193 224 183 170 174 180 232 229 174 173 231 137 173 166 202 173 149 236 236 202 294 295 140 137 265 265 279 282 275 253 269 253
133 128 135 136 127 126 145 139 136 135 208 208 179 205 177 227 242 184 137 160 231 150 177 199 239 166 152 187 157 225 238 188 138 165 250 193 312 327 276 261 259 269 261 253 257
198 178 132 137 133 168 139 138 139 132 175 137 179 180 180 167 135 136 216 228 230 222 214 154 213 192 222 228 171 169 221 164 159 156 165 189 225 150 272 245 163 262 226 255 225

GFSSW_2pvu_pres_123.txt.gz
Presure
245 252 206 276 242 246 254 248 227 212 214 211 238 236 201 239 226 220 184 158 142 133 166 151 185 149 121 123 126 132 134 159 140 148 116 130 133 104 151 137 124 155 146 143 125
173 232 194 179 243 259 274 250 238 222 227 189 223 236 230 221 224 221 166 186 177 195 178 143 154 192 123 154 124 120 131 152 133 148 124 117 134 135 139 134 121 150 157 167 158
331 302 195 245 220 232 238 252 245 235 147 157 210 215 233 227 197 214 238 194 219 187 162 183 125 143 155 144 123 162 142 138 119 148 131 140 153 133 146 141 156 131 108 126 132
371 327 290 279 259 256 257 231 241 235 223 159 215 170 182 235 227 232 229 191 210 204 193 218 198 186 201 186 158 103 133 151 111 120 131 136 138 148 135 140 159 162 117 117 105
381 317 316 239 253 243 246 209 254 242 233 222 222 210 189 207 231 232 202 233 237 243 217 182 229 230 199 192 184 135 176 141 145 115 110 143 156 138 166 123 151 126 118 135 144
361 371 369 268 260 250 255 240 260 250 241 239 226 228 215 204 223 217 229 237 213 233 249 227 220 270 258 171 193 173 135 142 177 143 127 118 177 127 125 159 135 145 136 114 132
377 380 296 333 327 262 257 244 235 260 251 237 242 152 160 187 185 224 234 219 207 242 236 238 236 242 259 264 271 273 192 216 197 197 123 131 147 143 147 151 166 154 178 110 99
376 373 371 305 259 262 242 241 250 244 254 253 245 244 232 225 218 220 215 216 239 238 179 191 236 246 258 260 261 256 254 254 148 282 152 155 148 146 149 145 143 161 126 173 161
356 394 363 367 274 252 246 254 231 241 243 238 246 246 242 248 240 232 243 220 214 227 221 246 202 237 239 241 248 260 260 257 183 215 206 189 136 141 122 173 168 138 165 174 175
347 337 340 348 353 263 263 207 251 253 247 221 240 255 249 249 250 249 242 227 230 197 235 236 254 250 252 261 280 269 273 286 295 303 263 287 126 300 157 170 171 168 155 158 148
311 321 328 328 324 308 256 254 245 223 201 233 223 243 213 216 258 261 262 256 257 253 250 256 261 265 269 276 280 291 292 292 295 302 334 265 105 150 355 159 180 163 155 145 143
311 313 329 318 320 313 263 259 255 239 238 235 233 236 247 236 246 269 271 264 268 271 274 272 268 278 276 273 283 287 305 355 360 350 343 237 371 218 328 146 145 141 151 161 142
336 317 342 320 323 308 300 263 254 250 246 226 243 247 238 268 245 241 250 260 270 279 280 273 266 260 272 291 371 401 383 360 379 386 364 264 261 84 82 107 144 137 117 157 85
321 325 344 351 319 327 313 326 319 308 258 265 248 232 254 252 256 271 252 246 255 279 260 274 285 355 375 362 378 361 360 355 364 387 359 258 150 127 141 150 164 141 134 150 159
331 342 325 326 343 310 326 184 331 277 295 228 249 255 258 246 235 249 252 266 275 292 391 371 366 356 350 347 349 350 330 333 329 140 154 245 135 131 136 133 143 85 112 147 164
374 320 330 335 335 331 337 323 314 311 310 285 289 277 275 277 271 275 303 353 335 339 294 335 331 332 324 319 292 311 302 249 262 147 154 149 142 151 101 152 150 167 175 170 142
366 317 338 310 322 359 354 360 357 343 358 340 280 315 313 364 338 328 318 304 313 325 332 323 263 300 302 304 295 292 297 286 289 223 288 245 231 138 149 259 151 142 142 133 131
232 394 381 361 352 333 286 372 341 377 340 328 367 330 321 310 308 301 300 302 306 292 320 296 254 289 289 282 287 279 160 267 177 133 191 300 300 307 158 135 134 140 136 138 141
149 186 188 145 143 150 152 374 384 375 177 155 164 214 172 304 283 178 179 237 258 287 193 190 167 267 237 268 144 138 280 281 292 291 188 142 131 139 133 140 145 154 160 160 158
146 148 142 140 139 137 134 140 257 182 148 148 148 185 148 150 229 153 286 208 225 278 226 205 155 155 156 155 155 158 147 132 138 150 137 136 193 152 273 276 277 287 300 312 248
171 194 177 221 208 211 238 226 241 167 231 151 142 176 191 117 122 175 137 248 286 241 231 129 225 261 227 259 173 136 152 193 139 269 240 170 225 275 271 228 140 121 206 230 296
157 127 285 266 133 161 153 158 178 158 212 159 159 159 145 147 186 256 262 260 251 257 258 255 168 173 158 287 286 277 288 266 272 172 158 279 274 244 273 108 121 150 268 270 264
134 154 142 150 289 126 216 211 194 173 183 166 206 154 157 217 166 164 189 243 215 199 168 222 165 241 249 256 218 288 285 188 256 284 176 171 280 255 261 140 153 174 243 261 274
137 187 131 125 141 141 283 180 224 201 198 205 169 168 142 211 166 166 137 163 232 182 210 236 235 147 238 198 244 244 202 283 214 215 272 252 264 201 259 149 131 137 251 237 259
127 131 135 130 131 168 134 135 155 167 215 216 150 207 180 206 189 142 188 194 180 211 221 195 184 168 164 161 173 220 226 217 165 250 269 261 234 138 260 237 196 260 253 274 258
151 134 131 132 135 131 138 133 131 131 274 247 227 223 206 198 143 196 195 143 187 154 204 181 152 184 123 172 167 159 208 169 209 200 163 154 167 138 153 120 145 143 251 244 276
168 191 197 137 135 204 177 138 141 134 127 140 229 137 237 160 215 149 207 205 159 202 204 186 196 209 195 207 204 183 178 177 170 157 169 178 159 170 222 225 185 242 207 253 255

GFSSW_2pvu_pres_126.txt.gz
Presure
276 260 241 231 210 229 234 248 247 219 212 206 175 217 222 194 206 218 152 191 145 186 190 161 130 115 118 123 122 118 126 135 139 147 128 129 156 142 119 150 111 153 118 121 141
350 273 213 233 235 235 216 227 257 233 199 218 196 191 215 227 240 194 212 202 193 182 146 194 175 150 124 120 135 131 129 125 129 132 147 139 131 124 128 146 145 156 145 153 124
315 350 256 237 204 238 216 228 238 253 141 224 224 218 205 212 183 232 243 219 193 181 205 190 156 186 189 155 201 195 133 129 127 132 135 137 149 139 133 130 114 146 152 157 161
372 319 330 280 241 195 224 235 231 217 236 244 189 232 226 200 193 196 235 233 239 223 229 203 190 153 187 171 179 159 185 138 142 136 138 121 146 146 141 113 121 140 127 132 135
358 336 334 361 230 231 250 203 215 212 226 211 231 237 231 213 213 204 213 216 239 243 218 222 216 189 194 144 198 196 210 175 132 139 135 141 141 132 149 138 144 136 138 148 172
378 380 257 353 275 265 231 224 239 240 234 244 238 240 229 230 209 222 204 211 235 231 240 239 226 214 166 213 130 163 190 214 184 128 113 117 141 148 133 141 140 134 137 143 151
388 371 397 300 337 278 267 191 220 212 240 251 257 250 143 224 184 161 228 233 222 240 232 238 244 240 232 224 247 225 144 160 199 194 110 121 148 148 120 130 150 149 123 127 140
366 338 386 323 339 325 245 236 250 199 245 238 253 254 245 235 233 170 229 216 224 227 204 241 252 250 250 254 237 212 231 224 138 229 205 138 146 148 149 133 147 137 132 127 189
356 381 371 376 280 192 247 252 249 245 246 237 223 266 253 246 244 234 223 233 204 223 213 211 224 240 240 258 268 272 250 243 265 244 276 206 139 90 188 140 132 170 148 140 162
342 352 368 329 271 334 308 277 231 233 233 220 231 255 254 242 242 242 237 228 231 244 195 218 212 229 199 231 238 245 246 252 264 199 295 270 271 295 135 158 136 142 138 149 143
326 349 348 366 266 325 333 270 249 249 264 250 238 244 254 255 250 246 242 235 245 244 242 246 243 248 254 262 259 245 205 267 274 280 284 281 307 143 138 248 343 159 142 147 154
326 340 341 355 284 285 316 321 262 254 252 202 254 220 210 259 252 255 257 242 238 228 261 265 271 270 267 275 275 276 281 141 283 283 289 319 340 86 371 431 262 396 170 151 170
320 319 334 322 294 285 294 290 274 270 256 252 255 259 225 236 234 242 248 230 253 256 232 236 249 263 265 270 278 279 288 307 315 361 382 405 386 351 253 176 437 445 454 367 197
333 321 319 316 304 283 267 266 300 252 250 245 238 236 245 248 221 250 239 235 226 250 246 262 267 277 285 299 300 359 388 396 381 365 351 345 343 338 346 358 221 162 159 250 146
333 326 333 328 319 342 279 268 270 276 278 249 253 247 228 261 229 229 233 231 245 261 276 255 269 303 378 364 350 336 339 332 326 339 350 353 354 343 307 142 345 189 286 140 144
322 327 356 342 328 326 336 338 270 249 250 229 232 237 223 227 230 241 248 254 265 284 319 353 356 349 322 324 315 311 305 306 305 308 316 322 323 309 143 303 201 150 136 143 137
163 220 334 378 372 358 334 342 335 336 334 321 299 266 277 257 272 270 300 303 336 340 342 332 319 312 311 306 292 289 289 307 300 294 264 283 287 152 235 184 117 165 156 163 170
220 229 182 153 211 192 370 379 388 399 355 343 341 326 340 338 334 333 330 336 323 317 313 298 279 265 279 273 260 262 270 271 226 262 138 150 145 142 163 146 152 278 156 150 151
136 234 162 214 248 163 357 177 150 152 152 330 330 320 312 313 300 309 327 300 290 273 272 277 267 255 244 260 238 264 265 253 274 255 268 210 138 260 157 225 282 306 323 137 129
169 195 147 171 136 136 156 187 138 150 164 212 147 218 150 162 156 235 155 261 256 212 237 162 200 158 277 161 223 209 216 271 212 252 264 266 274 265 200 131 135 134 136 141 142
143 157 181 161 163 173 201 178 176 163 167 161 247 228 168 251 263 262 222 257 253 250 223 246 199 243 139 242 283 239 240 159 227 164 132 132 133 133 135 136 140 229 257 283 284
117 130 225 229 183 277 188 149 167 200 213 197 150 154 211 192 168 244 167 231 232 236 238 243 241 247 174 166 279 272 277 290 262 261 264 261 244 270 269 200 280 267 110 274 150
134 180 131 187 156 205 220 182 262 241 217 193 197 159 174 152 155 198 209 174 165 166 213 214 186 178 225 230 240 302 277 284 270 272 275 276 181 158 260 242 162 177 266 232 232
137 130 127 132 138 133 169 193 222 214 268 251 232 146 182 159 191 191 165 196 201 192 199 205 208 195 171 159 191 226 224 234 260 214 205 267 281 266 204 199 160 245 243 248 257
170 131 134 120 129 131 132 133 140 140 288 208 277 264 246 141 177 141 179 184 188 155 201 169 178 186 174 167 185 201 196 187 215 158 225 228 226 269 166 215 187 177 202 153 163
193 195 150 130 132 136 189 143 134 132 132 134 128 248 228 271 257 243 228 217 203 188 198 134 201 201 192 203 174 166 211 184 178 206 176 160 173 187 208 203 152 161 265 216 238
183 187 165 190 194 179 134 135 131 194 138 137 133 131 142 208 140 142 149 137 234 155 235 157 214 209 210 202 208 209 217 209 198 170 172 165 191 190 177 190 207 218 170 228 248